Wetterdaten: Mittwoch, 02.03.2016
Datum Zeit Temp. A. Feuchte A. Luftdruck Regen Wind Richtung Richtung Sonnenschein ET UV Solar Taupunkt Windchill Windben Empfang
02.03.2016 00:00 1,3 C 90 % 1016,3 hPa 0,0 l/m 8,1 km/h (2 Bft) W-SW 252 0 min 0,000 mm 0,0 UV-I 0 W/m -0,2 C -0,4 C 12,9 km/h (3 Bft) 100,00 %
02.03.2016 00:01 1,3 C 90 % 1016,3 hPa 0,0 l/m 11,6 km/h (2 Bft) W-SW 257 0 min 0,000 mm 0,0 UV-I 0 W/m -0,2 C -3,2 C 16,1 km/h (3 Bft) 100,00 %
02.03.2016 00:02 1,3 C 90 % 1016,3 hPa 0,0 l/m 10,8 km/h (2 Bft) W-SW 248 0 min 0,000 mm 0,0 UV-I 0 W/m -0,2 C -2,6 C 14,5 km/h (3 Bft) 100,00 %
02.03.2016 00:03 1,3 C 90 % 1016,3 hPa 0,0 l/m 9,3 km/h (2 Bft) W-SW 237 0 min 0,000 mm 0,0 UV-I 0 W/m -0,2 C -1,4 C 16,1 km/h (3 Bft) 100,00 %
02.03.2016 00:04 1,3 C 90 % 1016,2 hPa 0,0 l/m 10,7 km/h (2 Bft) SW 236 0 min 0,000 mm 0,0 UV-I 0 W/m -0,2 C -2,6 C 12,9 km/h (3 Bft) 100,00 %
02.03.2016 00:05 1,3 C 89 % 1016,3 hPa 0,0 l/m 10,8 km/h (2 Bft) S-SW 207 0 min 0,000 mm 0,0 UV-I 0 W/m -0,3 C -2,6 C 16,1 km/h (3 Bft) 100,00 %
02.03.2016 00:06 1,3 C 89 % 1016,3 hPa 0,0 l/m 12,9 km/h (3 Bft) SW 223 0 min 0,000 mm 0,0 UV-I 0 W/m -0,3 C -4,1 C 17,7 km/h (3 Bft) 100,00 %
02.03.2016 00:07 1,3 C 89 % 1016,2 hPa 0,0 l/m 10,1 km/h (2 Bft) SW 230 0 min 0,000 mm 0,0 UV-I 0 W/m -0,3 C -2,1 C 12,9 km/h (3 Bft) 100,00 %
02.03.2016 00:08 1,3 C 89 % 1016,2 hPa 0,0 l/m 12,3 km/h (3 Bft) W-SW 238 0 min 0,000 mm 0,0 UV-I 0 W/m -0,3 C -3,7 C 16,1 km/h (3 Bft) 95,65 %
02.03.2016 00:09 1,3 C 89 % 1016,2 hPa 0,0 l/m 8,0 km/h (2 Bft) S-SW 197 0 min 0,000 mm 0,0 UV-I 0 W/m -0,3 C -0,3 C 11,3 km/h (2 Bft) 100,00 %
02.03.2016 00:10 1,2 C 89 % 1016,2 hPa 0,0 l/m 8,6 km/h (2 Bft) SW 227 0 min 0,000 mm 0,0 UV-I 0 W/m -0,4 C -0,9 C 11,3 km/h (2 Bft) 100,00 %
02.03.2016 00:11 1,2 C 89 % 1016,2 hPa 0,0 l/m 9,0 km/h (2 Bft) W-SW 243 0 min 0,000 mm 0,0 UV-I 0 W/m -0,4 C -1,3 C 12,9 km/h (3 Bft) 100,00 %
02.03.2016 00:12 1,2 C 89 % 1016,3 hPa 0,0 l/m 9,5 km/h (2 Bft) S 190 0 min 0,000 mm 0,0 UV-I 0 W/m -0,4 C -1,7 C 17,7 km/h (3 Bft) 96,15 %
02.03.2016 00:13 1,2 C 89 % 1016,3 hPa 0,0 l/m 9,9 km/h (2 Bft) W-SW 237 0 min 0,000 mm 0,0 UV-I 0 W/m -0,4 C -2,0 C 12,9 km/h (3 Bft) 100,00 %
02.03.2016 00:14 1,2 C 89 % 1016,3 hPa 0,0 l/m 8,2 km/h (2 Bft) SW 224 0 min 0,000 mm 0,0 UV-I 0 W/m -0,4 C -0,6 C 12,9 km/h (3 Bft) 100,00 %
02.03.2016 00:15 1,2 C 89 % 1016,3 hPa 0,0 l/m 6,8 km/h (2 Bft) W-SW 243 0 min 0,000 mm 0,0 UV-I 0 W/m -0,4 C 0,8 C 11,3 km/h (2 Bft) 100,00 %
02.03.2016 00:16 1,2 C 89 % 1016,2 hPa 0,0 l/m 6,6 km/h (2 Bft) W-SW 244 0 min 0,000 mm 0,0 UV-I 0 W/m -0,4 C 1,0 C 11,3 km/h (2 Bft) 100,00 %
02.03.2016 00:17 1,1 C 90 % 1016,3 hPa 0,0 l/m 6,0 km/h (2 Bft) SW 229 0 min 0,000 mm 0,0 UV-I 0 W/m -0,4 C 1,1 C 8,0 km/h (2 Bft) 100,00 %
02.03.2016 00:18 1,1 C 90 % 1016,2 hPa 0,0 l/m 8,0 km/h (2 Bft) SW 236 0 min 0,000 mm 0,0 UV-I 0 W/m -0,4 C -0,5 C 9,7 km/h (2 Bft) 100,00 %
02.03.2016 00:19 1,0 C 90 % 1016,2 hPa 0,0 l/m 7,6 km/h (2 Bft) SW 232 0 min 0,000 mm 0,0 UV-I 0 W/m -0,5 C -0,2 C 11,3 km/h (2 Bft) 100,00 %
02.03.2016 00:20 1,0 C 90 % 1016,3 hPa 0,0 l/m 6,4 km/h (2 Bft) SW 215 0 min 0,000 mm 0,0 UV-I 0 W/m -0,5 C 1,0 C 11,3 km/h (2 Bft) 100,00 %
02.03.2016 00:21 0,9 C 90 % 1016,2 hPa 0,0 l/m 8,0 km/h (2 Bft) W-SW 240 0 min 0,000 mm 0,0 UV-I 0 W/m -0,6 C -0,7 C 12,9 km/h (3 Bft) 100,00 %
02.03.2016 00:22 0,9 C 90 % 1016,1 hPa 0,0 l/m 8,0 km/h (2 Bft) S-SW 210 0 min 0,000 mm 0,0 UV-I 0 W/m -0,6 C -0,7 C 11,3 km/h (2 Bft) 100,00 %
02.03.2016 00:23 0,9 C 90 % 1016,2 hPa 0,0 l/m 7,8 km/h (2 Bft) S-SW 207 0 min 0,000 mm 0,0 UV-I 0 W/m -0,6 C -0,5 C 12,9 km/h (3 Bft) 90,91 %
02.03.2016 00:24 0,9 C 90 % 1016,2 hPa 0,0 l/m 6,8 km/h (2 Bft) S 170 0 min 0,000 mm 0,0 UV-I 0 W/m -0,6 C 0,5 C 9,7 km/h (2 Bft) 100,00 %
02.03.2016 00:25 0,9 C 90 % 1016,2 hPa 0,0 l/m 6,4 km/h (2 Bft) SW 229 0 min 0,000 mm 0,0 UV-I 0 W/m -0,6 C 0,9 C 8,0 km/h (2 Bft) 100,00 %
02.03.2016 00:26 0,9 C 90 % 1016,2 hPa 0,0 l/m 6,3 km/h (2 Bft) S-SW 206 0 min 0,000 mm 0,0 UV-I 0 W/m -0,6 C 0,9 C 9,7 km/h (2 Bft) 100,00 %
02.03.2016 00:27 0,9 C 90 % 1016,2 hPa 0,0 l/m 6,4 km/h (2 Bft) S-SW 204 0 min 0,000 mm 0,0 UV-I 0 W/m -0,6 C 0,9 C 9,7 km/h (2 Bft) 100,00 %
02.03.2016 00:28 0,9 C 90 % 1016,2 hPa 0,0 l/m 6,4 km/h (2 Bft) S 190 0 min 0,000 mm 0,0 UV-I 0 W/m -0,6 C 0,9 C 9,7 km/h (2 Bft) 100,00 %
02.03.2016 00:29 1,0 C 90 % 1016,2 hPa 0,0 l/m 6,4 km/h (2 Bft) S-SW 207 0 min 0,000 mm 0,0 UV-I 0 W/m -0,5 C 1,0 C 9,7 km/h (2 Bft) 100,00 %
02.03.2016 00:30 1,0 C 90 % 1016,2 hPa 0,0 l/m 7,5 km/h (2 Bft) S-SW 202 0 min 0,000 mm 0,0 UV-I 0 W/m -0,5 C -0,1 C 9,7 km/h (2 Bft) 100,00 %
02.03.2016 00:31 0,9 C 90 % 1016,2 hPa 0,0 l/m 4,8 km/h (1 Bft) SW 217 0 min 0,000 mm 0,0 UV-I 0 W/m -0,6 C 0,9 C 6,4 km/h (2 Bft) 100,00 %
02.03.2016 00:32 0,9 C 90 % 1016,1 hPa 0,0 l/m 6,9 km/h (2 Bft) S-SW 198 0 min 0,000 mm 0,0 UV-I 0 W/m -0,6 C 0,4 C 8,0 km/h (2 Bft) 100,00 %
02.03.2016 00:33 0,9 C 90 % 1016,1 hPa 0,0 l/m 6,5 km/h (2 Bft) S-SW 198 0 min 0,000 mm 0,0 UV-I 0 W/m -0,6 C 0,8 C 8,0 km/h (2 Bft) 100,00 %
02.03.2016 00:34 0,9 C 90 % 1016,1 hPa 0,0 l/m 9,0 km/h (2 Bft) S-SW 205 0 min 0,000 mm 0,0 UV-I 0 W/m -0,6 C -1,6 C 11,3 km/h (2 Bft) 100,00 %
02.03.2016 00:35 0,9 C 90 % 1016,1 hPa 0,0 l/m 8,9 km/h (2 Bft) SW 215 0 min 0,000 mm 0,0 UV-I 0 W/m -0,6 C -1,5 C 11,3 km/h (2 Bft) 100,00 %
02.03.2016 00:36 0,9 C 90 % 1016,1 hPa 0,0 l/m 6,6 km/h (2 Bft) S-SW 207 0 min 0,000 mm 0,0 UV-I 0 W/m -0,6 C 0,7 C 9,7 km/h (2 Bft) 100,00 %
02.03.2016 00:37 0,9 C 90 % 1016,1 hPa 0,0 l/m 7,2 km/h (2 Bft) S 180 0 min 0,000 mm 0,0 UV-I 0 W/m -0,6 C 0,1 C 9,7 km/h (2 Bft) 95,65 %
02.03.2016 00:38 0,9 C 90 % 1016,1 hPa 0,0 l/m 5,6 km/h (1 Bft) S 188 0 min 0,000 mm 0,0 UV-I 0 W/m -0,6 C 0,9 C 8,0 km/h (2 Bft) 100,00 %
02.03.2016 00:39 0,9 C 90 % 1016,0 hPa 0,0 l/m 6,6 km/h (2 Bft) SW 220 0 min 0,000 mm 0,0 UV-I 0 W/m -0,6 C 0,7 C 8,0 km/h (2 Bft) 100,00 %
02.03.2016 00:40 0,9 C 90 % 1016,0 hPa 0,0 l/m 4,6 km/h (1 Bft) SW 226 0 min 0,000 mm 0,0 UV-I 0 W/m -0,6 C 0,9 C 8,0 km/h (2 Bft) 100,00 %
02.03.2016 00:41 0,9 C 90 % 1016,0 hPa 0,0 l/m 7,5 km/h (2 Bft) S-SW 213 0 min 0,000 mm 0,0 UV-I 0 W/m -0,6 C -0,2 C 9,7 km/h (2 Bft) 100,00 %
02.03.2016 00:42 0,9 C 90 % 1016,0 hPa 0,0 l/m 4,4 km/h (1 Bft) S-SW 210 0 min 0,000 mm 0,0 UV-I 0 W/m -0,6 C 0,9 C 6,4 km/h (2 Bft) 100,00 %
02.03.2016 00:43 0,9 C 90 % 1016,0 hPa 0,0 l/m 5,4 km/h (1 Bft) S 180 0 min 0,000 mm 0,0 UV-I 0 W/m -0,6 C 0,9 C 8,0 km/h (2 Bft) 100,00 %
02.03.2016 00:44 0,9 C 90 % 1015,9 hPa 0,0 l/m 5,1 km/h (1 Bft) SW 217 0 min 0,000 mm 0,0 UV-I 0 W/m -0,6 C 0,9 C 6,4 km/h (2 Bft) 100,00 %
02.03.2016 00:45 0,9 C 90 % 1015,9 hPa 0,0 l/m 5,6 km/h (1 Bft) S-SW 211 0 min 0,000 mm 0,0 UV-I 0 W/m -0,6 C 0,9 C 8,0 km/h (2 Bft) 100,00 %
02.03.2016 00:46 0,9 C 90 % 1015,9 hPa 0,0 l/m 5,2 km/h (1 Bft) W-SW 242 0 min 0,000 mm 0,0 UV-I 0 W/m -0,6 C 0,9 C 6,4 km/h (2 Bft) 100,00 %
02.03.2016 00:47 0,9 C 90 % 1015,9 hPa 0,0 l/m 6,4 km/h (2 Bft) W-SW 246 0 min 0,000 mm 0,0 UV-I 0 W/m -0,6 C 0,9 C 8,0 km/h (2 Bft) 100,00 %
02.03.2016 00:48 0,8 C 90 % 1015,8 hPa 0,0 l/m 7,8 km/h (2 Bft) S-SW 213 0 min 0,000 mm 0,0 UV-I 0 W/m -0,6 C -0,6 C 12,9 km/h (3 Bft) 100,00 %
02.03.2016 00:49 0,8 C 90 % 1015,8 hPa 0,0 l/m 8,4 km/h (2 Bft) SW 222 0 min 0,000 mm 0,0 UV-I 0 W/m -0,6 C -1,2 C 12,9 km/h (3 Bft) 100,00 %
02.03.2016 00:50 0,8 C 90 % 1015,7 hPa 0,0 l/m 7,8 km/h (2 Bft) SW 225 0 min 0,000 mm 0,0 UV-I 0 W/m -0,6 C -0,6 C 11,3 km/h (2 Bft) 100,00 %
02.03.2016 00:51 0,7 C 91 % 1015,8 hPa 0,0 l/m 8,4 km/h (2 Bft) S-SW 202 0 min 0,000 mm 0,0 UV-I 0 W/m -0,6 C -1,3 C 11,3 km/h (2 Bft) 100,00 %
02.03.2016 00:52 0,7 C 91 % 1015,8 hPa 0,0 l/m 5,8 km/h (2 Bft) SW 232 0 min 0,000 mm 0,0 UV-I 0 W/m -0,6 C 0,7 C 8,0 km/h (2 Bft) 100,00 %
02.03.2016 00:53 0,7 C 91 % 1015,7 hPa 0,0 l/m 6,4 km/h (2 Bft) S-SW 213 0 min 0,000 mm 0,0 UV-I 0 W/m -0,6 C 0,7 C 9,7 km/h (2 Bft) 100,00 %
02.03.2016 00:54 0,7 C 91 % 1015,7 hPa 0,0 l/m 6,4 km/h (2 Bft) SW 235 0 min 0,000 mm 0,0 UV-I 0 W/m -0,6 C 0,7 C 8,0 km/h (2 Bft) 100,00 %
02.03.2016 00:55 0,6 C 91 % 1015,7 hPa 0,0 l/m 6,4 km/h (2 Bft) SW 223 0 min 0,000 mm 0,0 UV-I 0 W/m -0,7 C 0,6 C 8,0 km/h (2 Bft) 93,33 %
02.03.2016 00:56 0,6 C 91 % 1015,7 hPa 0,0 l/m 6,0 km/h (2 Bft) SW 227 0 min 0,000 mm 0,0 UV-I 0 W/m -0,7 C 0,6 C 6,4 km/h (2 Bft) 100,00 %
02.03.2016 00:57 0,6 C 91 % 1015,8 hPa 0,0 l/m 6,4 km/h (2 Bft) SW 227 0 min 0,000 mm 0,0 UV-I 0 W/m -0,7 C 0,6 C 8,0 km/h (2 Bft) 100,00 %
02.03.2016 00:58 0,5 C 91 % 1015,7 hPa 0,0 l/m 5,6 km/h (1 Bft) SW 220 0 min 0,000 mm 0,0 UV-I 0 W/m -0,8 C 0,5 C 8,0 km/h (2 Bft) 94,44 %
02.03.2016 00:59 0,5 C 91 % 1015,7 hPa 0,0 l/m 6,5 km/h (2 Bft) S-SW 211 0 min 0,000 mm 0,0 UV-I 0 W/m -0,8 C 0,4 C 8,0 km/h (2 Bft) 100,00 %
02.03.2016 01:00 0,4 C 91 % 1015,7 hPa 0,0 l/m 6,0 km/h (2 Bft) SW 218 0 min 0,000 mm 0,0 UV-I 0 W/m -0,9 C 0,4 C 6,4 km/h (2 Bft) 96,30 %
02.03.2016 01:01 0,4 C 91 % 1015,7 hPa 0,0 l/m 6,9 km/h (2 Bft) SW 232 0 min 0,000 mm 0,0 UV-I 0 W/m -0,9 C -0,1 C 8,0 km/h (2 Bft) 100,00 %
02.03.2016 01:02 0,4 C 91 % 1015,7 hPa 0,0 l/m 7,5 km/h (2 Bft) SW 229 0 min 0,000 mm 0,0 UV-I 0 W/m -0,9 C -0,7 C 11,3 km/h (2 Bft) 95,83 %
02.03.2016 01:03 0,4 C 91 % 1015,7 hPa 0,0 l/m 5,1 km/h (1 Bft) S-SW 206 0 min 0,000 mm 0,0 UV-I 0 W/m -0,9 C 0,4 C 8,0 km/h (2 Bft) 100,00 %
02.03.2016 01:04 0,4 C 92 % 1015,7 hPa 0,0 l/m 5,8 km/h (2 Bft) SW 229 0 min 0,000 mm 0,0 UV-I 0 W/m -0,7 C 0,4 C 8,0 km/h (2 Bft) 95,83 %
02.03.2016 01:05 0,4 C 92 % 1015,6 hPa 0,0 l/m 5,2 km/h (1 Bft) SW 220 0 min 0,000 mm 0,0 UV-I 0 W/m -0,7 C 0,4 C 6,4 km/h (2 Bft) 91,30 %
02.03.2016 01:06 0,4 C 92 % 1015,6 hPa 0,0 l/m 3,8 km/h (1 Bft) SW 220 0 min 0,000 mm 0,0 UV-I 0 W/m -0,7 C 0,4 C 6,4 km/h (2 Bft) 100,00 %
02.03.2016 01:07 0,4 C 92 % 1015,6 hPa 0,0 l/m 4,7 km/h (1 Bft) SW 230 0 min 0,000 mm 0,0 UV-I 0 W/m -0,7 C 0,4 C 6,4 km/h (2 Bft) 92,31 %
02.03.2016 01:08 0,4 C 92 % 1015,6 hPa 0,0 l/m 3,7 km/h (1 Bft) SW 228 0 min 0,000 mm 0,0 UV-I 0 W/m -0,7 C 0,4 C 4,8 km/h (1 Bft) 100,00 %
02.03.2016 01:09 0,4 C 92 % 1015,6 hPa 0,0 l/m 4,9 km/h (1 Bft) SW 229 0 min 0,000 mm 0,0 UV-I 0 W/m -0,7 C 0,4 C 6,4 km/h (2 Bft) 95,65 %
02.03.2016 01:10 0,4 C 92 % 1015,6 hPa 0,0 l/m 4,8 km/h (1 Bft) SW 229 0 min 0,000 mm 0,0 UV-I 0 W/m -0,7 C 0,4 C 6,4 km/h (2 Bft) 100,00 %
02.03.2016 01:11 0,4 C 92 % 1015,5 hPa 0,0 l/m 4,2 km/h (1 Bft) SW 225 0 min 0,000 mm 0,0 UV-I 0 W/m -0,7 C 0,4 C 4,8 km/h (1 Bft) 95,65 %
02.03.2016 01:12 0,4 C 92 % 1015,5 hPa 0,0 l/m 4,3 km/h (1 Bft) SW 233 0 min 0,000 mm 0,0 UV-I 0 W/m -0,7 C 0,4 C 4,8 km/h (1 Bft) 92,59 %
02.03.2016 01:13 0,4 C 92 % 1015,5 hPa 0,0 l/m 4,5 km/h (1 Bft) SW 229 0 min 0,000 mm 0,0 UV-I 0 W/m -0,7 C 0,4 C 6,4 km/h (2 Bft) 100,00 %
02.03.2016 01:14 0,3 C 92 % 1015,5 hPa 0,0 l/m 4,0 km/h (1 Bft) SW 223 0 min 0,000 mm 0,0 UV-I 0 W/m -0,8 C 0,3 C 4,8 km/h (1 Bft) 96,15 %
02.03.2016 01:15 0,3 C 92 % 1015,5 hPa 0,0 l/m 4,8 km/h (1 Bft) S-SW 199 0 min 0,000 mm 0,0 UV-I 0 W/m -0,8 C 0,3 C 6,4 km/h (2 Bft) 100,00 %
02.03.2016 01:16 0,3 C 92 % 1015,5 hPa 0,0 l/m 5,4 km/h (1 Bft) S-SW 210 0 min 0,000 mm 0,0 UV-I 0 W/m -0,8 C 0,3 C 6,4 km/h (2 Bft) 97,37 %
02.03.2016 01:17 0,4 C 92 % 1015,4 hPa 0,0 l/m 4,1 km/h (1 Bft) S-SW 209 0 min 0,000 mm 0,0 UV-I 0 W/m -0,7 C 0,4 C 4,8 km/h (1 Bft) 100,00 %
02.03.2016 01:18 0,4 C 92 % 1015,4 hPa 0,0 l/m 5,0 km/h (1 Bft) W-SW 244 0 min 0,000 mm 0,0 UV-I 0 W/m -0,7 C 0,4 C 8,0 km/h (2 Bft) 96,15 %
02.03.2016 01:19 0,4 C 92 % 1015,4 hPa 0,0 l/m 5,6 km/h (1 Bft) SW 223 0 min 0,000 mm 0,0 UV-I 0 W/m -0,7 C 0,4 C 6,4 km/h (2 Bft) 100,00 %
02.03.2016 01:20 0,4 C 92 % 1015,4 hPa 0,0 l/m 6,8 km/h (2 Bft) SW 221 0 min 0,000 mm 0,0 UV-I 0 W/m -0,7 C 0,0 C 8,0 km/h (2 Bft) 95,65 %
02.03.2016 01:21 0,4 C 92 % 1015,4 hPa 0,0 l/m 4,2 km/h (1 Bft) SW 236 0 min 0,000 mm 0,0 UV-I 0 W/m -0,7 C 0,4 C 6,4 km/h (2 Bft) 92,59 %
02.03.2016 01:22 0,4 C 92 % 1015,4 hPa 0,0 l/m 4,0 km/h (1 Bft) S-SW 193 0 min 0,000 mm 0,0 UV-I 0 W/m -0,7 C 0,4 C 6,4 km/h (2 Bft) 100,00 %
02.03.2016 01:23 0,4 C 92 % 1015,4 hPa 0,0 l/m 4,2 km/h (1 Bft) SW 222 0 min 0,000 mm 0,0 UV-I 0 W/m -0,7 C 0,4 C 4,8 km/h (1 Bft) 96,30 %
02.03.2016 01:24 0,4 C 92 % 1015,4 hPa 0,0 l/m 5,4 km/h (1 Bft) S-SW 207 0 min 0,000 mm 0,0 UV-I 0 W/m -0,7 C 0,4 C 8,0 km/h (2 Bft) 96,15 %
02.03.2016 01:25 0,4 C 92 % 1015,4 hPa 0,0 l/m 4,7 km/h (1 Bft) S-SW 211 0 min 0,000 mm 0,0 UV-I 0 W/m -0,7 C 0,4 C 6,4 km/h (2 Bft) 96,30 %
02.03.2016 01:26 0,4 C 92 % 1015,3 hPa 0,0 l/m 4,1 km/h (1 Bft) S-SW 211 0 min 0,000 mm 0,0 UV-I 0 W/m -0,7 C 0,4 C 4,8 km/h (1 Bft) 100,00 %
02.03.2016 01:27 0,4 C 92 % 1015,3 hPa 0,0 l/m 4,4 km/h (1 Bft) SW 217 0 min 0,000 mm 0,0 UV-I 0 W/m -0,7 C 0,4 C 6,4 km/h (2 Bft) 96,67 %
02.03.2016 01:28 0,3 C 92 % 1015,4 hPa 0,0 l/m 4,0 km/h (1 Bft) SW 227 0 min 0,000 mm 0,0 UV-I 0 W/m -0,8 C 0,3 C 6,4 km/h (2 Bft) 96,55 %
02.03.2016 01:29 0,3 C 92 % 1015,3 hPa 0,0 l/m 4,0 km/h (1 Bft) SW 225 0 min 0,000 mm 0,0 UV-I 0 W/m -0,8 C 0,3 C 4,8 km/h (1 Bft) 100,00 %
02.03.2016 01:30 0,3 C 92 % 1015,3 hPa 0,0 l/m 3,1 km/h (1 Bft) SW 225 0 min 0,000 mm 0,0 UV-I 0 W/m -0,8 C 0,3 C 4,8 km/h (1 Bft) 96,15 %
02.03.2016 01:31 0,3 C 92 % 1015,3 hPa 0,0 l/m 3,5 km/h (1 Bft) SW 225 0 min 0,000 mm 0,0 UV-I 0 W/m -0,8 C 0,3 C 4,8 km/h (1 Bft) 100,00 %
02.03.2016 01:32 0,2 C 92 % 1015,3 hPa 0,0 l/m 4,0 km/h (1 Bft) SW 225 0 min 0,000 mm 0,0 UV-I 0 W/m -0,9 C 0,2 C 4,8 km/h (1 Bft) 92,86 %
02.03.2016 01:33 0,2 C 92 % 1015,3 hPa 0,0 l/m 4,0 km/h (1 Bft) SW 226 0 min 0,000 mm 0,0 UV-I 0 W/m -0,9 C 0,2 C 4,8 km/h (1 Bft) 100,00 %
02.03.2016 01:34 0,2 C 92 % 1015,2 hPa 0,0 l/m 4,8 km/h (1 Bft) SW 227 0 min 0,000 mm 0,0 UV-I 0 W/m -0,9 C 0,2 C 6,4 km/h (2 Bft) 95,65 %
02.03.2016 01:35 0,2 C 92 % 1015,2 hPa 0,0 l/m 4,9 km/h (1 Bft) SW 229 0 min 0,000 mm 0,0 UV-I 0 W/m -0,9 C 0,2 C 6,4 km/h (2 Bft) 100,00 %
02.03.2016 01:36 0,2 C 92 % 1015,2 hPa 0,0 l/m 4,5 km/h (1 Bft) SW 229 0 min 0,000 mm 0,0 UV-I 0 W/m -0,9 C 0,2 C 4,8 km/h (1 Bft) 100,00 %
02.03.2016 01:37 0,1 C 92 % 1015,2 hPa 0,0 l/m 3,3 km/h (1 Bft) SW 219 0 min 0,000 mm 0,0 UV-I 0 W/m -1,0 C 0,1 C 4,8 km/h (1 Bft) 100,00 %
02.03.2016 01:38 0,1 C 92 % 1015,2 hPa 0,0 l/m 3,5 km/h (1 Bft) SW 219 0 min 0,000 mm 0,0 UV-I 0 W/m -1,0 C 0,1 C 4,8 km/h (1 Bft) 100,00 %
02.03.2016 01:39 0,1 C 92 % 1015,1 hPa 0,0 l/m 3,9 km/h (1 Bft) SW 220 0 min 0,000 mm 0,0 UV-I 0 W/m -1,0 C 0,1 C 6,4 km/h (2 Bft) 92,86 %
02.03.2016 01:40 0,1 C 93 % 1015,1 hPa 0,0 l/m 4,1 km/h (1 Bft) SW 220 0 min 0,000 mm 0,0 UV-I 0 W/m -0,9 C 0,1 C 4,8 km/h (1 Bft) 95,83 %
02.03.2016 01:41 0,1 C 93 % 1015,1 hPa 0,0 l/m 4,2 km/h (1 Bft) S-SW 209 0 min 0,000 mm 0,0 UV-I 0 W/m -0,9 C 0,1 C 6,4 km/h (2 Bft) 95,65 %
02.03.2016 01:42 0,1 C 93 % 1015,1 hPa 0,0 l/m 5,1 km/h (1 Bft) S-SW 206 0 min 0,000 mm 0,0 UV-I 0 W/m -0,9 C 0,1 C 6,4 km/h (2 Bft) 100,00 %
02.03.2016 01:43 0,1 C 93 % 1015,0 hPa 0,0 l/m 3,8 km/h (1 Bft) S-SW 206 0 min 0,000 mm 0,0 UV-I 0 W/m -0,9 C 0,1 C 6,4 km/h (2 Bft) 95,65 %
02.03.2016 01:44 0,1 C 93 % 1015,0 hPa 0,0 l/m 3,8 km/h (1 Bft) S-SW 210 0 min 0,000 mm 0,0 UV-I 0 W/m -0,9 C 0,1 C 4,8 km/h (1 Bft) 100,00 %
02.03.2016 01:45 0,1 C 93 % 1015,0 hPa 0,0 l/m 4,3 km/h (1 Bft) SW 229 0 min 0,000 mm 0,0 UV-I 0 W/m -0,9 C 0,1 C 6,4 km/h (2 Bft) 100,00 %
02.03.2016 01:46 0,1 C 93 % 1015,0 hPa 0,0 l/m 3,9 km/h (1 Bft) SW 229 0 min 0,000 mm 0,0 UV-I 0 W/m -0,9 C 0,1 C 6,4 km/h (2 Bft) 100,00 %
02.03.2016 01:47 0,0 C 93 % 1015,0 hPa 0,0 l/m 4,8 km/h (1 Bft) SW 228 0 min 0,000 mm 0,0 UV-I 0 W/m -1,0 C 0,0 C 6,4 km/h (2 Bft) 100,00 %
02.03.2016 01:48 0,0 C 93 % 1014,9 hPa 0,0 l/m 5,3 km/h (1 Bft) SW 228 0 min 0,000 mm 0,0 UV-I 0 W/m -1,0 C 0,0 C 6,4 km/h (2 Bft) 95,83 %
02.03.2016 01:49 0,0 C 93 % 1014,9 hPa 0,0 l/m 5,1 km/h (1 Bft) SW 229 0 min 0,000 mm 0,0 UV-I 0 W/m -1,0 C 0,0 C 6,4 km/h (2 Bft) 100,00 %
02.03.2016 01:50 0,0 C 93 % 1014,9 hPa 0,0 l/m 4,7 km/h (1 Bft) SW 230 0 min 0,000 mm 0,0 UV-I 0 W/m -1,0 C 0,0 C 6,4 km/h (2 Bft) 100,00 %
02.03.2016 01:51 0,0 C 93 % 1014,9 hPa 0,0 l/m 5,4 km/h (1 Bft) SW 234 0 min 0,000 mm 0,0 UV-I 0 W/m -1,0 C 0,0 C 8,0 km/h (2 Bft) 93,33 %
02.03.2016 01:52 0,0 C 93 % 1014,9 hPa 0,0 l/m 5,1 km/h (1 Bft) S-SW 193 0 min 0,000 mm 0,0 UV-I 0 W/m -1,0 C 0,0 C 6,4 km/h (2 Bft) 96,55 %
02.03.2016 01:53 -0,1 C 93 % 1014,9 hPa 0,0 l/m 6,3 km/h (2 Bft) S-SW 205 0 min 0,000 mm 0,0 UV-I 0 W/m -1,1 C -0,1 C 8,0 km/h (2 Bft) 100,00 %
02.03.2016 01:54 0,0 C 93 % 1014,8 hPa 0,0 l/m 3,6 km/h (1 Bft) S-SW 205 0 min 0,000 mm 0,0 UV-I 0 W/m -1,0 C 0,0 C 4,8 km/h (1 Bft) 100,00 %
02.03.2016 01:55 0,0 C 93 % 1014,8 hPa 0,0 l/m 2,2 km/h (1 Bft) S-SW 205 0 min 0,000 mm 0,0 UV-I 0 W/m -1,0 C 0,0 C 4,8 km/h (1 Bft) 100,00 %
02.03.2016 01:56 0,0 C 93 % 1014,8 hPa 0,0 l/m 3,8 km/h (1 Bft) S 173 0 min 0,000 mm 0,0 UV-I 0 W/m -1,0 C 0,0 C 4,8 km/h (1 Bft) 100,00 %
02.03.2016 01:57 0,0 C 93 % 1014,8 hPa 0,0 l/m 3,7 km/h (1 Bft) S 178 0 min 0,000 mm 0,0 UV-I 0 W/m -1,0 C 0,0 C 4,8 km/h (1 Bft) 100,00 %
02.03.2016 01:58 0,0 C 93 % 1014,8 hPa 0,0 l/m 4,2 km/h (1 Bft) S 190 0 min 0,000 mm 0,0 UV-I 0 W/m -1,0 C 0,0 C 6,4 km/h (2 Bft) 100,00 %
02.03.2016 01:59 0,0 C 93 % 1014,8 hPa 0,0 l/m 2,2 km/h (1 Bft) S 190 0 min 0,000 mm 0,0 UV-I 0 W/m -1,0 C 0,0 C 3,2 km/h (1 Bft) 100,00 %
02.03.2016 02:00 0,1 C 93 % 1014,7 hPa 0,0 l/m 1,7 km/h (1 Bft) S 190 0 min 0,000 mm 0,0 UV-I 0 W/m -0,9 C 0,1 C 3,2 km/h (1 Bft) 100,00 %
02.03.2016 02:01 0,1 C 93 % 1014,7 hPa 0,0 l/m 1,7 km/h (1 Bft) S 190 0 min 0,000 mm 0,0 UV-I 0 W/m -0,9 C 0,1 C 3,2 km/h (1 Bft) 100,00 %
02.03.2016 02:02 0,1 C 93 % 1014,7 hPa 0,0 l/m 2,6 km/h (1 Bft) S 190 0 min 0,000 mm 0,0 UV-I 0 W/m -0,9 C 0,1 C 4,8 km/h (1 Bft) 100,00 %
02.03.2016 02:03 0,1 C 93 % 1014,7 hPa 0,0 l/m 3,2 km/h (1 Bft) S 190 0 min 0,000 mm 0,0 UV-I 0 W/m -0,9 C 0,1 C 4,8 km/h (1 Bft) 100,00 %
02.03.2016 02:04 0,1 C 93 % 1014,7 hPa 0,0 l/m 2,9 km/h (1 Bft) S 190 0 min 0,000 mm 0,0 UV-I 0 W/m -0,9 C 0,1 C 3,2 km/h (1 Bft) 96,15 %
02.03.2016 02:05 0,1 C 93 % 1014,7 hPa 0,0 l/m 2,9 km/h (1 Bft) S 190 0 min 0,000 mm 0,0 UV-I 0 W/m -0,9 C 0,1 C 4,8 km/h (1 Bft) 100,00 %
02.03.2016 02:06 0,2 C 93 % 1014,7 hPa 0,0 l/m 3,1 km/h (1 Bft) S 190 0 min 0,000 mm 0,0 UV-I 0 W/m -0,8 C 0,2 C 3,2 km/h (1 Bft) 95,65 %
02.03.2016 02:07 0,2 C 92 % 1014,6 hPa 0,0 l/m 2,2 km/h (1 Bft) S 190 0 min 0,000 mm 0,0 UV-I 0 W/m -0,9 C 0,2 C 3,2 km/h (1 Bft) 100,00 %
02.03.2016 02:08 0,1 C 92 % 1014,6 hPa 0,0 l/m 2,6 km/h (1 Bft) S 190 0 min 0,000 mm 0,0 UV-I 0 W/m -1,0 C 0,1 C 3,2 km/h (1 Bft) 100,00 %
02.03.2016 02:09 0,1 C 92 % 1014,6 hPa 0,0 l/m 2,7 km/h (1 Bft) S 190 0 min 0,000 mm 0,0 UV-I 0 W/m -1,0 C 0,1 C 3,2 km/h (1 Bft) 100,00 %
02.03.2016 02:10 0,1 C 92 % 1014,6 hPa 0,0 l/m 2,2 km/h (1 Bft) S 190 0 min 0,000 mm 0,0 UV-I 0 W/m -1,0 C 0,1 C 3,2 km/h (1 Bft) 100,00 %
02.03.2016 02:11 0,1 C 92 % 1014,6 hPa 0,0 l/m 2,4 km/h (1 Bft) S 190 0 min 0,000 mm 0,0 UV-I 0 W/m -1,0 C 0,1 C 3,2 km/h (1 Bft) 100,00 %
02.03.2016 02:12 0,1 C 92 % 1014,6 hPa 0,0 l/m 2,7 km/h (1 Bft) S 190 0 min 0,000 mm 0,0 UV-I 0 W/m -1,0 C 0,1 C 4,8 km/h (1 Bft) 100,00 %
02.03.2016 02:13 0,0 C 92 % 1014,6 hPa 0,0 l/m 3,2 km/h (1 Bft) S-SW 192 0 min 0,000 mm 0,0 UV-I 0 W/m -1,1 C 0,0 C 4,8 km/h (1 Bft) 100,00 %
02.03.2016 02:14 0,0 C 92 % 1014,6 hPa 0,0 l/m 4,4 km/h (1 Bft) SW 214 0 min 0,000 mm 0,0 UV-I 0 W/m -1,1 C 0,0 C 4,8 km/h (1 Bft) 95,65 %
02.03.2016 02:15 0,0 C 93 % 1014,5 hPa 0,0 l/m 4,0 km/h (1 Bft) SW 215 0 min 0,000 mm 0,0 UV-I 0 W/m -1,0 C 0,0 C 4,8 km/h (1 Bft) 100,00 %
02.03.2016 02:16 -0,1 C 93 % 1014,5 hPa 0,0 l/m 4,7 km/h (1 Bft) SW 232 0 min 0,000 mm 0,0 UV-I 0 W/m -1,1 C -0,1 C 6,4 km/h (2 Bft) 100,00 %
02.03.2016 02:17 -0,1 C 93 % 1014,5 hPa 0,0 l/m 5,1 km/h (1 Bft) SW 215 0 min 0,000 mm 0,0 UV-I 0 W/m -1,1 C -0,1 C 6,4 km/h (2 Bft) 100,00 %
02.03.2016 02:18 0,0 C 93 % 1014,5 hPa 0,0 l/m 4,7 km/h (1 Bft) SW 223 0 min 0,000 mm 0,0 UV-I 0 W/m -1,0 C 0,0 C 8,0 km/h (2 Bft) 100,00 %
02.03.2016 02:19 0,0 C 93 % 1014,5 hPa 0,0 l/m 5,6 km/h (1 Bft) S-SW 194 0 min 0,000 mm 0,0 UV-I 0 W/m -1,0 C 0,0 C 8,0 km/h (2 Bft) 100,00 %
02.03.2016 02:20 -0,1 C 93 % 1014,4 hPa 0,0 l/m 4,4 km/h (1 Bft) SW 222 0 min 0,000 mm 0,0 UV-I 0 W/m -1,1 C -0,1 C 4,8 km/h (1 Bft) 96,67 %
02.03.2016 02:21 -0,1 C 93 % 1014,4 hPa 0,0 l/m 4,0 km/h (1 Bft) SW 225 0 min 0,000 mm 0,0 UV-I 0 W/m -1,1 C -0,1 C 4,8 km/h (1 Bft) 100,00 %
02.03.2016 02:22 -0,1 C 93 % 1014,4 hPa 0,0 l/m 5,7 km/h (1 Bft) SW 231 0 min 0,000 mm 0,0 UV-I 0 W/m -1,1 C -0,1 C 6,4 km/h (2 Bft) 100,00 %
02.03.2016 02:23 0,0 C 93 % 1014,4 hPa 0,0 l/m 5,3 km/h (1 Bft) S-SW 200 0 min 0,000 mm 0,0 UV-I 0 W/m -1,0 C 0,0 C 6,4 km/h (2 Bft) 100,00 %
02.03.2016 02:24 0,0 C 93 % 1014,4 hPa 0,0 l/m 5,6 km/h (1 Bft) S-SW 211 0 min 0,000 mm 0,0 UV-I 0 W/m -1,0 C 0,0 C 6,4 km/h (2 Bft) 100,00 %
02.03.2016 02:25 0,1 C 93 % 1014,4 hPa 0,0 l/m 4,6 km/h (1 Bft) S-SW 209 0 min 0,000 mm 0,0 UV-I 0 W/m -0,9 C 0,1 C 6,4 km/h (2 Bft) 96,15 %
02.03.2016 02:26 0,1 C 93 % 1014,3 hPa 0,0 l/m 4,9 km/h (1 Bft) S-SW 207 0 min 0,000 mm 0,0 UV-I 0 W/m -0,9 C 0,1 C 6,4 km/h (2 Bft) 100,00 %
02.03.2016 02:27 0,1 C 93 % 1014,4 hPa 0,0 l/m 4,7 km/h (1 Bft) S-SW 208 0 min 0,000 mm 0,0 UV-I 0 W/m -0,9 C 0,1 C 6,4 km/h (2 Bft) 100,00 %
02.03.2016 02:28 0,1 C 92 % 1014,3 hPa 0,0 l/m 3,9 km/h (1 Bft) S-SW 204 0 min 0,000 mm 0,0 UV-I 0 W/m -1,0 C 0,1 C 4,8 km/h (1 Bft) 100,00 %
02.03.2016 02:29 0,1 C 92 % 1014,3 hPa 0,0 l/m 4,5 km/h (1 Bft) SW 223 0 min 0,000 mm 0,0 UV-I 0 W/m -1,0 C 0,1 C 6,4 km/h (2 Bft) 100,00 %
02.03.2016 02:30 0,1 C 92 % 1014,3 hPa 0,0 l/m 4,6 km/h (1 Bft) SW 233 0 min 0,000 mm 0,0 UV-I 0 W/m -1,0 C 0,1 C 6,4 km/h (2 Bft) 100,00 %
02.03.2016 02:31 0,1 C 92 % 1014,3 hPa 0,0 l/m 5,2 km/h (1 Bft) S-SW 213 0 min 0,000 mm 0,0 UV-I 0 W/m -1,0 C 0,1 C 6,4 km/h (2 Bft) 100,00 %
02.03.2016 02:32 0,1 C 92 % 1014,2 hPa 0,0 l/m 4,9 km/h (1 Bft) SW 220 0 min 0,000 mm 0,0 UV-I 0 W/m -1,0 C 0,1 C 6,4 km/h (2 Bft) 100,00 %
02.03.2016 02:33 0,1 C 92 % 1014,2 hPa 0,0 l/m 6,1 km/h (2 Bft) SW 234 0 min 0,000 mm 0,0 UV-I 0 W/m -1,0 C 0,1 C 8,0 km/h (2 Bft) 100,00 %
02.03.2016 02:34 0,1 C 92 % 1014,2 hPa 0,0 l/m 5,6 km/h (1 Bft) SW 225 0 min 0,000 mm 0,0 UV-I 0 W/m -1,0 C 0,1 C 6,4 km/h (2 Bft) 93,10 %
02.03.2016 02:35 0,1 C 92 % 1014,2 hPa 0,0 l/m 5,4 km/h (1 Bft) SW 225 0 min 0,000 mm 0,0 UV-I 0 W/m -1,0 C 0,1 C 6,4 km/h (2 Bft) 100,00 %
02.03.2016 02:36 0,2 C 92 % 1014,2 hPa 0,0 l/m 6,0 km/h (2 Bft) SW 225 0 min 0,000 mm 0,0 UV-I 0 W/m -0,9 C 0,2 C 8,0 km/h (2 Bft) 100,00 %
02.03.2016 02:37 0,2 C 92 % 1014,1 hPa 0,0 l/m 5,2 km/h (1 Bft) S-SW 194 0 min 0,000 mm 0,0 UV-I 0 W/m -0,9 C 0,2 C 6,4 km/h (2 Bft) 96,15 %
02.03.2016 02:38 0,2 C 92 % 1014,1 hPa 0,0 l/m 4,2 km/h (1 Bft) SW 223 0 min 0,000 mm 0,0 UV-I 0 W/m -0,9 C 0,2 C 4,8 km/h (1 Bft) 100,00 %
02.03.2016 02:39 0,2 C 92 % 1014,0 hPa 0,0 l/m 3,6 km/h (1 Bft) SW 223 0 min 0,000 mm 0,0 UV-I 0 W/m -0,9 C 0,2 C 4,8 km/h (1 Bft) 100,00 %
02.03.2016 02:40 0,2 C 92 % 1014,0 hPa 0,0 l/m 3,9 km/h (1 Bft) S-SW 205 0 min 0,000 mm 0,0 UV-I 0 W/m -0,9 C 0,2 C 6,4 km/h (2 Bft) 100,00 %
02.03.2016 02:41 0,2 C 92 % 1014,0 hPa 0,0 l/m 4,3 km/h (1 Bft) S-SW 208 0 min 0,000 mm 0,0 UV-I 0 W/m -0,9 C 0,2 C 6,4 km/h (2 Bft) 100,00 %
02.03.2016 02:42 0,2 C 92 % 1014,0 hPa 0,0 l/m 3,9 km/h (1 Bft) S-SW 208 0 min 0,000 mm 0,0 UV-I 0 W/m -0,9 C 0,2 C 4,8 km/h (1 Bft) 100,00 %
02.03.2016 02:43 0,2 C 92 % 1014,0 hPa 0,0 l/m 3,1 km/h (1 Bft) S-SW 201 0 min 0,000 mm 0,0 UV-I 0 W/m -0,9 C 0,2 C 4,8 km/h (1 Bft) 100,00 %
02.03.2016 02:44 0,2 C 92 % 1014,0 hPa 0,0 l/m 4,7 km/h (1 Bft) S-SW 198 0 min 0,000 mm 0,0 UV-I 0 W/m -0,9 C 0,2 C 6,4 km/h (2 Bft) 100,00 %
02.03.2016 02:45 0,2 C 92 % 1014,0 hPa 0,0 l/m 5,5 km/h (1 Bft) S-SW 194 0 min 0,000 mm 0,0 UV-I 0 W/m -0,9 C 0,2 C 8,0 km/h (2 Bft) 100,00 %
02.03.2016 02:46 0,2 C 92 % 1014,0 hPa 0,0 l/m 4,1 km/h (1 Bft) S 177 0 min 0,000 mm 0,0 UV-I 0 W/m -0,9 C 0,2 C 4,8 km/h (1 Bft) 100,00 %
02.03.2016 02:47 0,2 C 93 % 1014,0 hPa 0,0 l/m 4,2 km/h (1 Bft) S-SW 200 0 min 0,000 mm 0,0 UV-I 0 W/m -0,8 C 0,2 C 6,4 km/h (2 Bft) 100,00 %
02.03.2016 02:48 0,2 C 93 % 1013,9 hPa 0,0 l/m 5,9 km/h (2 Bft) SW 216 0 min 0,000 mm 0,0 UV-I 0 W/m -0,8 C 0,2 C 8,0 km/h (2 Bft) 100,00 %
02.03.2016 02:49 0,2 C 93 % 1013,9 hPa 0,0 l/m 5,6 km/h (1 Bft) SW 235 0 min 0,000 mm 0,0 UV-I 0 W/m -0,8 C 0,2 C 8,0 km/h (2 Bft) 95,83 %
02.03.2016 02:50 0,3 C 93 % 1013,9 hPa 0,0 l/m 7,2 km/h (2 Bft) S 177 0 min 0,000 mm 0,0 UV-I 0 W/m -0,7 C -0,5 C 12,9 km/h (3 Bft) 95,65 %
02.03.2016 02:51 0,3 C 93 % 1013,8 hPa 0,0 l/m 6,5 km/h (2 Bft) S-SW 199 0 min 0,000 mm 0,0 UV-I 0 W/m -0,7 C 0,2 C 9,7 km/h (2 Bft) 100,00 %
02.03.2016 02:52 0,4 C 92 % 1013,8 hPa 0,0 l/m 7,5 km/h (2 Bft) SW 232 0 min 0,000 mm 0,0 UV-I 0 W/m -0,7 C -0,7 C 9,7 km/h (2 Bft) 100,00 %
02.03.2016 02:53 0,5 C 92 % 1013,8 hPa 0,0 l/m 7,5 km/h (2 Bft) SW 216 0 min 0,000 mm 0,0 UV-I 0 W/m -0,6 C -0,6 C 9,7 km/h (2 Bft) 100,00 %
02.03.2016 02:54 0,5 C 92 % 1013,8 hPa 0,0 l/m 4,8 km/h (1 Bft) S-SW 207 0 min 0,000 mm 0,0 UV-I 0 W/m -0,6 C 0,5 C 6,4 km/h (2 Bft) 100,00 %
02.03.2016 02:55 0,6 C 92 % 1013,7 hPa 0,0 l/m 4,1 km/h (1 Bft) S-SW 202 0 min 0,000 mm 0,0 UV-I 0 W/m -0,5 C 0,6 C 4,8 km/h (1 Bft) 100,00 %
02.03.2016 02:56 0,6 C 92 % 1013,7 hPa 0,0 l/m 3,6 km/h (1 Bft) S-SW 200 0 min 0,000 mm 0,0 UV-I 0 W/m -0,5 C 0,6 C 4,8 km/h (1 Bft) 100,00 %
02.03.2016 02:57 0,6 C 92 % 1013,7 hPa 0,0 l/m 3,4 km/h (1 Bft) S-SW 198 0 min 0,000 mm 0,0 UV-I 0 W/m -0,5 C 0,6 C 6,4 km/h (2 Bft) 100,00 %
02.03.2016 02:58 0,6 C 92 % 1013,7 hPa 0,0 l/m 6,4 km/h (2 Bft) S-SW 194 0 min 0,000 mm 0,0 UV-I 0 W/m -0,5 C 0,6 C 8,0 km/h (2 Bft) 96,30 %
02.03.2016 02:59 0,6 C 91 % 1013,6 hPa 0,0 l/m 4,9 km/h (1 Bft) S-SW 197 0 min 0,000 mm 0,0 UV-I 0 W/m -0,7 C 0,6 C 6,4 km/h (2 Bft) 100,00 %
02.03.2016 03:00 0,5 C 91 % 1013,7 hPa 0,0 l/m 4,5 km/h (1 Bft) S-SW 213 0 min 0,000 mm 0,0 UV-I 0 W/m -0,8 C 0,5 C 8,0 km/h (2 Bft) 100,00 %
02.03.2016 03:01 0,5 C 91 % 1013,7 hPa 0,0 l/m 4,4 km/h (1 Bft) S-SW 203 0 min 0,000 mm 0,0 UV-I 0 W/m -0,8 C 0,5 C 8,0 km/h (2 Bft) 100,00 %
02.03.2016 03:02 0,5 C 92 % 1013,6 hPa 0,0 l/m 4,4 km/h (1 Bft) S-SW 194 0 min 0,000 mm 0,0 UV-I 0 W/m -0,6 C 0,5 C 6,4 km/h (2 Bft) 100,00 %
02.03.2016 03:03 0,4 C 92 % 1013,7 hPa 0,0 l/m 3,8 km/h (1 Bft) S-SW 194 0 min 0,000 mm 0,0 UV-I 0 W/m -0,7 C 0,4 C 4,8 km/h (1 Bft) 100,00 %
02.03.2016 03:04 0,4 C 92 % 1013,6 hPa 0,0 l/m 4,2 km/h (1 Bft) S-SW 196 0 min 0,000 mm 0,0 UV-I 0 W/m -0,7 C 0,4 C 6,4 km/h (2 Bft) 100,00 %
02.03.2016 03:05 0,4 C 92 % 1013,6 hPa 0,0 l/m 4,3 km/h (1 Bft) S-SW 200 0 min 0,000 mm 0,0 UV-I 0 W/m -0,7 C 0,4 C 4,8 km/h (1 Bft) 92,86 %
02.03.2016 03:06 0,4 C 92 % 1013,6 hPa 0,0 l/m 5,6 km/h (1 Bft) S 187 0 min 0,000 mm 0,0 UV-I 0 W/m -0,7 C 0,4 C 6,4 km/h (2 Bft) 100,00 %
02.03.2016 03:07 0,3 C 92 % 1013,6 hPa 0,0 l/m 5,3 km/h (1 Bft) S 190 0 min 0,000 mm 0,0 UV-I 0 W/m -0,8 C 0,3 C 6,4 km/h (2 Bft) 100,00 %
02.03.2016 03:08 0,3 C 92 % 1013,5 hPa 0,0 l/m 5,1 km/h (1 Bft) S-SW 199 0 min 0,000 mm 0,0 UV-I 0 W/m -0,8 C 0,3 C 6,4 km/h (2 Bft) 100,00 %
02.03.2016 03:09 0,3 C 92 % 1013,5 hPa 0,0 l/m 6,6 km/h (2 Bft) S-SW 199 0 min 0,000 mm 0,0 UV-I 0 W/m -0,8 C 0,1 C 9,7 km/h (2 Bft) 96,15 %
02.03.2016 03:10 0,3 C 92 % 1013,5 hPa 0,0 l/m 4,4 km/h (1 Bft) S-SW 200 0 min 0,000 mm 0,0 UV-I 0 W/m -0,8 C 0,3 C 6,4 km/h (2 Bft) 96,30 %
02.03.2016 03:11 0,3 C 92 % 1013,5 hPa 0,0 l/m 3,8 km/h (1 Bft) S-SW 200 0 min 0,000 mm 0,0 UV-I 0 W/m -0,8 C 0,3 C 4,8 km/h (1 Bft) 100,00 %
02.03.2016 03:12 0,3 C 93 % 1013,4 hPa 0,0 l/m 4,1 km/h (1 Bft) SW 216 0 min 0,000 mm 0,0 UV-I 0 W/m -0,7 C 0,3 C 4,8 km/h (1 Bft) 100,00 %
02.03.2016 03:13 0,3 C 93 % 1013,4 hPa 0,0 l/m 4,9 km/h (1 Bft) S-SW 198 0 min 0,000 mm 0,0 UV-I 0 W/m -0,7 C 0,3 C 6,4 km/h (2 Bft) 96,55 %
02.03.2016 03:14 0,3 C 93 % 1013,4 hPa 0,0 l/m 5,3 km/h (1 Bft) S-SW 194 0 min 0,000 mm 0,0 UV-I 0 W/m -0,7 C 0,3 C 6,4 km/h (2 Bft) 95,83 %
02.03.2016 03:15 0,3 C 93 % 1013,4 hPa 0,0 l/m 4,8 km/h (1 Bft) S-SW 194 0 min 0,000 mm 0,0 UV-I 0 W/m -0,7 C 0,3 C 9,7 km/h (2 Bft) 100,00 %
02.03.2016 03:16 0,4 C 93 % 1013,4 hPa 0,0 l/m 5,9 km/h (2 Bft) SW 218 0 min 0,000 mm 0,0 UV-I 0 W/m -0,6 C 0,4 C 8,0 km/h (2 Bft) 96,55 %
02.03.2016 03:17 0,4 C 92 % 1013,4 hPa 0,0 l/m 6,6 km/h (2 Bft) W-SW 242 0 min 0,000 mm 0,0 UV-I 0 W/m -0,7 C 0,2 C 8,0 km/h (2 Bft) 100,00 %
02.03.2016 03:18 0,4 C 92 % 1013,4 hPa 0,0 l/m 7,2 km/h (2 Bft) SW 236 0 min 0,000 mm 0,0 UV-I 0 W/m -0,7 C -0,4 C 8,0 km/h (2 Bft) 96,15 %
02.03.2016 03:19 0,4 C 92 % 1013,4 hPa 0,0 l/m 7,8 km/h (2 Bft) W-SW 246 0 min 0,000 mm 0,0 UV-I 0 W/m -0,7 C -1,0 C 11,3 km/h (2 Bft) 95,65 %
02.03.2016 03:20 0,4 C 92 % 1013,4 hPa 0,0 l/m 7,2 km/h (2 Bft) SW 232 0 min 0,000 mm 0,0 UV-I 0 W/m -0,7 C -0,4 C 11,3 km/h (2 Bft) 95,83 %
02.03.2016 03:21 0,4 C 92 % 1013,4 hPa 0,0 l/m 7,4 km/h (2 Bft) SW 225 0 min 0,000 mm 0,0 UV-I 0 W/m -0,7 C -0,6 C 9,7 km/h (2 Bft) 95,83 %
02.03.2016 03:22 0,4 C 92 % 1013,4 hPa 0,0 l/m 7,6 km/h (2 Bft) S-SW 212 0 min 0,000 mm 0,0 UV-I 0 W/m -0,7 C -0,8 C 9,7 km/h (2 Bft) 100,00 %
02.03.2016 03:23 0,4 C 92 % 1013,4 hPa 0,0 l/m 6,7 km/h (2 Bft) SW 223 0 min 0,000 mm 0,0 UV-I 0 W/m -0,7 C 0,1 C 12,9 km/h (3 Bft) 95,83 %
02.03.2016 03:24 0,4 C 92 % 1013,4 hPa 0,0 l/m 6,9 km/h (2 Bft) SW 234 0 min 0,000 mm 0,0 UV-I 0 W/m -0,7 C -0,1 C 9,7 km/h (2 Bft) 100,00 %
02.03.2016 03:25 0,4 C 92 % 1013,3 hPa 0,0 l/m 7,5 km/h (2 Bft) S-SW 206 0 min 0,000 mm 0,0 UV-I 0 W/m -0,7 C -0,7 C 9,7 km/h (2 Bft) 96,30 %
02.03.2016 03:26 0,5 C 92 % 1013,4 hPa 0,0 l/m 7,2 km/h (2 Bft) SW 221 0 min 0,000 mm 0,0 UV-I 0 W/m -0,6 C -0,3 C 9,7 km/h (2 Bft) 100,00 %
02.03.2016 03:27 0,5 C 92 % 1013,4 hPa 0,0 l/m 8,3 km/h (2 Bft) SW 221 0 min 0,000 mm 0,0 UV-I 0 W/m -0,6 C -1,4 C 11,3 km/h (2 Bft) 93,33 %
02.03.2016 03:28 0,5 C 92 % 1013,4 hPa 0,0 l/m 7,8 km/h (2 Bft) SW 225 0 min 0,000 mm 0,0 UV-I 0 W/m -0,6 C -0,9 C 12,9 km/h (3 Bft) 100,00 %
02.03.2016 03:29 0,5 C 92 % 1013,4 hPa 0,0 l/m 7,2 km/h (2 Bft) W-SW 238 0 min 0,000 mm 0,0 UV-I 0 W/m -0,6 C -0,3 C 11,3 km/h (2 Bft) 96,55 %
02.03.2016 03:30 0,6 C 92 % 1013,4 hPa 0,0 l/m 8,4 km/h (2 Bft) SW 230 0 min 0,000 mm 0,0 UV-I 0 W/m -0,5 C -1,4 C 12,9 km/h (3 Bft) 96,55 %
02.03.2016 03:31 0,6 C 92 % 1013,4 hPa 0,0 l/m 7,0 km/h (2 Bft) SW 220 0 min 0,000 mm 0,0 UV-I 0 W/m -0,5 C -0,0 C 8,0 km/h (2 Bft) 100,00 %
02.03.2016 03:32 0,6 C 92 % 1013,4 hPa 0,0 l/m 8,9 km/h (2 Bft) S-SW 198 0 min 0,000 mm 0,0 UV-I 0 W/m -0,5 C -1,8 C 12,9 km/h (3 Bft) 96,15 %
02.03.2016 03:33 0,6 C 92 % 1013,3 hPa 0,0 l/m 7,6 km/h (2 Bft) SW 224 0 min 0,000 mm 0,0 UV-I 0 W/m -0,5 C -0,6 C 9,7 km/h (2 Bft) 100,00 %
02.03.2016 03:34 0,7 C 92 % 1013,3 hPa 0,0 l/m 8,0 km/h (2 Bft) SW 228 0 min 0,000 mm 0,0 UV-I 0 W/m -0,4 C -0,9 C 14,5 km/h (3 Bft) 95,65 %
02.03.2016 03:35 0,7 C 92 % 1013,4 hPa 0,0 l/m 7,8 km/h (2 Bft) SW 231 0 min 0,000 mm 0,0 UV-I 0 W/m -0,4 C -0,7 C 9,7 km/h (2 Bft) 100,00 %
02.03.2016 03:36 0,7 C 91 % 1013,3 hPa 0,0 l/m 8,9 km/h (2 Bft) SW 223 0 min 0,000 mm 0,0 UV-I 0 W/m -0,6 C -1,7 C 12,9 km/h (3 Bft) 92,59 %
02.03.2016 03:37 0,7 C 91 % 1013,4 hPa 0,0 l/m 8,9 km/h (2 Bft) W-SW 241 0 min 0,000 mm 0,0 UV-I 0 W/m -0,6 C -1,7 C 12,9 km/h (3 Bft) 100,00 %
02.03.2016 03:38 0,7 C 91 % 1013,3 hPa 0,0 l/m 8,2 km/h (2 Bft) SW 230 0 min 0,000 mm 0,0 UV-I 0 W/m -0,6 C -1,1 C 11,3 km/h (2 Bft) 96,15 %
02.03.2016 03:39 0,7 C 91 % 1013,3 hPa 0,0 l/m 9,2 km/h (2 Bft) SW 228 0 min 0,000 mm 0,0 UV-I 0 W/m -0,6 C -2,0 C 11,3 km/h (2 Bft) 100,00 %
02.03.2016 03:40 0,7 C 91 % 1013,3 hPa 0,0 l/m 7,4 km/h (2 Bft) W-SW 240 0 min 0,000 mm 0,0 UV-I 0 W/m -0,6 C -0,3 C 9,7 km/h (2 Bft) 96,30 %
02.03.2016 03:41 0,7 C 91 % 1013,3 hPa 0,0 l/m 8,2 km/h (2 Bft) SW 236 0 min 0,000 mm 0,0 UV-I 0 W/m -0,6 C -1,1 C 11,3 km/h (2 Bft) 92,31 %
02.03.2016 03:42 0,7 C 91 % 1013,2 hPa 0,0 l/m 6,2 km/h (2 Bft) SW 231 0 min 0,000 mm 0,0 UV-I 0 W/m -0,6 C 0,7 C 8,0 km/h (2 Bft) 96,30 %
02.03.2016 03:43 0,7 C 91 % 1013,2 hPa 0,0 l/m 4,4 km/h (1 Bft) SW 234 0 min 0,000 mm 0,0 UV-I 0 W/m -0,6 C 0,7 C 6,4 km/h (2 Bft) 92,86 %
02.03.2016 03:44 0,7 C 91 % 1013,2 hPa 0,0 l/m 4,5 km/h (1 Bft) W-SW 250 0 min 0,000 mm 0,0 UV-I 0 W/m -0,6 C 0,7 C 6,4 km/h (2 Bft) 100,00 %
02.03.2016 03:45 0,7 C 91 % 1013,2 hPa 0,0 l/m 4,6 km/h (1 Bft) W-SW 240 0 min 0,000 mm 0,0 UV-I 0 W/m -0,6 C 0,7 C 6,4 km/h (2 Bft) 96,55 %
02.03.2016 03:46 0,7 C 91 % 1013,2 hPa 0,0 l/m 4,6 km/h (1 Bft) W-SW 241 0 min 0,000 mm 0,0 UV-I 0 W/m -0,6 C 0,7 C 4,8 km/h (1 Bft) 95,83 %
02.03.2016 03:47 0,7 C 91 % 1013,1 hPa 0,0 l/m 5,8 km/h (2 Bft) W-SW 240 0 min 0,000 mm 0,0 UV-I 0 W/m -0,6 C 0,7 C 9,7 km/h (2 Bft) 100,00 %
02.03.2016 03:48 0,7 C 91 % 1013,1 hPa 0,0 l/m 5,0 km/h (1 Bft) SW 235 0 min 0,000 mm 0,0 UV-I 0 W/m -0,6 C 0,7 C 6,4 km/h (2 Bft) 100,00 %
02.03.2016 03:49 0,7 C 91 % 1013,1 hPa 0,0 l/m 5,6 km/h (1 Bft) W-SW 248 0 min 0,000 mm 0,0 UV-I 0 W/m -0,6 C 0,7 C 11,3 km/h (2 Bft) 100,00 %
02.03.2016 03:50 0,7 C 91 % 1013,1 hPa 0,0 l/m 5,8 km/h (2 Bft) W-SW 238 0 min 0,000 mm 0,0 UV-I 0 W/m -0,6 C 0,7 C 8,0 km/h (2 Bft) 100,00 %
02.03.2016 03:51 0,7 C 91 % 1013,1 hPa 0,0 l/m 5,2 km/h (1 Bft) SW 232 0 min 0,000 mm 0,0 UV-I 0 W/m -0,6 C 0,7 C 6,4 km/h (2 Bft) 100,00 %
02.03.2016 03:52 0,7 C 91 % 1013,1 hPa 0,0 l/m 6,5 km/h (2 Bft) SW 231 0 min 0,000 mm 0,0 UV-I 0 W/m -0,6 C 0,6 C 9,7 km/h (2 Bft) 100,00 %
02.03.2016 03:53 0,7 C 91 % 1013,1 hPa 0,0 l/m 5,5 km/h (1 Bft) W 268 0 min 0,000 mm 0,0 UV-I 0 W/m -0,6 C 0,7 C 8,0 km/h (2 Bft) 96,15 %
02.03.2016 03:54 0,7 C 92 % 1013,1 hPa 0,0 l/m 6,3 km/h (2 Bft) W 265 0 min 0,000 mm 0,0 UV-I 0 W/m -0,4 C 0,7 C 9,7 km/h (2 Bft) 96,30 %
02.03.2016 03:55 0,7 C 91 % 1013,1 hPa 0,0 l/m 5,9 km/h (2 Bft) W-SW 256 0 min 0,000 mm 0,0 UV-I 0 W/m -0,6 C 0,7 C 8,0 km/h (2 Bft) 100,00 %
02.03.2016 03:56 0,7 C 92 % 1013,1 hPa 0,0 l/m 7,2 km/h (2 Bft) W-SW 253 0 min 0,000 mm 0,0 UV-I 0 W/m -0,4 C -0,1 C 11,3 km/h (2 Bft) 100,00 %
02.03.2016 03:57 0,7 C 91 % 1013,1 hPa 0,0 l/m 6,1 km/h (2 Bft) W 261 0 min 0,000 mm 0,0 UV-I 0 W/m -0,6 C 0,7 C 9,7 km/h (2 Bft) 100,00 %
02.03.2016 03:58 0,8 C 91 % 1013,1 hPa 0,0 l/m 6,2 km/h (2 Bft) W 269 0 min 0,000 mm 0,0 UV-I 0 W/m -0,5 C 0,8 C 11,3 km/h (2 Bft) 100,00 %
02.03.2016 03:59 0,8 C 91 % 1013,1 hPa 0,0 l/m 6,0 km/h (2 Bft) W 263 0 min 0,000 mm 0,0 UV-I 0 W/m -0,5 C 0,8 C 9,7 km/h (2 Bft) 100,00 %
02.03.2016 04:00 0,8 C 91 % 1013,1 hPa 0,0 l/m 5,2 km/h (1 Bft) W-SW 250 0 min 0,000 mm 0,0 UV-I 0 W/m -0,5 C 0,8 C 6,4 km/h (2 Bft) 100,00 %
02.03.2016 04:03 0,8 C 91 % 1013,0 hPa 0,0 l/m 6,3 km/h (2 Bft) W-SW 254 0 min 0,000 mm 0,0 UV-I 0 W/m -0,5 C 0,8 C 11,3 km/h (2 Bft) 97,30 %
02.03.2016 04:04 0,8 C 91 % 1013,0 hPa 0,0 l/m 6,6 km/h (2 Bft) W 281 0 min 0,000 mm 0,0 UV-I 0 W/m -0,5 C 0,6 C 11,3 km/h (2 Bft) 100,00 %
02.03.2016 04:05 0,8 C 91 % 1013,1 hPa 0,0 l/m 6,4 km/h (2 Bft) W-SW 257 0 min 0,000 mm 0,0 UV-I 0 W/m -0,5 C 0,8 C 11,3 km/h (2 Bft) 96,30 %
02.03.2016 04:06 0,8 C 91 % 1013,1 hPa 0,0 l/m 8,6 km/h (2 Bft) W 265 0 min 0,000 mm 0,0 UV-I 0 W/m -0,5 C -1,4 C 12,9 km/h (3 Bft) 100,00 %
02.03.2016 04:07 0,8 C 91 % 1013,1 hPa 0,0 l/m 6,4 km/h (2 Bft) W 264 0 min 0,000 mm 0,0 UV-I 0 W/m -0,5 C 0,8 C 9,7 km/h (2 Bft) 100,00 %
02.03.2016 04:08 0,8 C 91 % 1013,1 hPa 0,0 l/m 4,9 km/h (1 Bft) W-SW 250 0 min 0,000 mm 0,0 UV-I 0 W/m -0,5 C 0,8 C 8,0 km/h (2 Bft) 100,00 %
02.03.2016 04:09 0,8 C 91 % 1013,1 hPa 0,0 l/m 4,1 km/h (1 Bft) W-SW 238 0 min 0,000 mm 0,0 UV-I 0 W/m -0,5 C 0,8 C 6,4 km/h (2 Bft) 95,83 %
02.03.2016 04:10 0,9 C 91 % 1013,1 hPa 0,0 l/m 4,3 km/h (1 Bft) W 259 0 min 0,000 mm 0,0 UV-I 0 W/m -0,4 C 0,9 C 4,8 km/h (1 Bft) 98,29 %
02.03.2016 04:11 0,9 C 91 % 1013,1 hPa 0,0 l/m 5,7 km/h (1 Bft) W 269 0 min 0,000 mm 0,0 UV-I 0 W/m -0,4 C 0,9 C 8,0 km/h (2 Bft) 100,00 %
02.03.2016 04:12 0,9 C 91 % 1013,1 hPa 0,0 l/m 4,4 km/h (1 Bft) W-SW 257 0 min 0,000 mm 0,0 UV-I 0 W/m -0,4 C 0,9 C 6,4 km/h (2 Bft) 100,00 %
02.03.2016 04:13 0,9 C 91 % 1013,1 hPa 0,0 l/m 4,2 km/h (1 Bft) SW 234 0 min 0,000 mm 0,0 UV-I 0 W/m -0,4 C 0,9 C 6,4 km/h (2 Bft) 100,00 %
02.03.2016 04:14 0,9 C 91 % 1013,1 hPa 0,0 l/m 3,3 km/h (1 Bft) SW 219 0 min 0,000 mm 0,0 UV-I 0 W/m -0,4 C 0,9 C 6,4 km/h (2 Bft) 100,00 %
02.03.2016 04:15 0,9 C 91 % 1013,1 hPa 0,0 l/m 4,3 km/h (1 Bft) SW 223 0 min 0,000 mm 0,0 UV-I 0 W/m -0,4 C 0,9 C 6,4 km/h (2 Bft) 100,00 %
02.03.2016 04:16 0,9 C 91 % 1013,1 hPa 0,0 l/m 3,5 km/h (1 Bft) S-SW 198 0 min 0,000 mm 0,0 UV-I 0 W/m -0,4 C 0,9 C 4,8 km/h (1 Bft) 100,00 %
02.03.2016 04:17 0,9 C 91 % 1013,1 hPa 0,0 l/m 4,3 km/h (1 Bft) S-SW 198 0 min 0,000 mm 0,0 UV-I 0 W/m -0,4 C 0,9 C 6,4 km/h (2 Bft) 100,00 %
02.03.2016 04:18 0,8 C 91 % 1013,1 hPa 0,0 l/m 4,7 km/h (1 Bft) SW 219 0 min 0,000 mm 0,0 UV-I 0 W/m -0,5 C 0,8 C 6,4 km/h (2 Bft) 100,00 %
02.03.2016 04:19 0,8 C 91 % 1013,1 hPa 0,0 l/m 4,0 km/h (1 Bft) S-SW 212 0 min 0,000 mm 0,0 UV-I 0 W/m -0,5 C 0,8 C 4,8 km/h (1 Bft) 100,00 %
02.03.2016 04:20 0,8 C 91 % 1013,1 hPa 0,0 l/m 3,6 km/h (1 Bft) SW 219 0 min 0,000 mm 0,0 UV-I 0 W/m -0,5 C 0,8 C 4,8 km/h (1 Bft) 95,83 %
02.03.2016 04:21 0,8 C 92 % 1013,1 hPa 0,0 l/m 4,0 km/h (1 Bft) S-SW 209 0 min 0,000 mm 0,0 UV-I 0 W/m -0,3 C 0,8 C 4,8 km/h (1 Bft) 100,00 %
02.03.2016 04:22 0,8 C 92 % 1013,0 hPa 0,0 l/m 3,2 km/h (1 Bft) S-SW 209 0 min 0,000 mm 0,0 UV-I 0 W/m -0,3 C 0,8 C 4,8 km/h (1 Bft) 100,00 %
02.03.2016 04:23 0,8 C 92 % 1013,0 hPa 0,0 l/m 2,1 km/h (1 Bft) S-SW 205 0 min 0,000 mm 0,0 UV-I 0 W/m -0,3 C 0,8 C 4,8 km/h (1 Bft) 100,00 %
02.03.2016 04:24 0,9 C 91 % 1013,0 hPa 0,0 l/m 2,8 km/h (1 Bft) S-SW 205 0 min 0,000 mm 0,0 UV-I 0 W/m -0,4 C 0,9 C 4,8 km/h (1 Bft) 100,00 %
02.03.2016 04:25 0,9 C 91 % 1013,0 hPa 0,0 l/m 3,1 km/h (1 Bft) S-SW 205 0 min 0,000 mm 0,0 UV-I 0 W/m -0,4 C 0,9 C 4,8 km/h (1 Bft) 100,00 %
02.03.2016 04:26 0,9 C 91 % 1013,0 hPa 0,0 l/m 4,1 km/h (1 Bft) S-SW 205 0 min 0,000 mm 0,0 UV-I 0 W/m -0,4 C 0,9 C 4,8 km/h (1 Bft) 100,00 %
02.03.2016 04:27 0,9 C 91 % 1013,0 hPa 0,0 l/m 4,0 km/h (1 Bft) SW 220 0 min 0,000 mm 0,0 UV-I 0 W/m -0,4 C 0,9 C 6,4 km/h (2 Bft) 100,00 %
02.03.2016 04:28 0,9 C 91 % 1013,0 hPa 0,0 l/m 2,7 km/h (1 Bft) SW 219 0 min 0,000 mm 0,0 UV-I 0 W/m -0,4 C 0,9 C 4,8 km/h (1 Bft) 100,00 %
02.03.2016 04:29 0,9 C 91 % 1013,0 hPa 0,0 l/m 2,5 km/h (1 Bft) SW 219 0 min 0,000 mm 0,0 UV-I 0 W/m -0,4 C 0,9 C 3,2 km/h (1 Bft) 100,00 %
02.03.2016 04:30 0,9 C 91 % 1013,0 hPa 0,0 l/m 2,6 km/h (1 Bft) SW 220 0 min 0,000 mm 0,0 UV-I 0 W/m -0,4 C 0,9 C 3,2 km/h (1 Bft) 100,00 %
02.03.2016 04:31 0,9 C 91 % 1013,0 hPa 0,0 l/m 2,2 km/h (1 Bft) SW 219 0 min 0,000 mm 0,0 UV-I 0 W/m -0,4 C 0,9 C 3,2 km/h (1 Bft) 100,00 %
02.03.2016 04:32 0,9 C 91 % 1013,0 hPa 0,0 l/m 1,7 km/h (1 Bft) SW 220 0 min 0,000 mm 0,0 UV-I 0 W/m -0,4 C 0,9 C 3,2 km/h (1 Bft) 100,00 %
02.03.2016 04:33 0,9 C 91 % 1013,0 hPa 0,0 l/m 1,6 km/h (1 Bft) SW 220 0 min 0,000 mm 0,0 UV-I 0 W/m -0,4 C 0,9 C 3,2 km/h (1 Bft) 100,00 %
02.03.2016 04:34 0,9 C 91 % 1013,0 hPa 0,0 l/m 1,9 km/h (1 Bft) SW 220 0 min 0,000 mm 0,0 UV-I 0 W/m -0,4 C 0,9 C 3,2 km/h (1 Bft) 100,00 %
02.03.2016 04:35 0,9 C 92 % 1013,0 hPa 0,0 l/m 2,0 km/h (1 Bft) SW 220 0 min 0,000 mm 0,0 UV-I 0 W/m -0,2 C 0,9 C 3,2 km/h (1 Bft) 100,00 %
02.03.2016 04:36 0,9 C 92 % 1013,0 hPa 0,0 l/m 2,2 km/h (1 Bft) SW 220 0 min 0,000 mm 0,0 UV-I 0 W/m -0,2 C 0,9 C 3,2 km/h (1 Bft) 100,00 %
02.03.2016 04:37 0,8 C 92 % 1013,0 hPa 0,0 l/m 1,5 km/h (1 Bft) SW 220 0 min 0,000 mm 0,0 UV-I 0 W/m -0,3 C 0,8 C 3,2 km/h (1 Bft) 100,00 %
02.03.2016 04:38 0,8 C 92 % 1012,9 hPa 0,0 l/m 1,4 km/h (1 Bft) SW 220 0 min 0,000 mm 0,0 UV-I 0 W/m -0,3 C 0,8 C 3,2 km/h (1 Bft) 100,00 %
02.03.2016 04:39 0,8 C 92 % 1013,0 hPa 0,0 l/m 1,0 km/h (0 Bft) SW 220 0 min 0,000 mm 0,0 UV-I 0 W/m -0,3 C 0,8 C 1,6 km/h (1 Bft) 100,00 %
02.03.2016 04:40 0,8 C 92 % 1013,0 hPa 0,0 l/m 1,8 km/h (1 Bft) SW 220 0 min 0,000 mm 0,0 UV-I 0 W/m -0,3 C 0,8 C 3,2 km/h (1 Bft) 100,00 %
02.03.2016 04:41 0,8 C 92 % 1013,0 hPa 0,0 l/m 2,8 km/h (1 Bft) SW 219 0 min 0,000 mm 0,0 UV-I 0 W/m -0,3 C 0,8 C 4,8 km/h (1 Bft) 100,00 %
02.03.2016 04:42 0,8 C 92 % 1013,0 hPa 0,0 l/m 3,1 km/h (1 Bft) SW 220 0 min 0,000 mm 0,0 UV-I 0 W/m -0,3 C 0,8 C 4,8 km/h (1 Bft) 96,15 %
02.03.2016 04:43 0,8 C 92 % 1013,0 hPa 0,0 l/m 1,9 km/h (1 Bft) SW 219 0 min 0,000 mm 0,0 UV-I 0 W/m -0,3 C 0,8 C 3,2 km/h (1 Bft) 100,00 %
02.03.2016 04:44 0,8 C 92 % 1013,0 hPa 0,0 l/m 1,8 km/h (1 Bft) SW 220 0 min 0,000 mm 0,0 UV-I 0 W/m -0,3 C 0,8 C 3,2 km/h (1 Bft) 100,00 %
02.03.2016 04:45 0,8 C 92 % 1013,0 hPa 0,0 l/m 1,5 km/h (1 Bft) SW 220 0 min 0,000 mm 0,0 UV-I 0 W/m -0,3 C 0,8 C 3,2 km/h (1 Bft) 95,83 %
02.03.2016 04:46 0,8 C 92 % 1013,0 hPa 0,0 l/m 1,0 km/h (0 Bft) SW 220 0 min 0,000 mm 0,0 UV-I 0 W/m -0,3 C 0,8 C 1,6 km/h (1 Bft) 100,00 %
02.03.2016 04:47 0,8 C 92 % 1013,0 hPa 0,0 l/m 3,0 km/h (1 Bft) SW 220 0 min 0,000 mm 0,0 UV-I 0 W/m -0,3 C 0,8 C 3,2 km/h (1 Bft) 100,00 %
02.03.2016 04:48 0,8 C 92 % 1013,0 hPa 0,0 l/m 2,7 km/h (1 Bft) SW 220 0 min 0,000 mm 0,0 UV-I 0 W/m -0,3 C 0,8 C 4,8 km/h (1 Bft) 100,00 %
02.03.2016 04:49 0,8 C 92 % 1013,0 hPa 0,0 l/m 2,5 km/h (1 Bft) SW 220 0 min 0,000 mm 0,0 UV-I 0 W/m -0,3 C 0,8 C 3,2 km/h (1 Bft) 100,00 %
02.03.2016 04:50 0,8 C 92 % 1013,0 hPa 0,0 l/m 2,7 km/h (1 Bft) SW 220 0 min 0,000 mm 0,0 UV-I 0 W/m -0,3 C 0,8 C 4,8 km/h (1 Bft) 100,00 %
02.03.2016 04:51 0,8 C 92 % 1013,0 hPa 0,0 l/m 1,8 km/h (1 Bft) SW 220 0 min 0,000 mm 0,0 UV-I 0 W/m -0,3 C 0,8 C 3,2 km/h (1 Bft) 100,00 %
02.03.2016 04:52 0,8 C 92 % 1013,0 hPa 0,0 l/m 1,3 km/h (1 Bft) SW 220 0 min 0,000 mm 0,0 UV-I 0 W/m -0,3 C 0,8 C 3,2 km/h (1 Bft) 100,00 %
02.03.2016 04:53 0,8 C 92 % 1013,0 hPa 0,0 l/m 2,6 km/h (1 Bft) SW 220 0 min 0,000 mm 0,0 UV-I 0 W/m -0,3 C 0,8 C 3,2 km/h (1 Bft) 100,00 %
02.03.2016 04:54 0,8 C 92 % 1013,0 hPa 0,0 l/m 1,5 km/h (1 Bft) SW 220 0 min 0,000 mm 0,0 UV-I 0 W/m -0,3 C 0,8 C 3,2 km/h (1 Bft) 100,00 %
02.03.2016 04:55 0,8 C 92 % 1013,0 hPa 0,0 l/m 2,3 km/h (1 Bft) SW 220 0 min 0,000 mm 0,0 UV-I 0 W/m -0,3 C 0,8 C 3,2 km/h (1 Bft) 100,00 %
02.03.2016 04:56 0,8 C 92 % 1013,0 hPa 0,0 l/m 2,7 km/h (1 Bft) SW 219 0 min 0,000 mm 0,0 UV-I 0 W/m -0,3 C 0,8 C 4,8 km/h (1 Bft) 96,30 %
02.03.2016 04:57 0,8 C 92 % 1013,0 hPa 0,0 l/m 1,7 km/h (1 Bft) SW 220 0 min 0,000 mm 0,0 UV-I 0 W/m -0,3 C 0,8 C 3,2 km/h (1 Bft) 100,00 %
02.03.2016 04:58 0,7 C 92 % 1013,0 hPa 0,0 l/m 1,4 km/h (1 Bft) SW 220 0 min 0,000 mm 0,0 UV-I 0 W/m -0,4 C 0,7 C 3,2 km/h (1 Bft) 100,00 %
02.03.2016 04:59 0,7 C 93 % 1012,9 hPa 0,0 l/m 2,7 km/h (1 Bft) SW 220 0 min 0,000 mm 0,0 UV-I 0 W/m -0,3 C 0,7 C 4,8 km/h (1 Bft) 100,00 %
02.03.2016 05:00 0,7 C 93 % 1012,9 hPa 0,0 l/m 2,1 km/h (1 Bft) SW 219 0 min 0,000 mm 0,0 UV-I 0 W/m -0,3 C 0,7 C 4,8 km/h (1 Bft) 100,00 %
02.03.2016 05:01 0,7 C 93 % 1012,9 hPa 0,0 l/m 3,4 km/h (1 Bft) SW 219 0 min 0,000 mm 0,0 UV-I 0 W/m -0,3 C 0,7 C 4,8 km/h (1 Bft) 100,00 %
02.03.2016 05:02 0,7 C 93 % 1012,9 hPa 0,0 l/m 3,4 km/h (1 Bft) SW 219 0 min 0,000 mm 0,0 UV-I 0 W/m -0,3 C 0,7 C 4,8 km/h (1 Bft) 100,00 %
02.03.2016 05:03 0,7 C 93 % 1012,9 hPa 0,0 l/m 2,9 km/h (1 Bft) SW 219 0 min 0,000 mm 0,0 UV-I 0 W/m -0,3 C 0,7 C 3,2 km/h (1 Bft) 100,00 %
02.03.2016 05:04 0,7 C 93 % 1012,9 hPa 0,0 l/m 2,2 km/h (1 Bft) SW 219 0 min 0,000 mm 0,0 UV-I 0 W/m -0,3 C 0,7 C 3,2 km/h (1 Bft) 100,00 %
02.03.2016 05:05 0,7 C 93 % 1012,9 hPa 0,0 l/m 2,8 km/h (1 Bft) S-SW 198 0 min 0,000 mm 0,0 UV-I 0 W/m -0,3 C 0,7 C 4,8 km/h (1 Bft) 100,00 %
02.03.2016 05:06 0,7 C 93 % 1012,9 hPa 0,0 l/m 2,6 km/h (1 Bft) S-SW 198 0 min 0,000 mm 0,0 UV-I 0 W/m -0,3 C 0,7 C 4,8 km/h (1 Bft) 100,00 %
02.03.2016 05:07 0,7 C 93 % 1012,9 hPa 0,0 l/m 2,1 km/h (1 Bft) S-SW 198 0 min 0,000 mm 0,0 UV-I 0 W/m -0,3 C 0,7 C 3,2 km/h (1 Bft) 100,00 %
02.03.2016 05:08 0,7 C 93 % 1012,9 hPa 0,0 l/m 0,7 km/h (0 Bft) S-SW 198 0 min 0,000 mm 0,0 UV-I 0 W/m -0,3 C 0,7 C 1,6 km/h (1 Bft) 100,00 %
02.03.2016 05:09 0,7 C 93 % 1012,9 hPa 0,0 l/m 1,4 km/h (1 Bft) S-SW 198 0 min 0,000 mm 0,0 UV-I 0 W/m -0,3 C 0,7 C 3,2 km/h (1 Bft) 100,00 %
02.03.2016 05:10 0,7 C 93 % 1012,9 hPa 0,0 l/m 1,4 km/h (1 Bft) S-SW 198 0 min 0,000 mm 0,0 UV-I 0 W/m -0,3 C 0,7 C 3,2 km/h (1 Bft) 100,00 %
02.03.2016 05:11 0,7 C 94 % 1012,8 hPa 0,0 l/m 1,9 km/h (1 Bft) S-SW 198 0 min 0,000 mm 0,0 UV-I 0 W/m -0,2 C 0,7 C 3,2 km/h (1 Bft) 100,00 %
02.03.2016 05:12 0,7 C 94 % 1012,8 hPa 0,0 l/m 1,5 km/h (1 Bft) S-SW 198 0 min 0,000 mm 0,0 UV-I 0 W/m -0,2 C 0,7 C 3,2 km/h (1 Bft) 100,00 %
02.03.2016 05:13 0,7 C 94 % 1012,8 hPa 0,0 l/m 1,3 km/h (1 Bft) S-SW 198 0 min 0,000 mm 0,0 UV-I 0 W/m -0,2 C 0,7 C 1,6 km/h (1 Bft) 100,00 %
02.03.2016 05:14 0,7 C 94 % 1012,8 hPa 0,0 l/m 1,2 km/h (1 Bft) S-SW 198 0 min 0,000 mm 0,0 UV-I 0 W/m -0,2 C 0,7 C 1,6 km/h (1 Bft) 93,33 %
02.03.2016 05:15 0,7 C 93 % 1012,8 hPa 0,0 l/m 1,3 km/h (1 Bft) S-SW 198 0 min 0,000 mm 0,0 UV-I 0 W/m -0,3 C 0,7 C 3,2 km/h (1 Bft) 100,00 %
02.03.2016 05:16 0,7 C 94 % 1012,8 hPa 0,0 l/m 0,3 km/h (0 Bft) S-SW 198 0 min 0,000 mm 0,0 UV-I 0 W/m -0,2 C 0,7 C 1,6 km/h (1 Bft) 100,00 %
02.03.2016 05:17 0,7 C 94 % 1012,7 hPa 0,0 l/m 0,9 km/h (0 Bft) S-SW 198 0 min 0,000 mm 0,0 UV-I 0 W/m -0,2 C 0,7 C 1,6 km/h (1 Bft) 100,00 %
02.03.2016 05:18 0,7 C 94 % 1012,7 hPa 0,0 l/m 0,6 km/h (0 Bft) S-SW 198 0 min 0,000 mm 0,0 UV-I 0 W/m -0,2 C 0,7 C 1,6 km/h (1 Bft) 95,65 %
02.03.2016 05:19 0,7 C 94 % 1012,7 hPa 0,0 l/m 1,0 km/h (0 Bft) S-SW 198 0 min 0,000 mm 0,0 UV-I 0 W/m -0,2 C 0,7 C 1,6 km/h (1 Bft) 100,00 %
02.03.2016 05:20 0,7 C 94 % 1012,7 hPa 0,0 l/m 1,9 km/h (1 Bft) S-SW 198 0 min 0,000 mm 0,0 UV-I 0 W/m -0,2 C 0,7 C 3,2 km/h (1 Bft) 95,65 %
02.03.2016 05:21 0,7 C 94 % 1012,7 hPa 0,0 l/m 0,5 km/h (0 Bft) S-SW 198 0 min 0,000 mm 0,0 UV-I 0 W/m -0,2 C 0,7 C 1,6 km/h (1 Bft) 100,00 %
02.03.2016 05:22 0,7 C 94 % 1012,7 hPa 0,0 l/m 0,1 km/h (0 Bft) S-SW 198 0 min 0,000 mm 0,0 UV-I 0 W/m -0,2 C 0,7 C 1,6 km/h (1 Bft) 96,15 %
02.03.2016 05:23 0,7 C 94 % 1012,7 hPa 0,0 l/m 0,5 km/h (0 Bft) S-SW 198 0 min 0,000 mm 0,0 UV-I 0 W/m -0,2 C 0,7 C 3,2 km/h (1 Bft) 95,83 %
02.03.2016 05:24 0,7 C 94 % 1012,7 hPa 0,0 l/m 1,6 km/h (1 Bft) S-SW 198 0 min 0,000 mm 0,0 UV-I 0 W/m -0,2 C 0,7 C 1,6 km/h (1 Bft) 100,00 %
02.03.2016 05:25 0,7 C 94 % 1012,7 hPa 0,0 l/m 1,3 km/h (1 Bft) S-SW 198 0 min 0,000 mm 0,0 UV-I 0 W/m -0,2 C 0,7 C 3,2 km/h (1 Bft) 96,30 %
02.03.2016 05:26 0,7 C 94 % 1012,6 hPa 0,0 l/m 0,6 km/h (0 Bft) S-SW 198 0 min 0,000 mm 0,0 UV-I 0 W/m -0,2 C 0,7 C 1,6 km/h (1 Bft) 96,55 %
02.03.2016 05:27 0,7 C 94 % 1012,7 hPa 0,0 l/m 0,8 km/h (0 Bft) S-SW 198 0 min 0,000 mm 0,0 UV-I 0 W/m -0,2 C 0,7 C 1,6 km/h (1 Bft) 91,67 %
02.03.2016 05:28 0,7 C 94 % 1012,7 hPa 0,0 l/m 1,7 km/h (1 Bft) S-SW 198 0 min 0,000 mm 0,0 UV-I 0 W/m -0,2 C 0,7 C 3,2 km/h (1 Bft) 93,33 %
02.03.2016 05:29 0,7 C 94 % 1012,7 hPa 0,0 l/m 1,8 km/h (1 Bft) S-SW 198 0 min 0,000 mm 0,0 UV-I 0 W/m -0,2 C 0,7 C 3,2 km/h (1 Bft) 97,56 %
02.03.2016 05:30 0,7 C 94 % 1012,7 hPa 0,0 l/m 1,5 km/h (1 Bft) S-SW 198 0 min 0,000 mm 0,0 UV-I 0 W/m -0,2 C 0,7 C 3,2 km/h (1 Bft) 95,65 %
02.03.2016 05:31 0,7 C 94 % 1012,6 hPa 0,0 l/m 1,1 km/h (1 Bft) S-SW 198 0 min 0,000 mm 0,0 UV-I 0 W/m -0,2 C 0,7 C 3,2 km/h (1 Bft) 100,00 %
02.03.2016 05:32 0,7 C 94 % 1012,6 hPa 0,0 l/m 0,9 km/h (0 Bft) S-SW 198 0 min 0,000 mm 0,0 UV-I 0 W/m -0,2 C 0,7 C 3,2 km/h (1 Bft) 95,65 %
02.03.2016 05:33 0,7 C 94 % 1012,6 hPa 0,0 l/m 2,7 km/h (1 Bft) S-SW 198 0 min 0,000 mm 0,0 UV-I 0 W/m -0,2 C 0,7 C 3,2 km/h (1 Bft) 100,00 %
02.03.2016 05:34 0,7 C 94 % 1012,6 hPa 0,0 l/m 0,7 km/h (0 Bft) S-SW 198 0 min 0,000 mm 0,0 UV-I 0 W/m -0,2 C 0,7 C 1,6 km/h (1 Bft) 95,65 %
02.03.2016 05:35 0,6 C 94 % 1012,5 hPa 0,0 l/m 0,1 km/h (0 Bft) S-SW 198 0 min 0,000 mm 0,0 UV-I 0 W/m -0,3 C 0,6 C 1,6 km/h (1 Bft) 95,83 %
02.03.2016 05:36 0,6 C 94 % 1012,5 hPa 0,0 l/m 1,3 km/h (1 Bft) S-SW 198 0 min 0,000 mm 0,0 UV-I 0 W/m -0,3 C 0,6 C 1,6 km/h (1 Bft) 96,15 %
02.03.2016 05:37 0,6 C 94 % 1012,5 hPa 0,0 l/m 0,6 km/h (0 Bft) S-SW 198 0 min 0,000 mm 0,0 UV-I 0 W/m -0,3 C 0,6 C 1,6 km/h (1 Bft) 100,00 %
02.03.2016 05:38 0,6 C 94 % 1012,5 hPa 0,0 l/m 0,2 km/h (0 Bft) S-SW 198 0 min 0,000 mm 0,0 UV-I 0 W/m -0,3 C 0,6 C 1,6 km/h (1 Bft) 95,83 %
02.03.2016 05:39 0,6 C 94 % 1012,5 hPa 0,0 l/m 1,4 km/h (1 Bft) S-SW 198 0 min 0,000 mm 0,0 UV-I 0 W/m -0,3 C 0,6 C 3,2 km/h (1 Bft) 100,00 %
02.03.2016 05:40 0,6 C 94 % 1012,5 hPa 0,0 l/m 0,5 km/h (0 Bft) S-SW 198 0 min 0,000 mm 0,0 UV-I 0 W/m -0,3 C 0,6 C 1,6 km/h (1 Bft) 95,83 %
02.03.2016 05:41 0,6 C 95 % 1012,5 hPa 0,0 l/m 3,0 km/h (1 Bft) S-SW 198 0 min 0,000 mm 0,0 UV-I 0 W/m -0,1 C 0,6 C 4,8 km/h (1 Bft) 95,65 %
02.03.2016 05:42 0,6 C 95 % 1012,5 hPa 0,0 l/m 2,1 km/h (1 Bft) S-SW 198 0 min 0,000 mm 0,0 UV-I 0 W/m -0,1 C 0,6 C 3,2 km/h (1 Bft) 100,00 %
02.03.2016 05:43 0,6 C 95 % 1012,5 hPa 0,0 l/m 1,5 km/h (1 Bft) S-SW 197 0 min 0,000 mm 0,0 UV-I 0 W/m -0,1 C 0,6 C 3,2 km/h (1 Bft) 90,91 %
02.03.2016 05:44 0,6 C 95 % 1012,5 hPa 0,0 l/m 1,7 km/h (1 Bft) S-SW 196 0 min 0,000 mm 0,0 UV-I 0 W/m -0,1 C 0,6 C 3,2 km/h (1 Bft) 92,59 %
02.03.2016 05:45 0,6 C 95 % 1012,5 hPa 0,0 l/m 2,6 km/h (1 Bft) S-SW 196 0 min 0,000 mm 0,0 UV-I 0 W/m -0,1 C 0,6 C 4,8 km/h (1 Bft) 95,65 %
02.03.2016 05:46 0,6 C 95 % 1012,5 hPa 0,0 l/m 3,0 km/h (1 Bft) S-SW 196 0 min 0,000 mm 0,0 UV-I 0 W/m -0,1 C 0,6 C 4,8 km/h (1 Bft) 96,30 %
02.03.2016 05:47 0,6 C 95 % 1012,5 hPa 0,0 l/m 2,6 km/h (1 Bft) S-SW 196 0 min 0,000 mm 0,0 UV-I 0 W/m -0,1 C 0,6 C 4,8 km/h (1 Bft) 95,65 %
02.03.2016 05:48 0,6 C 95 % 1012,5 hPa 0,0 l/m 2,5 km/h (1 Bft) S-SW 196 0 min 0,000 mm 0,0 UV-I 0 W/m -0,1 C 0,6 C 4,8 km/h (1 Bft) 96,30 %
02.03.2016 05:49 0,6 C 95 % 1012,5 hPa 0,0 l/m 1,6 km/h (1 Bft) S-SW 196 0 min 0,000 mm 0,0 UV-I 0 W/m -0,1 C 0,6 C 3,2 km/h (1 Bft) 100,00 %
02.03.2016 05:50 0,6 C 95 % 1012,5 hPa 0,0 l/m 2,8 km/h (1 Bft) S-SW 196 0 min 0,000 mm 0,0 UV-I 0 W/m -0,1 C 0,6 C 3,2 km/h (1 Bft) 93,33 %
02.03.2016 05:51 0,6 C 95 % 1012,5 hPa 0,0 l/m 3,8 km/h (1 Bft) S-SO 167 0 min 0,000 mm 0,0 UV-I 0 W/m -0,1 C 0,6 C 6,4 km/h (2 Bft) 100,00 %
02.03.2016 05:52 0,6 C 95 % 1012,4 hPa 0,0 l/m 3,1 km/h (1 Bft) SO 142 0 min 0,000 mm 0,0 UV-I 0 W/m -0,1 C 0,6 C 4,8 km/h (1 Bft) 91,30 %
02.03.2016 05:53 0,6 C 95 % 1012,3 hPa 0,0 l/m 4,0 km/h (1 Bft) S 171 0 min 0,000 mm 0,0 UV-I 0 W/m -0,1 C 0,6 C 6,4 km/h (2 Bft) 100,00 %
02.03.2016 05:54 0,6 C 95 % 1012,3 hPa 0,0 l/m 2,8 km/h (1 Bft) S-SO 161 0 min 0,000 mm 0,0 UV-I 0 W/m -0,1 C 0,6 C 4,8 km/h (1 Bft) 100,00 %
02.03.2016 05:55 0,6 C 95 % 1012,5 hPa 0,0 l/m 2,6 km/h (1 Bft) W 267 0 min 0,000 mm 0,0 UV-I 0 W/m -0,1 C 0,6 C 6,4 km/h (2 Bft) 100,00 %
02.03.2016 05:56 0,6 C 95 % 1012,6 hPa 0,0 l/m 6,8 km/h (2 Bft) W-NW 290 0 min 0,000 mm 0,0 UV-I 0 W/m -0,1 C 0,2 C 11,3 km/h (2 Bft) 100,00 %
02.03.2016 05:57 0,6 C 95 % 1012,5 hPa 0,0 l/m 2,4 km/h (1 Bft) W-NW 289 0 min 0,000 mm 0,0 UV-I 0 W/m -0,1 C 0,6 C 4,8 km/h (1 Bft) 96,67 %
02.03.2016 05:58 0,6 C 95 % 1012,5 hPa 0,0 l/m 1,5 km/h (1 Bft) SO 143 0 min 0,000 mm 0,0 UV-I 0 W/m -0,1 C 0,6 C 4,8 km/h (1 Bft) 100,00 %
02.03.2016 05:59 0,6 C 95 % 1012,2 hPa 0,0 l/m 2,7 km/h (1 Bft) S-SO 159 0 min 0,000 mm 0,0 UV-I 0 W/m -0,1 C 0,6 C 3,2 km/h (1 Bft) 93,33 %
02.03.2016 06:00 0,5 C 95 % 1012,3 hPa 0,0 l/m 2,7 km/h (1 Bft) S 179 0 min 0,000 mm 0,0 UV-I 0 W/m -0,2 C 0,5 C 4,8 km/h (1 Bft) 100,00 %
02.03.2016 06:01 0,5 C 95 % 1012,3 hPa 0,0 l/m 2,3 km/h (1 Bft) S-SO 157 0 min 0,000 mm 0,0 UV-I 0 W/m -0,2 C 0,5 C 4,8 km/h (1 Bft) 100,00 %
02.03.2016 06:02 0,5 C 95 % 1012,2 hPa 0,0 l/m 2,7 km/h (1 Bft) S 172 0 min 0,000 mm 0,0 UV-I 0 W/m -0,2 C 0,5 C 4,8 km/h (1 Bft) 100,00 %
02.03.2016 06:03 0,5 C 95 % 1012,3 hPa 0,0 l/m 3,0 km/h (1 Bft) W-SW 246 0 min 0,000 mm 0,0 UV-I 0 W/m -0,2 C 0,5 C 4,8 km/h (1 Bft) 96,30 %
02.03.2016 06:04 0,6 C 95 % 1012,2 hPa 0,0 l/m 1,0 km/h (0 Bft) S-SO 165 0 min 0,000 mm 0,0 UV-I 0 W/m -0,1 C 0,6 C 1,6 km/h (1 Bft) 100,00 %
02.03.2016 06:05 0,6 C 95 % 1012,3 hPa 0,0 l/m 3,1 km/h (1 Bft) SO 136 0 min 0,000 mm 0,0 UV-I 0 W/m -0,1 C 0,6 C 4,8 km/h (1 Bft) 100,00 %
02.03.2016 06:06 0,6 C 95 % 1012,2 hPa 0,0 l/m 1,8 km/h (1 Bft) SW 216 0 min 0,000 mm 0,0 UV-I 0 W/m -0,1 C 0,6 C 3,2 km/h (1 Bft) 92,31 %
02.03.2016 06:07 0,6 C 95 % 1012,2 hPa 0,0 l/m 1,4 km/h (1 Bft) SW 216 0 min 0,000 mm 0,0 UV-I 0 W/m -0,1 C 0,6 C 3,2 km/h (1 Bft) 100,00 %
02.03.2016 06:08 0,6 C 95 % 1012,2 hPa 0,0 l/m 3,3 km/h (1 Bft) SW 217 0 min 0,000 mm 0,0 UV-I 0 W/m -0,1 C 0,6 C 4,8 km/h (1 Bft) 96,15 %
02.03.2016 06:09 0,6 C 95 % 1012,2 hPa 0,0 l/m 2,4 km/h (1 Bft) O 98 0 min 0,000 mm 0,0 UV-I 0 W/m -0,1 C 0,6 C 9,7 km/h (2 Bft) 100,00 %
02.03.2016 06:10 0,6 C 95 % 1012,1 hPa 0,0 l/m 5,9 km/h (2 Bft) S-SO 149 0 min 0,000 mm 0,0 UV-I 0 W/m -0,1 C 0,6 C 11,3 km/h (2 Bft) 100,00 %
02.03.2016 06:11 0,6 C 95 % 1012,1 hPa 0,0 l/m 4,2 km/h (1 Bft) S-SO 165 0 min 0,000 mm 0,0 UV-I 0 W/m -0,1 C 0,6 C 6,4 km/h (2 Bft) 100,00 %
02.03.2016 06:12 0,6 C 95 % 1012,0 hPa 0,0 l/m 5,0 km/h (1 Bft) S 182 0 min 0,000 mm 0,0 UV-I 0 W/m -0,1 C 0,6 C 8,0 km/h (2 Bft) 100,00 %
02.03.2016 06:13 0,6 C 95 % 1012,0 hPa 0,0 l/m 3,2 km/h (1 Bft) S-SO 149 0 min 0,000 mm 0,0 UV-I 0 W/m -0,1 C 0,6 C 6,4 km/h (2 Bft) 100,00 %
02.03.2016 06:14 0,6 C 95 % 1011,9 hPa 0,0 l/m 3,8 km/h (1 Bft) S-SO 152 0 min 0,000 mm 0,0 UV-I 0 W/m -0,1 C 0,6 C 6,4 km/h (2 Bft) 100,00 %
02.03.2016 06:15 0,6 C 95 % 1011,9 hPa 0,0 l/m 3,9 km/h (1 Bft) W 259 0 min 0,000 mm 0,0 UV-I 0 W/m -0,1 C 0,6 C 6,4 km/h (2 Bft) 100,00 %
02.03.2016 06:16 0,6 C 95 % 1012,0 hPa 0,0 l/m 5,7 km/h (1 Bft) SW 217 0 min 0,000 mm 0,0 UV-I 0 W/m -0,1 C 0,6 C 8,0 km/h (2 Bft) 100,00 %
02.03.2016 06:17 0,6 C 95 % 1011,9 hPa 0,0 l/m 4,4 km/h (1 Bft) SW 229 0 min 0,000 mm 0,0 UV-I 0 W/m -0,1 C 0,6 C 6,4 km/h (2 Bft) 100,00 %
02.03.2016 06:18 0,6 C 95 % 1011,9 hPa 0,0 l/m 3,5 km/h (1 Bft) S 182 0 min 0,000 mm 0,0 UV-I 0 W/m -0,1 C 0,6 C 4,8 km/h (1 Bft) 100,00 %
02.03.2016 06:19 0,7 C 95 % 1011,9 hPa 0,0 l/m 5,1 km/h (1 Bft) S-SO 152 0 min 0,000 mm 0,0 UV-I 0 W/m -0,0 C 0,7 C 6,4 km/h (2 Bft) 100,00 %
02.03.2016 06:20 0,7 C 95 % 1011,9 hPa 0,0 l/m 5,0 km/h (1 Bft) S-SO 162 0 min 0,000 mm 0,0 UV-I 0 W/m -0,0 C 0,7 C 8,0 km/h (2 Bft) 100,00 %
02.03.2016 06:21 0,7 C 95 % 1011,8 hPa 0,0 l/m 3,3 km/h (1 Bft) S-SO 154 0 min 0,000 mm 0,0 UV-I 0 W/m -0,0 C 0,7 C 9,7 km/h (2 Bft) 95,65 %
02.03.2016 06:22 0,7 C 95 % 1011,8 hPa 0,0 l/m 4,2 km/h (1 Bft) S-SW 211 0 min 0,000 mm 0,0 UV-I 0 W/m -0,0 C 0,7 C 6,4 km/h (2 Bft) 100,00 %
02.03.2016 06:23 0,7 C 95 % 1011,9 hPa 0,0 l/m 5,7 km/h (1 Bft) NW 309 0 min 0,000 mm 0,0 UV-I 0 W/m -0,0 C 0,7 C 9,7 km/h (2 Bft) 100,00 %
02.03.2016 06:24 0,7 C 95 % 1011,9 hPa 0,0 l/m 3,4 km/h (1 Bft) W 261 0 min 0,000 mm 0,0 UV-I 0 W/m -0,0 C 0,7 C 4,8 km/h (1 Bft) 100,00 %
02.03.2016 06:25 0,7 C 95 % 1011,8 hPa 0,0 l/m 3,8 km/h (1 Bft) SW 228 0 min 0,000 mm 0,0 UV-I 0 W/m -0,0 C 0,7 C 4,8 km/h (1 Bft) 100,00 %
02.03.2016 06:26 0,7 C 95 % 1011,8 hPa 0,0 l/m 5,8 km/h (2 Bft) S-SO 161 0 min 0,000 mm 0,0 UV-I 0 W/m -0,0 C 0,7 C 8,0 km/h (2 Bft) 100,00 %
02.03.2016 06:27 0,7 C 95 % 1011,8 hPa 0,0 l/m 4,2 km/h (1 Bft) SO 143 0 min 0,000 mm 0,0 UV-I 0 W/m -0,0 C 0,7 C 9,7 km/h (2 Bft) 100,00 %
02.03.2016 06:28 0,7 C 95 % 1011,6 hPa 0,0 l/m 6,2 km/h (2 Bft) S 184 0 min 0,000 mm 0,0 UV-I 0 W/m -0,0 C 0,7 C 11,3 km/h (2 Bft) 100,00 %
02.03.2016 06:29 0,7 C 95 % 1011,7 hPa 0,0 l/m 7,9 km/h (2 Bft) S-SW 194 0 min 0,000 mm 0,0 UV-I 0 W/m -0,0 C -0,8 C 11,3 km/h (2 Bft) 100,00 %
02.03.2016 06:30 0,7 C 95 % 1011,7 hPa 0,0 l/m 4,6 km/h (1 Bft) SW 219 0 min 0,000 mm 0,0 UV-I 0 W/m -0,0 C 0,7 C 6,4 km/h (2 Bft) 100,00 %
02.03.2016 06:31 0,7 C 95 % 1011,7 hPa 0,0 l/m 3,2 km/h (1 Bft) S-SW 211 0 min 0,000 mm 0,0 UV-I 0 W/m -0,0 C 0,7 C 4,8 km/h (1 Bft) 95,65 %
02.03.2016 06:32 0,7 C 95 % 1011,6 hPa 0,0 l/m 2,6 km/h (1 Bft) S 191 0 min 0,000 mm 0,0 UV-I 0 W/m -0,0 C 0,7 C 4,8 km/h (1 Bft) 95,83 %
02.03.2016 06:33 0,7 C 95 % 1011,6 hPa 0,0 l/m 2,6 km/h (1 Bft) S 191 0 min 0,000 mm 0,0 UV-I 0 W/m -0,0 C 0,7 C 3,2 km/h (1 Bft) 95,65 %
02.03.2016 06:34 0,7 C 95 % 1011,6 hPa 0,0 l/m 3,4 km/h (1 Bft) S 182 0 min 0,000 mm 0,0 UV-I 0 W/m -0,0 C 0,7 C 4,8 km/h (1 Bft) 100,00 %
02.03.2016 06:35 0,7 C 95 % 1011,6 hPa 0,0 l/m 3,8 km/h (1 Bft) S 181 0 min 0,000 mm 0,0 UV-I 0 W/m -0,0 C 0,7 C 4,8 km/h (1 Bft) 95,83 %
02.03.2016 06:36 0,7 C 95 % 1011,6 hPa 0,0 l/m 4,2 km/h (1 Bft) S 181 0 min 0,000 mm 0,0 UV-I 0 W/m -0,0 C 0,7 C 4,8 km/h (1 Bft) 100,00 %
02.03.2016 06:37 0,7 C 95 % 1011,6 hPa 0,0 l/m 2,7 km/h (1 Bft) S 182 0 min 0,000 mm 0,0 UV-I 0 W/m -0,0 C 0,7 C 3,2 km/h (1 Bft) 100,00 %
02.03.2016 06:38 0,7 C 95 % 1011,6 hPa 0,0 l/m 4,4 km/h (1 Bft) W-SW 248 0 min 0,000 mm 0,0 UV-I 0 W/m -0,0 C 0,7 C 6,4 km/h (2 Bft) 100,00 %
02.03.2016 06:39 0,7 C 95 % 1011,6 hPa 0,0 l/m 3,9 km/h (1 Bft) W 278 0 min 0,000 mm 0,0 UV-I 0 W/m -0,0 C 0,7 C 4,8 km/h (1 Bft) 100,00 %
02.03.2016 06:40 0,7 C 95 % 1011,6 hPa 0,0 l/m 2,1 km/h (1 Bft) W 278 0 min 0,000 mm 0,0 UV-I 0 W/m -0,0 C 0,7 C 4,8 km/h (1 Bft) 96,15 %
02.03.2016 06:41 0,7 C 95 % 1011,6 hPa 0,0 l/m 1,2 km/h (1 Bft) W 278 0 min 0,000 mm 0,0 UV-I 0 W/m -0,0 C 0,7 C 1,6 km/h (1 Bft) 100,00 %
02.03.2016 06:42 0,7 C 96 % 1011,6 hPa 0,0 l/m 0,9 km/h (0 Bft) W 263 0 min 0,000 mm 0,0 UV-I 0 W/m 0,1 C 0,7 C 3,2 km/h (1 Bft) 100,00 %
02.03.2016 06:43 0,7 C 96 % 1011,5 hPa 0,0 l/m 1,7 km/h (1 Bft) W-SW 257 0 min 0,000 mm 0,0 UV-I 0 W/m 0,1 C 0,7 C 3,2 km/h (1 Bft) 100,00 %
02.03.2016 06:44 0,7 C 96 % 1011,5 hPa 0,0 l/m 2,4 km/h (1 Bft) W-SW 257 0 min 0,000 mm 0,0 UV-I 0 W/m 0,1 C 0,7 C 3,2 km/h (1 Bft) 100,00 %
02.03.2016 06:45 0,7 C 96 % 1011,5 hPa 0,0 l/m 2,4 km/h (1 Bft) W-SW 257 0 min 0,000 mm 0,0 UV-I 0 W/m 0,1 C 0,7 C 4,8 km/h (1 Bft) 100,00 %
02.03.2016 06:46 0,7 C 96 % 1011,5 hPa 0,0 l/m 2,2 km/h (1 Bft) W-SW 257 0 min 0,000 mm 0,0 UV-I 0 W/m 0,1 C 0,7 C 3,2 km/h (1 Bft) 100,00 %
02.03.2016 06:47 0,7 C 96 % 1011,5 hPa 0,0 l/m 1,5 km/h (1 Bft) W-SW 257 0 min 0,000 mm 0,0 UV-I 0 W/m 0,1 C 0,7 C 3,2 km/h (1 Bft) 100,00 %
02.03.2016 06:48 0,7 C 96 % 1011,5 hPa 0,0 l/m 0,9 km/h (0 Bft) W-SW 257 0 min 0,000 mm 0,0 UV-I 0 W/m 0,1 C 0,7 C 3,2 km/h (1 Bft) 100,00 %
02.03.2016 06:49 0,7 C 96 % 1011,5 hPa 0,0 l/m 0,2 km/h (0 Bft) W-SW 257 0 min 0,000 mm 0,0 UV-I 0 W/m 0,1 C 0,7 C 1,6 km/h (1 Bft) 100,00 %
02.03.2016 06:50 0,7 C 96 % 1011,5 hPa 0,0 l/m 0,1 km/h (0 Bft) W-SW 257 0 min 0,000 mm 0,0 UV-I 0 W/m 0,1 C 0,7 C 1,6 km/h (1 Bft) 100,00 %
02.03.2016 06:51 0,7 C 96 % 1011,5 hPa 0,0 l/m 0,0 km/h (0 Bft) W-SW 257 0 min 0,000 mm 0,0 UV-I 0 W/m 0,1 C 0,7 C 0,0 km/h (0 Bft) 100,00 %
02.03.2016 06:52 0,7 C 96 % 1011,5 hPa 0,0 l/m 0,0 km/h (0 Bft) W-SW 257 0 min 0,000 mm 0,0 UV-I 0 W/m 0,1 C 0,7 C 0,0 km/h (0 Bft) 100,00 %
02.03.2016 06:53 0,7 C 96 % 1011,5 hPa 0,0 l/m 0,0 km/h (0 Bft) W-SW 257 0 min 0,000 mm 0,0 UV-I 0 W/m 0,1 C 0,7 C 0,0 km/h (0 Bft) 100,00 %
02.03.2016 06:54 0,7 C 96 % 1011,5 hPa 0,0 l/m 0,0 km/h (0 Bft) W-SW 257 0 min 0,000 mm 0,0 UV-I 0 W/m 0,1 C 0,7 C 0,0 km/h (0 Bft) 100,00 %
02.03.2016 06:55 0,7 C 96 % 1011,5 hPa 0,0 l/m 0,0 km/h (0 Bft) W-SW 257 0 min 0,000 mm 0,0 UV-I 0 W/m 0,1 C 0,7 C 0,0 km/h (0 Bft) 100,00 %
02.03.2016 06:56 0,7 C 96 % 1011,5 hPa 0,0 l/m 0,0 km/h (0 Bft) W-SW 257 0 min 0,000 mm 0,0 UV-I 0 W/m 0,1 C 0,7 C 0,0 km/h (0 Bft) 100,00 %
02.03.2016 06:57 0,7 C 96 % 1011,5 hPa 0,0 l/m 0,7 km/h (0 Bft) W-SW 257 0 min 0,000 mm 0,0 UV-I 4 W/m 0,1 C 0,7 C 1,6 km/h (1 Bft) 100,00 %
02.03.2016 06:58 0,7 C 96 % 1011,4 hPa 0,0 l/m 1,0 km/h (0 Bft) W-SW 257 0 min 0,000 mm 0,0 UV-I 5 W/m 0,1 C 0,7 C 1,6 km/h (1 Bft) 100,00 %
02.03.2016 06:59 0,7 C 96 % 1011,4 hPa 0,0 l/m 1,1 km/h (1 Bft) W-SW 257 0 min 0,000 mm 0,0 UV-I 5 W/m 0,1 C 0,7 C 1,6 km/h (1 Bft) 100,00 %
02.03.2016 07:00 0,7 C 96 % 1011,4 hPa 0,0 l/m 0,8 km/h (0 Bft) W-SW 257 0 min 0,000 mm 0,0 UV-I 5 W/m 0,1 C 0,7 C 1,6 km/h (1 Bft) 100,00 %
02.03.2016 07:01 0,7 C 96 % 1011,4 hPa 0,0 l/m 2,1 km/h (1 Bft) W-SW 257 0 min 0,000 mm 0,0 UV-I 5 W/m 0,1 C 0,7 C 3,2 km/h (1 Bft) 96,15 %
02.03.2016 07:02 0,7 C 96 % 1011,4 hPa 0,0 l/m 2,4 km/h (1 Bft) W-SW 257 0 min 0,000 mm 0,0 UV-I 5 W/m 0,1 C 0,7 C 3,2 km/h (1 Bft) 100,00 %
02.03.2016 07:03 0,7 C 96 % 1011,4 hPa 0,0 l/m 1,9 km/h (1 Bft) W-SW 257 0 min 0,000 mm 0,0 UV-I 5 W/m 0,1 C 0,7 C 3,2 km/h (1 Bft) 100,00 %
02.03.2016 07:04 0,7 C 96 % 1011,4 hPa 0,0 l/m 2,1 km/h (1 Bft) W-SW 257 0 min 0,000 mm 0,0 UV-I 5 W/m 0,1 C 0,7 C 3,2 km/h (1 Bft) 100,00 %
02.03.2016 07:05 0,7 C 96 % 1011,4 hPa 0,0 l/m 2,7 km/h (1 Bft) N-NW 347 0 min 0,000 mm 0,0 UV-I 6 W/m 0,1 C 0,7 C 4,8 km/h (1 Bft) 100,00 %
02.03.2016 07:06 0,7 C 96 % 1011,3 hPa 0,0 l/m 3,5 km/h (1 Bft) N 11 0 min 0,000 mm 0,0 UV-I 7 W/m 0,1 C 0,7 C 4,8 km/h (1 Bft) 100,00 %
02.03.2016 07:07 0,6 C 96 % 1011,4 hPa 0,0 l/m 3,9 km/h (1 Bft) N-NO 15 0 min 0,000 mm 0,0 UV-I 7 W/m 0,0 C 0,6 C 4,8 km/h (1 Bft) 100,00 %
02.03.2016 07:08 0,6 C 96 % 1011,4 hPa 0,0 l/m 4,5 km/h (1 Bft) N-NO 31 0 min 0,000 mm 0,0 UV-I 6 W/m 0,0 C 0,6 C 4,8 km/h (1 Bft) 100,00 %
02.03.2016 07:09 0,6 C 96 % 1011,3 hPa 0,0 l/m 4,3 km/h (1 Bft) NO 35 0 min 0,000 mm 0,0 UV-I 5 W/m 0,0 C 0,6 C 6,4 km/h (2 Bft) 100,00 %
02.03.2016 07:10 0,6 C 96 % 1011,3 hPa 0,0 l/m 3,2 km/h (1 Bft) NO 35 0 min 0,000 mm 0,0 UV-I 5 W/m 0,0 C 0,6 C 4,8 km/h (1 Bft) 100,00 %
02.03.2016 07:11 0,6 C 96 % 1011,4 hPa 0,0 l/m 3,0 km/h (1 Bft) NO 35 0 min 0,000 mm 0,0 UV-I 5 W/m 0,0 C 0,6 C 4,8 km/h (1 Bft) 100,00 %
02.03.2016 07:12 0,6 C 96 % 1011,4 hPa 0,0 l/m 4,2 km/h (1 Bft) O-NO 71 0 min 0,000 mm 0,0 UV-I 5 W/m 0,0 C 0,6 C 6,4 km/h (2 Bft) 100,00 %
02.03.2016 07:13 0,6 C 96 % 1011,4 hPa 0,0 l/m 4,1 km/h (1 Bft) O-NO 57 0 min 0,000 mm 0,0 UV-I 5 W/m 0,0 C 0,6 C 6,4 km/h (2 Bft) 100,00 %
02.03.2016 07:14 0,6 C 96 % 1011,4 hPa 0,0 l/m 5,5 km/h (1 Bft) NO 54 0 min 0,000 mm 0,0 UV-I 5 W/m 0,0 C 0,6 C 6,4 km/h (2 Bft) 100,00 %
02.03.2016 07:15 0,6 C 96 % 1011,4 hPa 0,0 l/m 5,6 km/h (1 Bft) NO 55 0 min 0,000 mm 0,0 UV-I 5 W/m 0,0 C 0,6 C 6,4 km/h (2 Bft) 95,65 %
02.03.2016 07:16 0,6 C 96 % 1011,4 hPa 0,0 l/m 4,8 km/h (1 Bft) NO 55 0 min 0,000 mm 0,0 UV-I 5 W/m 0,0 C 0,6 C 6,4 km/h (2 Bft) 100,00 %
02.03.2016 07:17 0,6 C 96 % 1011,3 hPa 0,0 l/m 4,5 km/h (1 Bft) NO 55 0 min 0,000 mm 0,0 UV-I 5 W/m 0,0 C 0,6 C 6,4 km/h (2 Bft) 100,00 %
02.03.2016 07:18 0,6 C 96 % 1011,3 hPa 0,0 l/m 4,1 km/h (1 Bft) NO 55 0 min 0,000 mm 0,0 UV-I 5 W/m 0,0 C 0,6 C 4,8 km/h (1 Bft) 100,00 %
02.03.2016 07:19 0,6 C 96 % 1011,2 hPa 0,0 l/m 4,6 km/h (1 Bft) NO 55 0 min 0,000 mm 0,0 UV-I 5 W/m 0,0 C 0,6 C 6,4 km/h (2 Bft) 100,00 %
02.03.2016 07:20 0,6 C 96 % 1011,2 hPa 0,0 l/m 3,9 km/h (1 Bft) NO 55 0 min 0,000 mm 0,0 UV-I 5 W/m 0,0 C 0,6 C 4,8 km/h (1 Bft) 100,00 %
02.03.2016 07:21 0,6 C 96 % 1011,3 hPa 0,0 l/m 2,1 km/h (1 Bft) NO 55 0 min 0,000 mm 0,0 UV-I 5 W/m 0,0 C 0,6 C 3,2 km/h (1 Bft) 100,00 %
02.03.2016 07:22 0,6 C 96 % 1011,3 hPa 0,0 l/m 2,5 km/h (1 Bft) NO 55 0 min 0,000 mm 0,0 UV-I 5 W/m 0,0 C 0,6 C 3,2 km/h (1 Bft) 100,00 %
02.03.2016 07:23 0,6 C 96 % 1011,3 hPa 0,0 l/m 3,1 km/h (1 Bft) NO 55 0 min 0,000 mm 0,0 UV-I 5 W/m 0,0 C 0,6 C 4,8 km/h (1 Bft) 100,00 %
02.03.2016 07:24 0,6 C 96 % 1011,2 hPa 0,0 l/m 2,5 km/h (1 Bft) NO 55 0 min 0,000 mm 0,0 UV-I 5 W/m 0,0 C 0,6 C 3,2 km/h (1 Bft) 100,00 %
02.03.2016 07:25 0,6 C 96 % 1011,3 hPa 0,0 l/m 0,7 km/h (0 Bft) NO 55 0 min 0,000 mm 0,0 UV-I 5 W/m 0,0 C 0,6 C 1,6 km/h (1 Bft) 96,67 %
02.03.2016 07:26 0,6 C 96 % 1011,4 hPa 0,0 l/m 0,4 km/h (0 Bft) NO 55 0 min 0,000 mm 0,0 UV-I 5 W/m 0,0 C 0,6 C 1,6 km/h (1 Bft) 100,00 %
02.03.2016 07:27 0,6 C 96 % 1011,4 hPa 0,0 l/m 0,0 km/h (0 Bft) NO 55 0 min 0,000 mm 0,0 UV-I 5 W/m 0,0 C 0,6 C 0,0 km/h (0 Bft) 96,67 %
02.03.2016 07:28 0,6 C 96 % 1011,4 hPa 0,0 l/m 0,2 km/h (0 Bft) NO 55 0 min 0,000 mm 0,0 UV-I 5 W/m 0,0 C 0,6 C 1,6 km/h (1 Bft) 96,55 %
02.03.2016 07:29 0,6 C 96 % 1011,3 hPa 0,0 l/m 0,9 km/h (0 Bft) NO 55 0 min 0,000 mm 0,0 UV-I 5 W/m 0,0 C 0,6 C 1,6 km/h (1 Bft) 95,83 %
02.03.2016 07:30 0,6 C 96 % 1011,3 hPa 0,0 l/m 0,0 km/h (0 Bft) NO 55 0 min 0,000 mm 0,0 UV-I 6 W/m 0,0 C 0,6 C 0,0 km/h (0 Bft) 95,65 %
02.03.2016 07:31 0,6 C 96 % 1011,4 hPa 0,0 l/m 0,1 km/h (0 Bft) NO 55 0 min 0,000 mm 0,0 UV-I 7 W/m 0,0 C 0,6 C 1,6 km/h (1 Bft) 91,67 %
02.03.2016 07:32 0,6 C 96 % 1011,4 hPa 0,0 l/m 0,0 km/h (0 Bft) NO 55 0 min 0,000 mm 0,0 UV-I 7 W/m 0,0 C 0,6 C 0,0 km/h (0 Bft) 95,65 %
02.03.2016 07:33 0,6 C 96 % 1011,4 hPa 0,0 l/m 0,0 km/h (0 Bft) NO 55 0 min 0,000 mm 0,0 UV-I 9 W/m 0,0 C 0,6 C 0,0 km/h (0 Bft) 100,00 %
02.03.2016 07:34 0,6 C 96 % 1011,3 hPa 0,0 l/m 1,1 km/h (1 Bft) NO 55 0 min 0,000 mm 0,0 UV-I 9 W/m 0,0 C 0,6 C 1,6 km/h (1 Bft) 96,67 %
02.03.2016 07:35 0,6 C 96 % 1011,3 hPa 0,0 l/m 1,4 km/h (1 Bft) NO 55 0 min 0,000 mm 0,0 UV-I 11 W/m 0,0 C 0,6 C 1,6 km/h (1 Bft) 100,00 %
02.03.2016 07:36 0,6 C 96 % 1011,3 hPa 0,0 l/m 0,6 km/h (0 Bft) NO 55 0 min 0,000 mm 0,0 UV-I 13 W/m 0,0 C 0,6 C 1,6 km/h (1 Bft) 96,30 %
02.03.2016 07:37 0,6 C 96 % 1011,4 hPa 0,0 l/m 0,0 km/h (0 Bft) NO 55 0 min 0,000 mm 0,0 UV-I 15 W/m 0,0 C 0,6 C 0,0 km/h (0 Bft) 98,82 %
02.03.2016 07:38 0,6 C 96 % 1011,4 hPa 0,0 l/m 0,3 km/h (0 Bft) NO 55 0 min 0,000 mm 0,0 UV-I 19 W/m 0,0 C 0,6 C 1,6 km/h (1 Bft) 96,00 %
02.03.2016 07:39 0,6 C 96 % 1011,4 hPa 0,0 l/m 0,4 km/h (0 Bft) NO 55 0 min 0,000 mm 0,0 UV-I 23 W/m 0,0 C 0,6 C 1,6 km/h (1 Bft) 95,65 %
02.03.2016 07:40 0,6 C 96 % 1011,3 hPa 0,0 l/m 0,6 km/h (0 Bft) NO 55 0 min 0,000 mm 0,0 UV-I 23 W/m 0,0 C 0,6 C 1,6 km/h (1 Bft) 100,00 %
02.03.2016 07:41 0,6 C 96 % 1011,3 hPa 0,0 l/m 1,7 km/h (1 Bft) NO 55 0 min 0,000 mm 0,0 UV-I 23 W/m 0,0 C 0,6 C 3,2 km/h (1 Bft) 96,15 %
02.03.2016 07:42 0,6 C 96 % 1011,3 hPa 0,0 l/m 0,0 km/h (0 Bft) NO 55 0 min 0,000 mm 0,0 UV-I 23 W/m 0,0 C 0,6 C 0,0 km/h (0 Bft) 100,00 %
02.03.2016 07:43 0,6 C 96 % 1011,4 hPa 0,0 l/m 0,9 km/h (0 Bft) NO 42 0 min 0,000 mm 0,0 UV-I 24 W/m 0,0 C 0,6 C 3,2 km/h (1 Bft) 91,30 %
02.03.2016 07:44 0,6 C 96 % 1011,4 hPa 0,0 l/m 2,2 km/h (1 Bft) N 11 0 min 0,000 mm 0,0 UV-I 25 W/m 0,0 C 0,6 C 3,2 km/h (1 Bft) 100,00 %
02.03.2016 07:45 0,6 C 96 % 1011,4 hPa 0,0 l/m 0,1 km/h (0 Bft) N 11 0 min 0,000 mm 0,0 UV-I 26 W/m 0,0 C 0,6 C 1,6 km/h (1 Bft) 91,30 %
02.03.2016 07:46 0,7 C 96 % 1011,4 hPa 0,0 l/m 0,3 km/h (0 Bft) N 11 0 min 0,000 mm 0,0 UV-I 26 W/m 0,1 C 0,7 C 1,6 km/h (1 Bft) 100,00 %
02.03.2016 07:47 0,7 C 96 % 1011,3 hPa 0,0 l/m 2,4 km/h (1 Bft) O-NO 73 0 min 0,000 mm 0,0 UV-I 26 W/m 0,1 C 0,7 C 3,2 km/h (1 Bft) 95,65 %
02.03.2016 07:48 0,7 C 96 % 1011,3 hPa 0,0 l/m 2,2 km/h (1 Bft) O-NO 73 0 min 0,000 mm 0,0 UV-I 26 W/m 0,1 C 0,7 C 3,2 km/h (1 Bft) 95,83 %
02.03.2016 07:49 0,7 C 96 % 1011,3 hPa 0,0 l/m 1,1 km/h (1 Bft) O-NO 73 0 min 0,000 mm 0,0 UV-I 26 W/m 0,1 C 0,7 C 1,6 km/h (1 Bft) 95,65 %
02.03.2016 07:50 0,7 C 96 % 1011,3 hPa 0,0 l/m 0,1 km/h (0 Bft) O-NO 73 0 min 0,000 mm 0,0 UV-I 28 W/m 0,1 C 0,7 C 1,6 km/h (1 Bft) 96,30 %
02.03.2016 07:51 0,7 C 96 % 1011,3 hPa 0,0 l/m 0,5 km/h (0 Bft) O-NO 73 0 min 0,000 mm 0,0 UV-I 28 W/m 0,1 C 0,7 C 1,6 km/h (1 Bft) 100,00 %
02.03.2016 07:52 0,7 C 96 % 1011,3 hPa 0,0 l/m 0,6 km/h (0 Bft) O-NO 73 0 min 0,000 mm 0,0 UV-I 26 W/m 0,1 C 0,7 C 1,6 km/h (1 Bft) 95,83 %
02.03.2016 07:53 0,7 C 97 % 1011,3 hPa 0,0 l/m 0,0 km/h (0 Bft) O-NO 73 0 min 0,000 mm 0,0 UV-I 27 W/m 0,3 C 0,7 C 0,0 km/h (0 Bft) 96,15 %
02.03.2016 07:54 0,7 C 97 % 1011,3 hPa 0,0 l/m 0,1 km/h (0 Bft) O-NO 73 0 min 0,000 mm 0,0 UV-I 29 W/m 0,3 C 0,7 C 1,6 km/h (1 Bft) 95,83 %
02.03.2016 07:55 0,7 C 97 % 1011,3 hPa 0,0 l/m 1,2 km/h (1 Bft) O-NO 73 0 min 0,000 mm 0,0 UV-I 30 W/m 0,3 C 0,7 C 1,6 km/h (1 Bft) 100,00 %
02.03.2016 07:56 0,7 C 96 % 1011,3 hPa 0,0 l/m 0,0 km/h (0 Bft) O-NO 73 0 min 0,000 mm 0,0 UV-I 30 W/m 0,1 C 0,7 C 0,0 km/h (0 Bft) 88,46 %
02.03.2016 07:57 0,7 C 96 % 1011,3 hPa 0,0 l/m 0,1 km/h (0 Bft) O-NO 73 0 min 0,000 mm 0,0 UV-I 28 W/m 0,1 C 0,7 C 1,6 km/h (1 Bft) 100,00 %
02.03.2016 07:58 0,7 C 96 % 1011,3 hPa 0,0 l/m 0,6 km/h (0 Bft) O-NO 73 0 min 0,000 mm 0,0 UV-I 27 W/m 0,1 C 0,7 C 1,6 km/h (1 Bft) 95,65 %
02.03.2016 07:59 0,7 C 97 % 1011,3 hPa 0,0 l/m 0,5 km/h (0 Bft) O-NO 73 0 min 0,000 mm 0,0 UV-I 27 W/m 0,3 C 0,7 C 1,6 km/h (1 Bft) 95,83 %
02.03.2016 08:00 0,7 C 96 % 1011,4 hPa 0,0 l/m 0,0 km/h (0 Bft) O-NO 73 0 min 0,000 mm 0,0 UV-I 30 W/m 0,1 C 0,7 C 0,0 km/h (0 Bft) 100,00 %
02.03.2016 08:01 0,7 C 97 % 1011,3 hPa 0,0 l/m 0,0 km/h (0 Bft) O-NO 73 0 min 0,000 mm 0,0 UV-I 33 W/m 0,3 C 0,7 C 0,0 km/h (0 Bft) 100,00 %
02.03.2016 08:02 0,7 C 97 % 1011,3 hPa 0,0 l/m 0,1 km/h (0 Bft) O-NO 73 0 min 0,000 mm 0,0 UV-I 37 W/m 0,3 C 0,7 C 1,6 km/h (1 Bft) 100,00 %
02.03.2016 08:03 0,7 C 97 % 1011,2 hPa 0,0 l/m 1,4 km/h (1 Bft) O-NO 73 0 min 0,000 mm 0,0 UV-I 37 W/m 0,3 C 0,7 C 1,6 km/h (1 Bft) 100,00 %
02.03.2016 08:04 0,7 C 97 % 1011,3 hPa 0,0 l/m 1,1 km/h (1 Bft) O-NO 73 0 min 0,000 mm 0,0 UV-I 36 W/m 0,3 C 0,7 C 1,6 km/h (1 Bft) 100,00 %
02.03.2016 08:05 0,7 C 97 % 1011,3 hPa 0,0 l/m 0,0 km/h (0 Bft) O-NO 73 0 min 0,000 mm 0,0 UV-I 34 W/m 0,3 C 0,7 C 0,0 km/h (0 Bft) 95,83 %
02.03.2016 08:06 0,7 C 97 % 1011,2 hPa 0,0 l/m 0,0 km/h (0 Bft) O-NO 73 0 min 0,000 mm 0,0 UV-I 33 W/m 0,3 C 0,7 C 0,0 km/h (0 Bft) 100,00 %
02.03.2016 08:07 0,7 C 96 % 1011,2 hPa 0,0 l/m 0,0 km/h (0 Bft) O-NO 73 0 min 0,000 mm 0,0 UV-I 32 W/m 0,1 C 0,7 C 0,0 km/h (0 Bft) 95,83 %
02.03.2016 08:08 0,7 C 96 % 1011,2 hPa 0,0 l/m 0,2 km/h (0 Bft) O-NO 73 0 min 0,000 mm 0,0 UV-I 33 W/m 0,1 C 0,7 C 1,6 km/h (1 Bft) 100,00 %
02.03.2016 08:09 0,7 C 97 % 1011,2 hPa 0,0 l/m 3,4 km/h (1 Bft) O-NO 73 0 min 0,000 mm 0,0 UV-I 33 W/m 0,3 C 0,7 C 4,8 km/h (1 Bft) 100,00 %
02.03.2016 08:10 0,8 C 97 % 1011,1 hPa 0,0 l/m 3,0 km/h (1 Bft) O-NO 73 0 min 0,000 mm 0,0 UV-I 32 W/m 0,4 C 0,8 C 3,2 km/h (1 Bft) 100,00 %
02.03.2016 08:11 0,8 C 97 % 1011,2 hPa 0,0 l/m 2,2 km/h (1 Bft) O-NO 73 0 min 0,000 mm 0,0 UV-I 32 W/m 0,4 C 0,8 C 3,2 km/h (1 Bft) 100,00 %
02.03.2016 08:12 0,8 C 97 % 1011,2 hPa 0,0 l/m 1,7 km/h (1 Bft) O-NO 73 0 min 0,000 mm 0,0 UV-I 32 W/m 0,4 C 0,8 C 3,2 km/h (1 Bft) 100,00 %
02.03.2016 08:13 0,8 C 97 % 1011,2 hPa 0,0 l/m 1,9 km/h (1 Bft) O-NO 73 0 min 0,000 mm 0,0 UV-I 32 W/m 0,4 C 0,8 C 3,2 km/h (1 Bft) 100,00 %
02.03.2016 08:14 0,8 C 97 % 1011,1 hPa 0,0 l/m 2,1 km/h (1 Bft) O-NO 73 0 min 0,000 mm 0,0 UV-I 30 W/m 0,4 C 0,8 C 3,2 km/h (1 Bft) 100,00 %
02.03.2016 08:15 0,8 C 97 % 1011,1 hPa 0,0 l/m 3,2 km/h (1 Bft) O 92 0 min 0,000 mm 0,0 UV-I 28 W/m 0,4 C 0,8 C 4,8 km/h (1 Bft) 100,00 %
02.03.2016 08:16 0,8 C 97 % 1011,1 hPa 0,0 l/m 2,7 km/h (1 Bft) O 101 0 min 0,000 mm 0,0 UV-I 28 W/m 0,4 C 0,8 C 4,8 km/h (1 Bft) 100,00 %
02.03.2016 08:17 0,8 C 97 % 1011,1 hPa 0,0 l/m 3,3 km/h (1 Bft) O-SO 113 0 min 0,000 mm 0,0 UV-I 29 W/m 0,4 C 0,8 C 4,8 km/h (1 Bft) 100,00 %
02.03.2016 08:18 0,8 C 97 % 1011,1 hPa 0,0 l/m 2,4 km/h (1 Bft) O-SO 113 0 min 0,000 mm 0,0 UV-I 32 W/m 0,4 C 0,8 C 3,2 km/h (1 Bft) 100,00 %
02.03.2016 08:19 0,8 C 97 % 1011,0 hPa 0,0 l/m 1,0 km/h (0 Bft) O-SO 113 0 min 0,000 mm 0,0 UV-I 34 W/m 0,4 C 0,8 C 3,2 km/h (1 Bft) 91,67 %
02.03.2016 08:20 0,8 C 97 % 1011,1 hPa 0,0 l/m 1,2 km/h (1 Bft) O-SO 113 0 min 0,000 mm 0,0 UV-I 39 W/m 0,4 C 0,8 C 1,6 km/h (1 Bft) 100,00 %
02.03.2016 08:21 0,8 C 97 % 1010,9 hPa 0,0 l/m 0,9 km/h (0 Bft) O-SO 113 0 min 0,000 mm 0,0 UV-I 42 W/m 0,4 C 0,8 C 1,6 km/h (1 Bft) 95,65 %
02.03.2016 08:22 0,8 C 97 % 1011,0 hPa 0,0 l/m 0,5 km/h (0 Bft) O-SO 113 0 min 0,000 mm 0,0 UV-I 42 W/m 0,4 C 0,8 C 1,6 km/h (1 Bft) 100,00 %
02.03.2016 08:23 0,9 C 97 % 1011,0 hPa 0,0 l/m 0,3 km/h (0 Bft) O-SO 113 0 min 0,000 mm 0,0 UV-I 43 W/m 0,5 C 0,9 C 1,6 km/h (1 Bft) 96,15 %
02.03.2016 08:24 0,9 C 97 % 1011,0 hPa 0,0 l/m 0,1 km/h (0 Bft) O-SO 113 0 min 0,000 mm 0,0 UV-I 46 W/m 0,5 C 0,9 C 1,6 km/h (1 Bft) 96,30 %
02.03.2016 08:25 0,9 C 97 % 1010,9 hPa 0,0 l/m 1,5 km/h (1 Bft) O-SO 116 0 min 0,000 mm 0,0 UV-I 48 W/m 0,5 C 0,9 C 3,2 km/h (1 Bft) 100,00 %
02.03.2016 08:26 1,0 C 97 % 1010,9 hPa 0,0 l/m 1,4 km/h (1 Bft) S-SO 153 0 min 0,000 mm 0,0 UV-I 56 W/m 0,6 C 1,0 C 4,8 km/h (1 Bft) 100,00 %
02.03.2016 08:27 1,0 C 97 % 1010,9 hPa 0,0 l/m 3,8 km/h (1 Bft) S 173 0 min 0,000 mm 0,0 UV-I 63 W/m 0,6 C 1,0 C 6,4 km/h (2 Bft) 100,00 %
02.03.2016 08:28 1,1 C 97 % 1010,9 hPa 0,0 l/m 2,3 km/h (1 Bft) S 173 0 min 0,000 mm 0,0 UV-I 68 W/m 0,7 C 1,1 C 3,2 km/h (1 Bft) 100,00 %
02.03.2016 08:29 1,1 C 97 % 1010,8 hPa 0,0 l/m 1,2 km/h (1 Bft) S 173 0 min 0,000 mm 0,0 UV-I 71 W/m 0,7 C 1,1 C 3,2 km/h (1 Bft) 100,00 %
02.03.2016 08:30 1,1 C 97 % 1010,8 hPa 0,0 l/m 0,0 km/h (0 Bft) S 173 0 min 0,000 mm 0,0 UV-I 68 W/m 0,7 C 1,1 C 0,0 km/h (0 Bft) 100,00 %
02.03.2016 08:31 1,1 C 97 % 1010,8 hPa 0,0 l/m 0,3 km/h (0 Bft) S 173 0 min 0,000 mm 0,0 UV-I 65 W/m 0,7 C 1,1 C 1,6 km/h (1 Bft) 100,00 %
02.03.2016 08:32 1,1 C 97 % 1010,8 hPa 0,0 l/m 2,3 km/h (1 Bft) S 173 0 min 0,000 mm 0,0 UV-I 65 W/m 0,7 C 1,1 C 3,2 km/h (1 Bft) 100,00 %
02.03.2016 08:33 1,2 C 97 % 1010,8 hPa 0,0 l/m 0,7 km/h (0 Bft) S 173 0 min 0,000 mm 0,0 UV-I 64 W/m 0,8 C 1,2 C 1,6 km/h (1 Bft) 100,00 %
02.03.2016 08:34 1,2 C 97 % 1010,8 hPa 0,0 l/m 0,7 km/h (0 Bft) S 173 0 min 0,000 mm 0,0 UV-I 61 W/m 0,8 C 1,2 C 1,6 km/h (1 Bft) 100,00 %
02.03.2016 08:35 1,2 C 97 % 1010,8 hPa 0,0 l/m 0,3 km/h (0 Bft) S 173 0 min 0,000 mm 0,0 UV-I 56 W/m 0,8 C 1,2 C 1,6 km/h (1 Bft) 100,00 %
02.03.2016 08:36 1,2 C 97 % 1010,8 hPa 0,2 l/m 1,1 km/h (1 Bft) S 173 0 min 0,000 mm 0,0 UV-I 54 W/m 0,8 C 1,2 C 1,6 km/h (1 Bft) 100,00 %
02.03.2016 08:37 1,2 C 97 % 1010,7 hPa 0,0 l/m 0,6 km/h (0 Bft) S 173 0 min 0,000 mm 0,0 UV-I 53 W/m 0,8 C 1,2 C 1,6 km/h (1 Bft) 100,00 %
02.03.2016 08:38 1,2 C 97 % 1010,8 hPa 0,0 l/m 0,4 km/h (0 Bft) S 173 0 min 0,000 mm 0,0 UV-I 57 W/m 0,8 C 1,2 C 1,6 km/h (1 Bft) 100,00 %
02.03.2016 08:39 1,2 C 97 % 1010,8 hPa 0,0 l/m 1,4 km/h (1 Bft) S 173 0 min 0,000 mm 0,0 UV-I 61 W/m 0,8 C 1,2 C 3,2 km/h (1 Bft) 100,00 %
02.03.2016 08:40 1,3 C 97 % 1010,7 hPa 0,0 l/m 0,8 km/h (0 Bft) S 173 0 min 0,000 mm 0,0 UV-I 66 W/m 0,9 C 1,3 C 1,6 km/h (1 Bft) 100,00 %
02.03.2016 08:41 1,3 C 97 % 1010,7 hPa 0,2 l/m 0,3 km/h (0 Bft) S 173 0 min 0,000 mm 0,0 UV-I 69 W/m 0,9 C 1,3 C 1,6 km/h (1 Bft) 100,00 %
02.03.2016 08:42 1,3 C 97 % 1010,8 hPa 0,2 l/m 1,1 km/h (1 Bft) S 173 0 min 0,000 mm 0,0 UV-I 69 W/m 0,9 C 1,3 C 3,2 km/h (1 Bft) 100,00 %
02.03.2016 08:43 1,3 C 97 % 1010,7 hPa 0,0 l/m 0,2 km/h (0 Bft) S 173 0 min 0,000 mm 0,0 UV-I 69 W/m 0,9 C 1,3 C 1,6 km/h (1 Bft) 100,00 %
02.03.2016 08:44 1,3 C 97 % 1010,7 hPa 0,0 l/m 0,0 km/h (0 Bft) S 173 0 min 0,000 mm 0,0 UV-I 70 W/m 0,9 C 1,3 C 0,0 km/h (0 Bft) 100,00 %
02.03.2016 08:45 1,4 C 97 % 1010,7 hPa 0,0 l/m 0,1 km/h (0 Bft) S 173 0 min 0,000 mm 0,0 UV-I 74 W/m 1,0 C 1,4 C 1,6 km/h (1 Bft) 95,83 %
02.03.2016 08:46 1,4 C 97 % 1010,7 hPa 0,0 l/m 0,7 km/h (0 Bft) S 173 0 min 0,000 mm 0,0 UV-I 80 W/m 1,0 C 1,4 C 1,6 km/h (1 Bft) 95,65 %
02.03.2016 08:47 1,4 C 97 % 1010,7 hPa 0,0 l/m 0,2 km/h (0 Bft) S 173 0 min 0,000 mm 0,0 UV-I 84 W/m 1,0 C 1,4 C 1,6 km/h (1 Bft) 92,59 %
02.03.2016 08:48 1,4 C 97 % 1010,7 hPa 0,0 l/m 0,1 km/h (0 Bft) S 173 0 min 0,000 mm 0,0 UV-I 86 W/m 1,0 C 1,4 C 1,6 km/h (1 Bft) 100,00 %
02.03.2016 08:49 1,5 C 97 % 1010,7 hPa 0,0 l/m 0,0 km/h (0 Bft) S 173 0 min 0,000 mm 0,0 UV-I 88 W/m 1,1 C 1,5 C 0,0 km/h (0 Bft) 100,00 %
02.03.2016 08:50 1,5 C 97 % 1010,7 hPa 0,0 l/m 0,2 km/h (0 Bft) S 173 0 min 0,000 mm 0,0 UV-I 88 W/m 1,1 C 1,5 C 1,6 km/h (1 Bft) 100,00 %
02.03.2016 08:51 1,5 C 97 % 1010,7 hPa 0,0 l/m 0,8 km/h (0 Bft) S 173 0 min 0,000 mm 0,0 UV-I 86 W/m 1,1 C 1,5 C 1,6 km/h (1 Bft) 100,00 %
02.03.2016 08:52 1,5 C 97 % 1010,6 hPa 0,0 l/m 1,2 km/h (1 Bft) S 173 0 min 0,000 mm 0,0 UV-I 87 W/m 1,1 C 1,5 C 3,2 km/h (1 Bft) 100,00 %
02.03.2016 08:53 1,5 C 96 % 1010,6 hPa 0,0 l/m 0,4 km/h (0 Bft) S 173 0 min 0,000 mm 0,0 UV-I 87 W/m 0,9 C 1,5 C 1,6 km/h (1 Bft) 100,00 %
02.03.2016 08:54 1,5 C 96 % 1010,6 hPa 0,0 l/m 0,4 km/h (0 Bft) S 173 0 min 0,000 mm 0,0 UV-I 83 W/m 0,9 C 1,5 C 1,6 km/h (1 Bft) 100,00 %
02.03.2016 08:55 1,6 C 96 % 1010,6 hPa 0,0 l/m 0,1 km/h (0 Bft) S 173 0 min 0,000 mm 0,0 UV-I 81 W/m 1,0 C 1,6 C 1,6 km/h (1 Bft) 100,00 %
02.03.2016 08:56 1,6 C 96 % 1010,6 hPa 0,0 l/m 0,1 km/h (0 Bft) S 173 0 min 0,000 mm 0,0 UV-I 77 W/m 1,0 C 1,6 C 1,6 km/h (1 Bft) 95,83 %
02.03.2016 08:57 1,6 C 96 % 1010,6 hPa 0,0 l/m 0,5 km/h (0 Bft) S 173 0 min 0,000 mm 0,0 UV-I 72 W/m 1,0 C 1,6 C 1,6 km/h (1 Bft) 100,00 %
02.03.2016 08:58 1,6 C 97 % 1010,6 hPa 0,0 l/m 1,1 km/h (1 Bft) S 173 0 min 0,000 mm 0,0 UV-I 67 W/m 1,2 C 1,6 C 3,2 km/h (1 Bft) 100,00 %
02.03.2016 08:59 1,6 C 97 % 1010,6 hPa 0,0 l/m 0,3 km/h (0 Bft) S 173 0 min 0,000 mm 0,0 UV-I 63 W/m 1,2 C 1,6 C 1,6 km/h (1 Bft) 100,00 %
02.03.2016 09:00 1,6 C 97 % 1010,6 hPa 0,0 l/m 0,7 km/h (0 Bft) S 173 0 min 0,025 mm 0,0 UV-I 62 W/m 1,2 C 1,6 C 1,6 km/h (1 Bft) 100,00 %
02.03.2016 09:01 1,6 C 97 % 1010,6 hPa 0,0 l/m 0,3 km/h (0 Bft) S 173 0 min 0,000 mm 0,0 UV-I 62 W/m 1,2 C 1,6 C 1,6 km/h (1 Bft) 100,00 %
02.03.2016 09:02 1,7 C 97 % 1010,6 hPa 0,0 l/m 2,2 km/h (1 Bft) S 173 0 min 0,000 mm 0,0 UV-I 69 W/m 1,3 C 1,7 C 3,2 km/h (1 Bft) 100,00 %
02.03.2016 09:03 1,7 C 97 % 1010,5 hPa 0,0 l/m 1,6 km/h (1 Bft) S 173 0 min 0,000 mm 0,0 UV-I 79 W/m 1,3 C 1,7 C 3,2 km/h (1 Bft) 100,00 %
02.03.2016 09:04 1,7 C 97 % 1010,5 hPa 0,0 l/m 0,1 km/h (0 Bft) S 173 0 min 0,000 mm 0,0 UV-I 96 W/m 1,3 C 1,7 C 1,6 km/h (1 Bft) 100,00 %
02.03.2016 09:05 1,7 C 97 % 1010,5 hPa 0,0 l/m 0,2 km/h (0 Bft) S 173 0 min 0,000 mm 0,0 UV-I 106 W/m 1,3 C 1,7 C 1,6 km/h (1 Bft) 90,91 %
02.03.2016 09:06 1,7 C 97 % 1010,5 hPa 0,0 l/m 0,1 km/h (0 Bft) S 173 0 min 0,000 mm 0,0 UV-I 111 W/m 1,3 C 1,7 C 1,6 km/h (1 Bft) 96,30 %
02.03.2016 09:07 1,8 C 97 % 1010,5 hPa 0,0 l/m 0,4 km/h (0 Bft) S 173 0 min 0,000 mm 0,0 UV-I 101 W/m 1,4 C 1,8 C 1,6 km/h (1 Bft) 100,00 %
02.03.2016 09:08 1,8 C 97 % 1010,5 hPa 0,0 l/m 0,4 km/h (0 Bft) S 173 0 min 0,000 mm 0,0 UV-I 88 W/m 1,4 C 1,8 C 1,6 km/h (1 Bft) 85,19 %
02.03.2016 09:09 1,8 C 96 % 1010,5 hPa 0,2 l/m 0,1 km/h (0 Bft) S 173 0 min 0,000 mm 0,0 UV-I 84 W/m 1,2 C 1,8 C 1,6 km/h (1 Bft) 100,00 %
02.03.2016 09:10 1,8 C 97 % 1010,5 hPa 0,0 l/m 1,1 km/h (1 Bft) S 173 0 min 0,000 mm 0,0 UV-I 79 W/m 1,4 C 1,8 C 3,2 km/h (1 Bft) 98,67 %
02.03.2016 09:11 1,8 C 97 % 1010,4 hPa 0,0 l/m 0,5 km/h (0 Bft) S 173 0 min 0,000 mm 0,0 UV-I 80 W/m 1,4 C 1,8 C 1,6 km/h (1 Bft) 97,44 %
02.03.2016 09:12 1,8 C 97 % 1010,4 hPa 0,0 l/m 1,1 km/h (1 Bft) S 173 0 min 0,000 mm 0,0 UV-I 78 W/m 1,4 C 1,8 C 3,2 km/h (1 Bft) 100,00 %
02.03.2016 09:13 1,8 C 97 % 1010,4 hPa 0,0 l/m 1,9 km/h (1 Bft) S 173 0 min 0,000 mm 0,0 UV-I 77 W/m 1,4 C 1,8 C 3,2 km/h (1 Bft) 100,00 %
02.03.2016 09:14 1,8 C 96 % 1010,3 hPa 0,0 l/m 1,1 km/h (1 Bft) S 171 0 min 0,000 mm 0,0 UV-I 80 W/m 1,2 C 1,8 C 3,2 km/h (1 Bft) 100,00 %
02.03.2016 09:15 1,8 C 96 % 1010,4 hPa 0,0 l/m 0,4 km/h (0 Bft) S 171 0 min 0,000 mm 0,0 UV-I 84 W/m 1,2 C 1,8 C 1,6 km/h (1 Bft) 100,00 %
02.03.2016 09:16 1,9 C 96 % 1010,3 hPa 0,0 l/m 1,0 km/h (0 Bft) S 171 0 min 0,000 mm 0,0 UV-I 87 W/m 1,3 C 1,9 C 1,6 km/h (1 Bft) 100,00 %
02.03.2016 09:17 1,9 C 96 % 1010,3 hPa 0,0 l/m 1,2 km/h (1 Bft) S 171 0 min 0,000 mm 0,0 UV-I 92 W/m 1,3 C 1,9 C 1,6 km/h (1 Bft) 100,00 %
02.03.2016 09:18 1,9 C 96 % 1010,3 hPa 0,0 l/m 0,3 km/h (0 Bft) S 171 0 min 0,000 mm 0,0 UV-I 100 W/m 1,3 C 1,9 C 1,6 km/h (1 Bft) 100,00 %
02.03.2016 09:19 1,9 C 96 % 1010,3 hPa 0,0 l/m 1,2 km/h (1 Bft) S 171 0 min 0,000 mm 0,0 UV-I 103 W/m 1,3 C 1,9 C 3,2 km/h (1 Bft) 100,00 %
02.03.2016 09:20 1,9 C 96 % 1010,3 hPa 0,0 l/m 0,5 km/h (0 Bft) S 171 0 min 0,000 mm 0,0 UV-I 97 W/m 1,3 C 1,9 C 1,6 km/h (1 Bft) 100,00 %
02.03.2016 09:21 2,0 C 96 % 1010,3 hPa 0,0 l/m 0,6 km/h (0 Bft) S 171 0 min 0,000 mm 0,0 UV-I 93 W/m 1,4 C 2,0 C 1,6 km/h (1 Bft) 100,00 %
02.03.2016 09:22 2,0 C 96 % 1010,3 hPa 0,0 l/m 0,0 km/h (0 Bft) S 171 0 min 0,000 mm 0,0 UV-I 92 W/m 1,4 C 2,0 C 0,0 km/h (0 Bft) 95,65 %
02.03.2016 09:23 2,1 C 96 % 1010,3 hPa 0,0 l/m 2,6 km/h (1 Bft) S 171 0 min 0,000 mm 0,0 UV-I 93 W/m 1,5 C 2,1 C 3,2 km/h (1 Bft) 100,00 %
02.03.2016 09:24 2,1 C 96 % 1010,3 hPa 0,0 l/m 2,2 km/h (1 Bft) S 171 0 min 0,000 mm 0,0 UV-I 97 W/m 1,5 C 2,1 C 3,2 km/h (1 Bft) 100,00 %
02.03.2016 09:25 2,1 C 96 % 1010,2 hPa 0,0 l/m 1,0 km/h (0 Bft) S 171 0 min 0,000 mm 0,4 UV-I 104 W/m 1,5 C 2,1 C 3,2 km/h (1 Bft) 100,00 %
02.03.2016 09:26 2,2 C 96 % 1010,2 hPa 0,0 l/m 3,2 km/h (1 Bft) S 186 0 min 0,000 mm 0,5 UV-I 108 W/m 1,6 C 2,2 C 4,8 km/h (1 Bft) 91,30 %
02.03.2016 09:27 2,2 C 96 % 1010,2 hPa 0,0 l/m 1,2 km/h (1 Bft) S 186 0 min 0,000 mm 0,5 UV-I 109 W/m 1,6 C 2,2 C 3,2 km/h (1 Bft) 100,00 %
02.03.2016 09:28 2,2 C 96 % 1010,2 hPa 0,0 l/m 1,3 km/h (1 Bft) S 186 0 min 0,000 mm 0,5 UV-I 106 W/m 1,6 C 2,2 C 1,6 km/h (1 Bft) 100,00 %
02.03.2016 09:29 2,2 C 96 % 1010,2 hPa 0,0 l/m 2,0 km/h (1 Bft) S-SO 151 0 min 0,000 mm 0,2 UV-I 101 W/m 1,6 C 2,2 C 3,2 km/h (1 Bft) 100,00 %
02.03.2016 09:30 2,2 C 96 % 1010,2 hPa 0,0 l/m 1,1 km/h (1 Bft) S-SO 148 0 min 0,000 mm 0,0 UV-I 100 W/m 1,6 C 2,2 C 1,6 km/h (1 Bft) 100,00 %
02.03.2016 09:31 2,2 C 96 % 1010,2 hPa 0,0 l/m 1,8 km/h (1 Bft) S-SO 149 0 min 0,000 mm 0,0 UV-I 96 W/m 1,6 C 2,2 C 3,2 km/h (1 Bft) 95,83 %
02.03.2016 09:32 2,2 C 95 % 1010,2 hPa 0,0 l/m 3,0 km/h (1 Bft) S-SO 162 0 min 0,000 mm 0,0 UV-I 88 W/m 1,5 C 2,2 C 6,4 km/h (2 Bft) 100,00 %
02.03.2016 09:33 2,2 C 95 % 1010,1 hPa 0,0 l/m 1,9 km/h (1 Bft) S-SO 155 0 min 0,000 mm 0,0 UV-I 84 W/m 1,5 C 2,2 C 3,2 km/h (1 Bft) 95,83 %
02.03.2016 09:34 2,2 C 95 % 1010,1 hPa 0,0 l/m 3,1 km/h (1 Bft) SO 132 0 min 0,000 mm 0,0 UV-I 86 W/m 1,5 C 2,2 C 4,8 km/h (1 Bft) 96,15 %
02.03.2016 09:35 2,2 C 95 % 1010,1 hPa 0,0 l/m 1,5 km/h (1 Bft) SO 132 0 min 0,000 mm 0,0 UV-I 90 W/m 1,5 C 2,2 C 3,2 km/h (1 Bft) 100,00 %
02.03.2016 09:36 2,2 C 95 % 1010,1 hPa 0,0 l/m 0,4 km/h (0 Bft) SO 132 0 min 0,000 mm 0,0 UV-I 90 W/m 1,5 C 2,2 C 1,6 km/h (1 Bft) 96,30 %
02.03.2016 09:37 2,3 C 95 % 1010,1 hPa 0,0 l/m 0,0 km/h (0 Bft) SO 132 0 min 0,000 mm 0,0 UV-I 91 W/m 1,6 C 2,3 C 0,0 km/h (0 Bft) 100,00 %
02.03.2016 09:38 2,3 C 95 % 1010,0 hPa 0,0 l/m 0,5 km/h (0 Bft) SO 132 0 min 0,000 mm 0,0 UV-I 95 W/m 1,6 C 2,3 C 1,6 km/h (1 Bft) 95,83 %
02.03.2016 09:39 2,3 C 95 % 1010,1 hPa 0,0 l/m 0,2 km/h (0 Bft) SO 132 0 min 0,000 mm 0,0 UV-I 97 W/m 1,6 C 2,3 C 1,6 km/h (1 Bft) 100,00 %
02.03.2016 09:40 2,3 C 95 % 1010,0 hPa 0,0 l/m 0,3 km/h (0 Bft) SO 132 0 min 0,000 mm 0,0 UV-I 91 W/m 1,6 C 2,3 C 1,6 km/h (1 Bft) 95,83 %
02.03.2016 09:41 2,3 C 95 % 1010,0 hPa 0,0 l/m 0,4 km/h (0 Bft) SO 132 0 min 0,000 mm 0,0 UV-I 84 W/m 1,6 C 2,3 C 1,6 km/h (1 Bft) 100,00 %
02.03.2016 09:42 2,3 C 95 % 1010,0 hPa 0,0 l/m 0,8 km/h (0 Bft) SO 132 0 min 0,000 mm 0,0 UV-I 93 W/m 1,6 C 2,3 C 1,6 km/h (1 Bft) 96,30 %
02.03.2016 09:43 2,4 C 95 % 1010,0 hPa 0,0 l/m 1,5 km/h (1 Bft) SO 133 0 min 0,000 mm 0,5 UV-I 106 W/m 1,7 C 2,4 C 3,2 km/h (1 Bft) 96,15 %
02.03.2016 09:44 2,4 C 95 % 1009,8 hPa 0,0 l/m 0,6 km/h (0 Bft) SO 133 0 min 0,000 mm 0,5 UV-I 106 W/m 1,7 C 2,4 C 1,6 km/h (1 Bft) 95,83 %
02.03.2016 09:45 2,4 C 95 % 1009,8 hPa 0,0 l/m 2,7 km/h (1 Bft) SO 133 0 min 0,000 mm 0,3 UV-I 98 W/m 1,7 C 2,4 C 6,4 km/h (2 Bft) 100,00 %
02.03.2016 09:46 2,5 C 95 % 1009,9 hPa 0,0 l/m 0,6 km/h (0 Bft) SO 133 0 min 0,000 mm 0,0 UV-I 92 W/m 1,8 C 2,5 C 3,2 km/h (1 Bft) 97,44 %
02.03.2016 09:47 2,5 C 95 % 1009,9 hPa 0,0 l/m 0,3 km/h (0 Bft) SO 133 0 min 0,000 mm 0,0 UV-I 93 W/m 1,8 C 2,5 C 1,6 km/h (1 Bft) 90,91 %
02.03.2016 09:48 2,6 C 95 % 1009,8 hPa 0,0 l/m 0,3 km/h (0 Bft) SO 133 0 min 0,000 mm 0,4 UV-I 97 W/m 1,9 C 2,6 C 1,6 km/h (1 Bft) 100,00 %
02.03.2016 09:49 2,6 C 95 % 1009,8 hPa 0,0 l/m 2,8 km/h (1 Bft) SO 133 0 min 0,000 mm 0,4 UV-I 93 W/m 1,9 C 2,6 C 4,8 km/h (1 Bft) 96,15 %
02.03.2016 09:50 2,6 C 95 % 1009,7 hPa 0,0 l/m 2,6 km/h (1 Bft) SO 133 0 min 0,000 mm 0,0 UV-I 89 W/m 1,9 C 2,6 C 4,8 km/h (1 Bft) 96,30 %
02.03.2016 09:51 2,6 C 95 % 1009,8 hPa 0,2 l/m 1,0 km/h (0 Bft) SO 133 0 min 0,000 mm 0,0 UV-I 94 W/m 1,9 C 2,6 C 1,6 km/h (1 Bft) 100,00 %
02.03.2016 09:52 2,6 C 95 % 1009,8 hPa 0,0 l/m 0,5 km/h (0 Bft) SO 133 0 min 0,000 mm 0,3 UV-I 98 W/m 1,9 C 2,6 C 3,2 km/h (1 Bft) 100,00 %
02.03.2016 09:53 2,7 C 95 % 1009,8 hPa 0,0 l/m 1,3 km/h (1 Bft) SO 133 0 min 0,000 mm 0,1 UV-I 91 W/m 2,0 C 2,7 C 1,6 km/h (1 Bft) 96,30 %
02.03.2016 09:54 2,7 C 94 % 1009,8 hPa 0,0 l/m 1,0 km/h (0 Bft) SO 133 0 min 0,000 mm 0,0 UV-I 84 W/m 1,8 C 2,7 C 1,6 km/h (1 Bft) 93,10 %
02.03.2016 09:55 2,7 C 94 % 1009,8 hPa 0,0 l/m 0,2 km/h (0 Bft) SO 133 0 min 0,000 mm 0,0 UV-I 85 W/m 1,8 C 2,7 C 1,6 km/h (1 Bft) 100,00 %
02.03.2016 09:56 2,8 C 95 % 1009,7 hPa 0,0 l/m 0,0 km/h (0 Bft) SO 133 0 min 0,000 mm 0,0 UV-I 89 W/m 2,1 C 2,8 C 0,0 km/h (0 Bft) 96,15 %
02.03.2016 09:57 2,8 C 95 % 1009,7 hPa 0,0 l/m 0,5 km/h (0 Bft) SO 133 0 min 0,000 mm 0,2 UV-I 92 W/m 2,1 C 2,8 C 3,2 km/h (1 Bft) 100,00 %
02.03.2016 09:58 2,8 C 95 % 1009,7 hPa 0,0 l/m 2,2 km/h (1 Bft) SO 133 0 min 0,000 mm 0,5 UV-I 96 W/m 2,1 C 2,8 C 4,8 km/h (1 Bft) 96,15 %
02.03.2016 09:59 2,8 C 94 % 1009,7 hPa 0,0 l/m 4,8 km/h (1 Bft) SO 131 0 min 0,000 mm 0,5 UV-I 106 W/m 1,9 C 2,8 C 6,4 km/h (2 Bft) 95,83 %
02.03.2016 10:00 2,8 C 95 % 1009,7 hPa 0,0 l/m 1,6 km/h (1 Bft) S-SO 151 0 min 0,000 mm 0,6 UV-I 119 W/m 2,1 C 2,8 C 3,2 km/h (1 Bft) 100,00 %
02.03.2016 10:01 2,8 C 94 % 1009,7 hPa 0,0 l/m 1,3 km/h (1 Bft) S-SO 151 0 min 0,026 mm 0,6 UV-I 125 W/m 1,9 C 2,8 C 3,2 km/h (1 Bft) 95,83 %
02.03.2016 10:02 2,8 C 94 % 1009,7 hPa 0,0 l/m 1,7 km/h (1 Bft) S-SO 151 0 min 0,000 mm 0,6 UV-I 124 W/m 1,9 C 2,8 C 3,2 km/h (1 Bft) 100,00 %
02.03.2016 10:03 2,9 C 94 % 1009,6 hPa 0,0 l/m 1,9 km/h (1 Bft) S-SO 151 0 min 0,000 mm 0,5 UV-I 124 W/m 2,0 C 2,9 C 3,2 km/h (1 Bft) 96,30 %
02.03.2016 10:04 2,9 C 94 % 1009,7 hPa 0,0 l/m 1,4 km/h (1 Bft) S-SO 151 0 min 0,000 mm 0,6 UV-I 136 W/m 2,0 C 2,9 C 3,2 km/h (1 Bft) 100,00 %
02.03.2016 10:05 3,0 C 94 % 1009,7 hPa 0,0 l/m 1,1 km/h (1 Bft) S-SO 151 0 min 0,000 mm 0,7 UV-I 153 W/m 2,1 C 3,0 C 3,2 km/h (1 Bft) 100,00 %
02.03.2016 10:06 3,1 C 94 % 1009,6 hPa 0,0 l/m 1,1 km/h (1 Bft) S-SO 151 0 min 0,000 mm 0,7 UV-I 167 W/m 2,2 C 3,1 C 1,6 km/h (1 Bft) 97,37 %
02.03.2016 10:07 3,1 C 94 % 1009,6 hPa 0,0 l/m 0,0 km/h (0 Bft) S-SO 151 0 min 0,000 mm 0,7 UV-I 168 W/m 2,2 C 3,1 C 0,0 km/h (0 Bft) 100,00 %
02.03.2016 10:08 3,1 C 94 % 1009,5 hPa 0,0 l/m 0,0 km/h (0 Bft) S-SO 151 0 min 0,000 mm 0,7 UV-I 159 W/m 2,2 C 3,1 C 0,0 km/h (0 Bft) 100,00 %
02.03.2016 10:09 3,1 C 94 % 1009,5 hPa 0,0 l/m 0,0 km/h (0 Bft) S-SO 151 0 min 0,000 mm 0,7 UV-I 144 W/m 2,2 C 3,1 C 0,0 km/h (0 Bft) 100,00 %
02.03.2016 10:10 3,1 C 94 % 1009,5 hPa 0,0 l/m 0,0 km/h (0 Bft) S-SO 151 0 min 0,000 mm 0,6 UV-I 129 W/m 2,2 C 3,1 C 0,0 km/h (0 Bft) 100,00 %
02.03.2016 10:11 3,2 C 94 % 1009,5 hPa 0,0 l/m 1,4 km/h (1 Bft) S-SO 151 0 min 0,000 mm 0,6 UV-I 122 W/m 2,3 C 3,2 C 3,2 km/h (1 Bft) 94,29 %
02.03.2016 10:12 3,2 C 94 % 1009,5 hPa 0,0 l/m 3,0 km/h (1 Bft) S-SO 151 0 min 0,000 mm 0,6 UV-I 120 W/m 2,3 C 3,2 C 3,2 km/h (1 Bft) 100,00 %
02.03.2016 10:13 3,2 C 94 % 1009,5 hPa 0,0 l/m 1,6 km/h (1 Bft) S-SO 151 0 min 0,000 mm 0,7 UV-I 124 W/m 2,3 C 3,2 C 3,2 km/h (1 Bft) 100,00 %
02.03.2016 10:14 3,2 C 94 % 1009,4 hPa 0,0 l/m 1,9 km/h (1 Bft) S-SO 151 0 min 0,000 mm 0,7 UV-I 133 W/m 2,3 C 3,2 C 3,2 km/h (1 Bft) 100,00 %
02.03.2016 10:15 3,2 C 94 % 1009,4 hPa 0,0 l/m 1,4 km/h (1 Bft) S-SO 151 0 min 0,000 mm 0,7 UV-I 145 W/m 2,3 C 3,2 C 1,6 km/h (1 Bft) 100,00 %
02.03.2016 10:16 3,2 C 94 % 1009,4 hPa 0,0 l/m 0,2 km/h (0 Bft) S-SO 151 0 min 0,000 mm 0,8 UV-I 150 W/m 2,3 C 3,2 C 1,6 km/h (1 Bft) 100,00 %
02.03.2016 10:17 3,2 C 94 % 1009,4 hPa 0,0 l/m 0,0 km/h (0 Bft) S-SO 151 0 min 0,000 mm 0,8 UV-I 163 W/m 2,3 C 3,2 C 0,0 km/h (0 Bft) 100,00 %
02.03.2016 10:18 3,2 C 94 % 1009,3 hPa 0,0 l/m 0,1 km/h (0 Bft) S-SO 151 0 min 0,000 mm 0,8 UV-I 184 W/m 2,3 C 3,2 C 1,6 km/h (1 Bft) 100,00 %
02.03.2016 10:19 3,3 C 94 % 1009,3 hPa 0,0 l/m 0,4 km/h (0 Bft) S-SO 151 0 min 0,000 mm 0,8 UV-I 184 W/m 2,4 C 3,3 C 1,6 km/h (1 Bft) 100,00 %
02.03.2016 10:20 3,3 C 94 % 1009,3 hPa 0,0 l/m 1,4 km/h (1 Bft) S-SO 151 0 min 0,000 mm 0,8 UV-I 167 W/m 2,4 C 3,3 C 3,2 km/h (1 Bft) 96,30 %
02.03.2016 10:21 3,4 C 94 % 1009,3 hPa 0,0 l/m 0,8 km/h (0 Bft) S-SO 151 0 min 0,000 mm 0,8 UV-I 161 W/m 2,5 C 3,4 C 1,6 km/h (1 Bft) 100,00 %
02.03.2016 10:22 3,5 C 94 % 1009,3 hPa 0,0 l/m 1,0 km/h (0 Bft) S-SO 151 0 min 0,000 mm 0,7 UV-I 160 W/m 2,6 C 3,5 C 1,6 km/h (1 Bft) 100,00 %
02.03.2016 10:23 3,6 C 94 % 1009,3 hPa 0,0 l/m 0,1 km/h (0 Bft) S-SO 151 0 min 0,000 mm 0,7 UV-I 151 W/m 2,7 C 3,6 C 1,6 km/h (1 Bft) 100,00 %
02.03.2016 10:24 3,6 C 94 % 1009,3 hPa 0,0 l/m 0,0 km/h (0 Bft) S-SO 151 0 min 0,000 mm 0,7 UV-I 147 W/m 2,7 C 3,6 C 0,0 km/h (0 Bft) 96,30 %
02.03.2016 10:25 3,7 C 94 % 1009,2 hPa 0,0 l/m 0,3 km/h (0 Bft) S-SO 151 0 min 0,000 mm 0,7 UV-I 148 W/m 2,8 C 3,7 C 1,6 km/h (1 Bft) 100,00 %
02.03.2016 10:26 3,7 C 94 % 1009,2 hPa 0,0 l/m 0,0 km/h (0 Bft) S-SO 151 0 min 0,000 mm 0,7 UV-I 149 W/m 2,8 C 3,7 C 0,0 km/h (0 Bft) 100,00 %
02.03.2016 10:27 3,7 C 94 % 1009,2 hPa 0,0 l/m 0,7 km/h (0 Bft) S-SO 151 0 min 0,000 mm 0,7 UV-I 145 W/m 2,8 C 3,7 C 1,6 km/h (1 Bft) 95,65 %
02.03.2016 10:28 3,7 C 94 % 1009,2 hPa 0,0 l/m 0,3 km/h (0 Bft) S-SO 151 0 min 0,000 mm 0,7 UV-I 144 W/m 2,8 C 3,7 C 1,6 km/h (1 Bft) 100,00 %
02.03.2016 10:29 3,8 C 94 % 1009,2 hPa 0,0 l/m 0,0 km/h (0 Bft) S-SO 151 0 min 0,000 mm 0,7 UV-I 149 W/m 2,9 C 3,8 C 0,0 km/h (0 Bft) 100,00 %
02.03.2016 10:30 3,8 C 93 % 1009,2 hPa 0,0 l/m 0,0 km/h (0 Bft) S-SO 151 0 min 0,000 mm 0,7 UV-I 165 W/m 2,8 C 3,8 C 0,0 km/h (0 Bft) 100,00 %
02.03.2016 10:31 3,9 C 94 % 1009,2 hPa 0,0 l/m 0,1 km/h (0 Bft) S-SO 151 0 min 0,000 mm 0,8 UV-I 178 W/m 3,0 C 3,9 C 1,6 km/h (1 Bft) 100,00 %
02.03.2016 10:32 3,9 C 94 % 1009,2 hPa 0,0 l/m 1,6 km/h (1 Bft) S-SO 151 0 min 0,000 mm 0,8 UV-I 180 W/m 3,0 C 3,9 C 3,2 km/h (1 Bft) 100,00 %
02.03.2016 10:33 3,9 C 94 % 1009,1 hPa 0,0 l/m 2,0 km/h (1 Bft) S-SO 151 0 min 0,000 mm 0,8 UV-I 173 W/m 3,0 C 3,9 C 3,2 km/h (1 Bft) 100,00 %
02.03.2016 10:34 4,0 C 94 % 1009,1 hPa 0,0 l/m 0,9 km/h (0 Bft) S-SO 151 0 min 0,000 mm 0,8 UV-I 164 W/m 3,1 C 4,0 C 1,6 km/h (1 Bft) 100,00 %
02.03.2016 10:35 4,1 C 94 % 1009,1 hPa 0,0 l/m 1,9 km/h (1 Bft) S-SO 151 0 min 0,000 mm 0,8 UV-I 156 W/m 3,2 C 4,1 C 3,2 km/h (1 Bft) 100,00 %
02.03.2016 10:36 4,1 C 94 % 1009,1 hPa 0,0 l/m 2,1 km/h (1 Bft) O 89 0 min 0,000 mm 0,8 UV-I 154 W/m 3,2 C 4,1 C 3,2 km/h (1 Bft) 100,00 %
02.03.2016 10:37 4,2 C 94 % 1009,1 hPa 0,0 l/m 2,2 km/h (1 Bft) O-NO 78 0 min 0,000 mm 0,7 UV-I 150 W/m 3,3 C 4,2 C 3,2 km/h (1 Bft) 100,00 %
02.03.2016 10:38 4,2 C 93 % 1009,1 hPa 0,0 l/m 1,2 km/h (1 Bft) O-NO 78 0 min 0,000 mm 0,7 UV-I 148 W/m 3,2 C 4,2 C 3,2 km/h (1 Bft) 96,55 %
02.03.2016 10:39 4,2 C 93 % 1009,1 hPa 0,0 l/m 0,9 km/h (0 Bft) O-NO 78 0 min 0,000 mm 0,7 UV-I 149 W/m 3,2 C 4,2 C 1,6 km/h (1 Bft) 100,00 %
02.03.2016 10:40 4,2 C 93 % 1009,1 hPa 0,0 l/m 2,1 km/h (1 Bft) O-NO 78 0 min 0,000 mm 0,7 UV-I 146 W/m 3,2 C 4,2 C 3,2 km/h (1 Bft) 100,00 %
02.03.2016 10:41 4,2 C 93 % 1009,1 hPa 0,0 l/m 1,8 km/h (1 Bft) O-NO 78 0 min 0,000 mm 0,7 UV-I 144 W/m 3,2 C 4,2 C 3,2 km/h (1 Bft) 100,00 %
02.03.2016 10:42 4,2 C 93 % 1009,1 hPa 0,0 l/m 3,3 km/h (1 Bft) NO 53 0 min 0,000 mm 0,7 UV-I 140 W/m 3,2 C 4,2 C 4,8 km/h (1 Bft) 100,00 %
02.03.2016 10:43 4,2 C 93 % 1009,0 hPa 0,0 l/m 3,5 km/h (1 Bft) NO 53 0 min 0,000 mm 0,7 UV-I 137 W/m 3,2 C 4,2 C 4,8 km/h (1 Bft) 100,00 %
02.03.2016 10:44 4,2 C 93 % 1009,0 hPa 0,2 l/m 3,4 km/h (1 Bft) NO 53 0 min 0,000 mm 0,7 UV-I 134 W/m 3,2 C 4,2 C 4,8 km/h (1 Bft) 100,00 %
02.03.2016 10:45 4,2 C 92 % 1009,0 hPa 0,0 l/m 3,5 km/h (1 Bft) NO 53 0 min 0,000 mm 0,7 UV-I 131 W/m 3,0 C 4,2 C 4,8 km/h (1 Bft) 100,00 %
02.03.2016 10:46 4,2 C 93 % 1009,0 hPa 0,0 l/m 3,8 km/h (1 Bft) N-NO 32 0 min 0,000 mm 0,7 UV-I 127 W/m 3,2 C 4,2 C 4,8 km/h (1 Bft) 100,00 %
02.03.2016 10:47 4,2 C 94 % 1009,0 hPa 0,0 l/m 2,5 km/h (1 Bft) NO 34 0 min 0,000 mm 0,6 UV-I 120 W/m 3,3 C 4,2 C 4,8 km/h (1 Bft) 100,00 %
02.03.2016 10:48 4,3 C 93 % 1008,9 hPa 0,0 l/m 3,8 km/h (1 Bft) NO 47 0 min 0,000 mm 0,6 UV-I 117 W/m 3,3 C 4,3 C 4,8 km/h (1 Bft) 96,15 %
02.03.2016 10:49 4,2 C 93 % 1008,9 hPa 0,0 l/m 4,4 km/h (1 Bft) NO 47 0 min 0,000 mm 0,6 UV-I 116 W/m 3,2 C 4,2 C 4,8 km/h (1 Bft) 100,00 %
02.03.2016 10:50 4,2 C 94 % 1008,9 hPa 0,0 l/m 4,8 km/h (1 Bft) NO 47 0 min 0,000 mm 0,6 UV-I 116 W/m 3,3 C 4,2 C 6,4 km/h (2 Bft) 100,00 %
02.03.2016 10:51 4,3 C 94 % 1008,9 hPa 0,0 l/m 4,5 km/h (1 Bft) NO 46 0 min 0,000 mm 0,6 UV-I 118 W/m 3,4 C 4,3 C 6,4 km/h (2 Bft) 100,00 %
02.03.2016 10:52 4,2 C 93 % 1008,8 hPa 0,0 l/m 4,1 km/h (1 Bft) NO 46 0 min 0,000 mm 0,6 UV-I 116 W/m 3,2 C 4,2 C 6,4 km/h (2 Bft) 96,15 %
02.03.2016 10:53 4,2 C 93 % 1008,9 hPa 0,0 l/m 3,6 km/h (1 Bft) NO 46 0 min 0,000 mm 0,6 UV-I 114 W/m 3,2 C 4,2 C 4,8 km/h (1 Bft) 100,00 %
02.03.2016 10:54 4,2 C 93 % 1008,8 hPa 0,0 l/m 4,8 km/h (1 Bft) NO 46 0 min 0,000 mm 0,6 UV-I 112 W/m 3,2 C 4,2 C 6,4 km/h (2 Bft) 100,00 %
02.03.2016 10:55 4,2 C 93 % 1008,8 hPa 0,0 l/m 5,8 km/h (2 Bft) NO 43 0 min 0,000 mm 0,6 UV-I 111 W/m 3,2 C 4,2 C 6,4 km/h (2 Bft) 100,00 %
02.03.2016 10:56 4,2 C 94 % 1008,8 hPa 0,0 l/m 3,5 km/h (1 Bft) NO 43 0 min 0,000 mm 0,6 UV-I 110 W/m 3,3 C 4,2 C 4,8 km/h (1 Bft) 100,00 %
02.03.2016 10:57 4,2 C 94 % 1008,7 hPa 0,0 l/m 4,9 km/h (1 Bft) NO 43 0 min 0,000 mm 0,6 UV-I 109 W/m 3,3 C 4,2 C 6,4 km/h (2 Bft) 100,00 %
02.03.2016 10:58 4,2 C 94 % 1008,7 hPa 0,0 l/m 3,6 km/h (1 Bft) NO 43 0 min 0,000 mm 0,6 UV-I 105 W/m 3,3 C 4,2 C 4,8 km/h (1 Bft) 100,00 %
02.03.2016 10:59 4,2 C 94 % 1008,7 hPa 0,0 l/m 3,0 km/h (1 Bft) NO 43 0 min 0,000 mm 0,6 UV-I 102 W/m 3,3 C 4,2 C 4,8 km/h (1 Bft) 100,00 %
02.03.2016 11:00 4,2 C 94 % 1008,7 hPa 0,0 l/m 2,7 km/h (1 Bft) NO 43 0 min 0,051 mm 0,6 UV-I 100 W/m 3,3 C 4,2 C 4,8 km/h (1 Bft) 100,00 %
02.03.2016 11:01 4,3 C 94 % 1008,7 hPa 0,0 l/m 3,8 km/h (1 Bft) NO 43 0 min 0,000 mm 0,6 UV-I 101 W/m 3,4 C 4,3 C 4,8 km/h (1 Bft) 95,83 %
02.03.2016 11:02 4,3 C 94 % 1008,7 hPa 0,0 l/m 4,6 km/h (1 Bft) O-NO 63 0 min 0,000 mm 0,6 UV-I 105 W/m 3,4 C 4,3 C 4,8 km/h (1 Bft) 100,00 %
02.03.2016 11:03 4,3 C 94 % 1008,6 hPa 0,0 l/m 4,2 km/h (1 Bft) O-NO 63 0 min 0,000 mm 0,6 UV-I 106 W/m 3,4 C 4,3 C 6,4 km/h (2 Bft) 100,00 %
02.03.2016 11:04 4,3 C 93 % 1008,6 hPa 0,0 l/m 3,4 km/h (1 Bft) O-NO 63 0 min 0,000 mm 0,6 UV-I 102 W/m 3,3 C 4,3 C 4,8 km/h (1 Bft) 100,00 %
02.03.2016 11:05 4,3 C 93 % 1008,6 hPa 0,0 l/m 3,5 km/h (1 Bft) O-NO 63 0 min 0,000 mm 0,6 UV-I 105 W/m 3,3 C 4,3 C 4,8 km/h (1 Bft) 100,00 %
02.03.2016 11:06 4,3 C 93 % 1008,6 hPa 0,0 l/m 3,4 km/h (1 Bft) O-NO 63 0 min 0,000 mm 0,6 UV-I 106 W/m 3,3 C 4,3 C 4,8 km/h (1 Bft) 100,00 %
02.03.2016 11:07 4,3 C 93 % 1008,6 hPa 0,0 l/m 4,2 km/h (1 Bft) O-NO 63 0 min 0,000 mm 0,6 UV-I 102 W/m 3,3 C 4,3 C 4,8 km/h (1 Bft) 100,00 %
02.03.2016 11:08 4,3 C 93 % 1008,6 hPa 0,0 l/m 3,2 km/h (1 Bft) O-NO 63 0 min 0,000 mm 0,6 UV-I 96 W/m 3,3 C 4,3 C 4,8 km/h (1 Bft) 100,00 %
02.03.2016 11:09 4,3 C 94 % 1008,6 hPa 0,0 l/m 4,3 km/h (1 Bft) SO 126 0 min 0,000 mm 0,6 UV-I 93 W/m 3,4 C 4,3 C 6,4 km/h (2 Bft) 96,15 %
02.03.2016 11:10 4,4 C 94 % 1008,6 hPa 0,0 l/m 3,4 km/h (1 Bft) O-SO 105 0 min 0,000 mm 0,6 UV-I 98 W/m 3,5 C 4,4 C 6,4 km/h (2 Bft) 100,00 %
02.03.2016 11:11 4,4 C 94 % 1008,6 hPa 0,0 l/m 7,8 km/h (2 Bft) O-SO 111 0 min 0,000 mm 0,6 UV-I 105 W/m 3,5 C 3,1 C 9,7 km/h (2 Bft) 95,65 %
02.03.2016 11:12 4,4 C 94 % 1008,6 hPa 0,0 l/m 7,7 km/h (2 Bft) O-SO 107 0 min 0,000 mm 0,6 UV-I 108 W/m 3,5 C 3,2 C 11,3 km/h (2 Bft) 100,00 %
02.03.2016 11:13 4,4 C 94 % 1008,5 hPa 0,0 l/m 7,4 km/h (2 Bft) O 92 0 min 0,000 mm 0,6 UV-I 110 W/m 3,5 C 3,5 C 11,3 km/h (2 Bft) 100,00 %
02.03.2016 11:14 4,4 C 94 % 1008,5 hPa 0,0 l/m 8,5 km/h (2 Bft) O 84 0 min 0,000 mm 0,6 UV-I 111 W/m 3,5 C 2,6 C 11,3 km/h (2 Bft) 100,00 %
02.03.2016 11:15 4,5 C 94 % 1008,5 hPa 0,0 l/m 5,2 km/h (1 Bft) O 92 0 min 0,000 mm 0,6 UV-I 111 W/m 3,6 C 4,5 C 11,3 km/h (2 Bft) 98,69 %
02.03.2016 11:16 4,5 C 94 % 1008,5 hPa 0,0 l/m 2,7 km/h (1 Bft) S-SO 159 0 min 0,000 mm 0,6 UV-I 108 W/m 3,6 C 4,5 C 6,4 km/h (2 Bft) 100,00 %
02.03.2016 11:17 4,5 C 94 % 1008,4 hPa 0,0 l/m 3,5 km/h (1 Bft) O-SO 117 0 min 0,000 mm 0,6 UV-I 105 W/m 3,6 C 4,5 C 4,8 km/h (1 Bft) 96,30 %
02.03.2016 11:18 4,4 C 94 % 1008,4 hPa 0,0 l/m 2,8 km/h (1 Bft) SO 124 0 min 0,000 mm 0,6 UV-I 108 W/m 3,5 C 4,4 C 4,8 km/h (1 Bft) 100,00 %
02.03.2016 11:19 4,4 C 94 % 1008,5 hPa 0,0 l/m 3,1 km/h (1 Bft) O 95 0 min 0,000 mm 0,6 UV-I 113 W/m 3,5 C 4,4 C 4,8 km/h (1 Bft) 100,00 %
02.03.2016 11:20 4,5 C 94 % 1008,4 hPa 0,0 l/m 4,7 km/h (1 Bft) O 95 0 min 0,000 mm 0,6 UV-I 117 W/m 3,6 C 4,5 C 6,4 km/h (2 Bft) 96,15 %
02.03.2016 11:21 4,5 C 94 % 1008,4 hPa 0,0 l/m 4,3 km/h (1 Bft) O 86 0 min 0,000 mm 0,6 UV-I 123 W/m 3,6 C 4,5 C 6,4 km/h (2 Bft) 100,00 %
02.03.2016 11:22 4,5 C 94 % 1008,4 hPa 0,0 l/m 4,1 km/h (1 Bft) O 86 0 min 0,000 mm 0,6 UV-I 125 W/m 3,6 C 4,5 C 4,8 km/h (1 Bft) 100,00 %
02.03.2016 11:23 4,5 C 94 % 1008,4 hPa 0,0 l/m 3,2 km/h (1 Bft) O 88 0 min 0,000 mm 0,6 UV-I 123 W/m 3,6 C 4,5 C 6,4 km/h (2 Bft) 100,00 %
02.03.2016 11:24 4,6 C 94 % 1008,4 hPa 0,0 l/m 3,8 km/h (1 Bft) O 90 0 min 0,000 mm 0,6 UV-I 119 W/m 3,7 C 4,6 C 4,8 km/h (1 Bft) 100,00 %
02.03.2016 11:25 4,6 C 94 % 1008,3 hPa 0,0 l/m 5,1 km/h (1 Bft) O-SO 110 0 min 0,000 mm 0,6 UV-I 113 W/m 3,7 C 4,6 C 6,4 km/h (2 Bft) 100,00 %
02.03.2016 11:26 4,7 C 94 % 1008,3 hPa 0,0 l/m 4,5 km/h (1 Bft) O-SO 110 0 min 0,000 mm 0,6 UV-I 109 W/m 3,8 C 4,7 C 6,4 km/h (2 Bft) 95,65 %
02.03.2016 11:27 4,7 C 94 % 1008,4 hPa 0,0 l/m 3,7 km/h (1 Bft) O-SO 109 0 min 0,000 mm 0,6 UV-I 105 W/m 3,8 C 4,7 C 4,8 km/h (1 Bft) 100,00 %
02.03.2016 11:28 4,7 C 94 % 1008,3 hPa 0,0 l/m 3,2 km/h (1 Bft) O-SO 109 0 min 0,000 mm 0,6 UV-I 105 W/m 3,8 C 4,7 C 4,8 km/h (1 Bft) 100,00 %
02.03.2016 11:29 4,8 C 94 % 1008,3 hPa 0,0 l/m 3,5 km/h (1 Bft) O-SO 109 0 min 0,000 mm 0,6 UV-I 105 W/m 3,9 C 4,8 C 4,8 km/h (1 Bft) 95,83 %
02.03.2016 11:30 4,8 C 94 % 1008,3 hPa 0,0 l/m 4,8 km/h (1 Bft) O-NO 72 0 min 0,000 mm 0,6 UV-I 106 W/m 3,9 C 4,8 C 8,0 km/h (2 Bft) 100,00 %
02.03.2016 11:31 4,8 C 93 % 1008,3 hPa 0,0 l/m 4,8 km/h (1 Bft) O-NO 69 0 min 0,000 mm 0,6 UV-I 107 W/m 3,8 C 4,8 C 6,4 km/h (2 Bft) 100,00 %
02.03.2016 11:32 4,8 C 93 % 1008,3 hPa 0,0 l/m 3,6 km/h (1 Bft) O-NO 73 0 min 0,000 mm 0,6 UV-I 112 W/m 3,8 C 4,8 C 6,4 km/h (2 Bft) 100,00 %
02.03.2016 11:33 4,8 C 93 % 1008,3 hPa 0,0 l/m 3,4 km/h (1 Bft) O-SO 110 0 min 0,000 mm 0,7 UV-I 122 W/m 3,8 C 4,8 C 4,8 km/h (1 Bft) 95,65 %
02.03.2016 11:34 4,8 C 93 % 1008,3 hPa 0,0 l/m 3,6 km/h (1 Bft) SO 132 0 min 0,000 mm 0,7 UV-I 128 W/m 3,8 C 4,8 C 6,4 km/h (2 Bft) 100,00 %
02.03.2016 11:35 4,8 C 93 % 1008,1 hPa 0,0 l/m 4,2 km/h (1 Bft) O-SO 116 0 min 0,000 mm 0,7 UV-I 125 W/m 3,8 C 4,8 C 4,8 km/h (1 Bft) 95,65 %
02.03.2016 11:36 4,8 C 94 % 1008,1 hPa 0,0 l/m 9,6 km/h (2 Bft) O 97 0 min 0,000 mm 0,7 UV-I 116 W/m 3,9 C 2,1 C 12,9 km/h (3 Bft) 95,83 %
02.03.2016 11:37 4,8 C 94 % 1008,1 hPa 0,0 l/m 6,2 km/h (2 Bft) O-NO 72 0 min 0,000 mm 0,7 UV-I 115 W/m 3,9 C 4,8 C 9,7 km/h (2 Bft) 100,00 %
02.03.2016 11:38 4,8 C 94 % 1008,1 hPa 0,0 l/m 7,2 km/h (2 Bft) O-SO 108 0 min 0,000 mm 0,7 UV-I 120 W/m 3,9 C 4,1 C 9,7 km/h (2 Bft) 91,67 %
02.03.2016 11:39 4,8 C 94 % 1008,1 hPa 0,0 l/m 5,7 km/h (1 Bft) O 80 0 min 0,000 mm 0,7 UV-I 127 W/m 3,9 C 4,8 C 8,0 km/h (2 Bft) 100,00 %
02.03.2016 11:40 4,8 C 94 % 1008,0 hPa 0,0 l/m 5,0 km/h (1 Bft) O 91 0 min 0,000 mm 0,7 UV-I 128 W/m 3,9 C 4,8 C 9,7 km/h (2 Bft) 96,30 %
02.03.2016 11:41 4,8 C 94 % 1007,9 hPa 0,0 l/m 5,8 km/h (2 Bft) O 80 0 min 0,000 mm 0,7 UV-I 121 W/m 3,9 C 4,8 C 11,3 km/h (2 Bft) 100,00 %
02.03.2016 11:42 4,7 C 94 % 1007,9 hPa 0,0 l/m 7,2 km/h (2 Bft) O-NO 76 0 min 0,000 mm 0,7 UV-I 118 W/m 3,8 C 4,0 C 11,3 km/h (2 Bft) 95,83 %
02.03.2016 11:43 4,8 C 94 % 1007,9 hPa 0,0 l/m 6,8 km/h (2 Bft) O 80 0 min 0,000 mm 0,7 UV-I 120 W/m 3,9 C 4,5 C 11,3 km/h (2 Bft) 96,15 %
02.03.2016 11:44 4,7 C 94 % 1007,9 hPa 0,0 l/m 7,4 km/h (2 Bft) O 101 0 min 0,000 mm 0,7 UV-I 123 W/m 3,8 C 3,8 C 11,3 km/h (2 Bft) 95,83 %
02.03.2016 11:45 4,7 C 94 % 1007,9 hPa 0,0 l/m 7,0 km/h (2 Bft) O-SO 111 0 min 0,000 mm 0,7 UV-I 121 W/m 3,8 C 4,2 C 11,3 km/h (2 Bft) 95,65 %
02.03.2016 11:46 4,8 C 94 % 1007,9 hPa 0,0 l/m 3,8 km/h (1 Bft) O 97 0 min 0,000 mm 0,7 UV-I 121 W/m 3,9 C 4,8 C 4,8 km/h (1 Bft) 100,00 %
02.03.2016 11:47 4,7 C 94 % 1007,9 hPa 0,0 l/m 3,5 km/h (1 Bft) O 97 0 min 0,000 mm 0,7 UV-I 128 W/m 3,8 C 4,7 C 4,8 km/h (1 Bft) 96,15 %
02.03.2016 11:48 4,8 C 94 % 1007,9 hPa 0,0 l/m 1,4 km/h (1 Bft) O 92 0 min 0,000 mm 0,7 UV-I 130 W/m 3,9 C 4,8 C 4,8 km/h (1 Bft) 100,00 %
02.03.2016 11:49 4,8 C 94 % 1007,9 hPa 0,0 l/m 3,9 km/h (1 Bft) O 91 0 min 0,000 mm 0,7 UV-I 126 W/m 3,9 C 4,8 C 4,8 km/h (1 Bft) 92,31 %
02.03.2016 11:50 4,8 C 94 % 1007,8 hPa 0,0 l/m 6,9 km/h (2 Bft) O-SO 112 0 min 0,000 mm 0,7 UV-I 127 W/m 3,9 C 4,4 C 9,7 km/h (2 Bft) 96,30 %
02.03.2016 11:51 4,8 C 94 % 1007,8 hPa 0,0 l/m 4,9 km/h (1 Bft) O 91 0 min 0,000 mm 0,7 UV-I 130 W/m 3,9 C 4,8 C 6,4 km/h (2 Bft) 93,33 %
02.03.2016 11:52 4,8 C 94 % 1007,8 hPa 0,0 l/m 5,9 km/h (2 Bft) O 98 0 min 0,000 mm 0,8 UV-I 134 W/m 3,9 C 4,8 C 9,7 km/h (2 Bft) 92,31 %
02.03.2016 11:53 4,9 C 94 % 1007,7 hPa 0,0 l/m 5,6 km/h (1 Bft) O-SO 114 0 min 0,000 mm 0,8 UV-I 133 W/m 4,0 C 4,9 C 6,4 km/h (2 Bft) 96,55 %
02.03.2016 11:54 4,9 C 94 % 1007,7 hPa 0,0 l/m 6,6 km/h (2 Bft) O-SO 105 0 min 0,000 mm 0,8 UV-I 129 W/m 4,0 C 4,7 C 9,7 km/h (2 Bft) 95,83 %
02.03.2016 11:55 4,9 C 94 % 1007,7 hPa 0,0 l/m 5,6 km/h (1 Bft) S-SO 155 0 min 0,000 mm 0,8 UV-I 122 W/m 4,0 C 4,9 C 6,4 km/h (2 Bft) 100,00 %
02.03.2016 11:56 4,9 C 94 % 1007,7 hPa 0,0 l/m 7,2 km/h (2 Bft) SO 125 0 min 0,000 mm 0,8 UV-I 121 W/m 4,0 C 4,2 C 9,7 km/h (2 Bft) 96,15 %
02.03.2016 11:57 4,9 C 94 % 1007,6 hPa 0,0 l/m 6,4 km/h (2 Bft) SO 133 0 min 0,000 mm 0,8 UV-I 134 W/m 4,0 C 4,9 C 11,3 km/h (2 Bft) 100,00 %
02.03.2016 11:58 4,9 C 93 % 1007,6 hPa 0,0 l/m 8,0 km/h (2 Bft) SO 128 0 min 0,000 mm 0,9 UV-I 152 W/m 3,9 C 3,5 C 12,9 km/h (3 Bft) 95,65 %
02.03.2016 11:59 4,9 C 94 % 1007,6 hPa 0,0 l/m 7,8 km/h (2 Bft) SO 134 0 min 0,000 mm 1,0 UV-I 170 W/m 4,0 C 3,7 C 11,3 km/h (2 Bft) 100,00 %
02.03.2016 12:00 4,9 C 93 % 1007,5 hPa 0,0 l/m 8,0 km/h (2 Bft) SO 144 0 min 0,000 mm 1,1 UV-I 182 W/m 3,9 C 3,5 C 11,3 km/h (2 Bft) 92,86 %
02.03.2016 12:01 4,9 C 93 % 1007,5 hPa 0,0 l/m 4,7 km/h (1 Bft) O-SO 119 0 min 0,050 mm 1,2 UV-I 192 W/m 3,9 C 4,9 C 6,4 km/h (2 Bft) 96,30 %
02.03.2016 12:02 4,9 C 94 % 1007,5 hPa 0,0 l/m 8,0 km/h (2 Bft) O 101 0 min 0,000 mm 1,2 UV-I 206 W/m 4,0 C 3,5 C 9,7 km/h (2 Bft) 96,55 %
02.03.2016 12:03 4,9 C 94 % 1007,5 hPa 0,0 l/m 6,3 km/h (2 Bft) O 96 0 min 0,000 mm 1,3 UV-I 234 W/m 4,0 C 4,9 C 11,3 km/h (2 Bft) 100,00 %
02.03.2016 12:04 4,9 C 94 % 1007,5 hPa 0,0 l/m 7,9 km/h (2 Bft) O-SO 107 0 min 0,000 mm 1,4 UV-I 255 W/m 4,0 C 3,6 C 11,3 km/h (2 Bft) 96,15 %
02.03.2016 12:05 5,0 C 94 % 1007,5 hPa 0,0 l/m 7,2 km/h (2 Bft) SO 128 0 min 0,000 mm 1,4 UV-I 270 W/m 4,1 C 4,3 C 11,3 km/h (2 Bft) 92,59 %
02.03.2016 12:06 5,1 C 93 % 1007,4 hPa 0,0 l/m 3,4 km/h (1 Bft) O-SO 118 0 min 0,000 mm 1,4 UV-I 285 W/m 4,1 C 5,1 C 6,4 km/h (2 Bft) 100,00 %
02.03.2016 12:07 5,1 C 93 % 1007,4 hPa 0,0 l/m 5,8 km/h (2 Bft) O 92 0 min 0,000 mm 1,5 UV-I 317 W/m 4,1 C 5,1 C 9,7 km/h (2 Bft) 91,67 %
02.03.2016 12:08 5,2 C 94 % 1007,3 hPa 0,0 l/m 8,4 km/h (2 Bft) O 98 0 min 0,000 mm 1,6 UV-I 312 W/m 4,3 C 3,5 C 11,3 km/h (2 Bft) 96,55 %
02.03.2016 12:09 5,2 C 94 % 1007,3 hPa 0,0 l/m 6,1 km/h (2 Bft) O-SO 105 1 min 0,000 mm 1,7 UV-I 334 W/m 4,3 C 5,2 C 9,7 km/h (2 Bft) 95,83 %
02.03.2016 12:10 5,3 C 94 % 1007,3 hPa 0,0 l/m 6,2 km/h (2 Bft) O-NO 76 1 min 0,000 mm 1,6 UV-I 343 W/m 4,4 C 5,3 C 8,0 km/h (2 Bft) 100,00 %
02.03.2016 12:11 5,3 C 94 % 1007,3 hPa 0,0 l/m 5,8 km/h (2 Bft) O 86 0 min 0,000 mm 1,5 UV-I 303 W/m 4,4 C 5,3 C 8,0 km/h (2 Bft) 100,00 %
02.03.2016 12:12 5,4 C 94 % 1007,3 hPa 0,0 l/m 5,6 km/h (1 Bft) O-SO 110 0 min 0,000 mm 1,4 UV-I 261 W/m 4,5 C 5,4 C 9,7 km/h (2 Bft) 100,00 %
02.03.2016 12:13 5,4 C 94 % 1007,2 hPa 0,0 l/m 5,4 km/h (1 Bft) O-NO 76 0 min 0,000 mm 1,2 UV-I 227 W/m 4,5 C 5,4 C 8,0 km/h (2 Bft) 100,00 %
02.03.2016 12:14 5,5 C 94 % 1007,2 hPa 0,0 l/m 4,3 km/h (1 Bft) O 101 0 min 0,000 mm 1,1 UV-I 205 W/m 4,6 C 5,5 C 6,4 km/h (2 Bft) 91,67 %
02.03.2016 12:15 5,6 C 94 % 1007,2 hPa 0,0 l/m 4,8 km/h (1 Bft) O 83 0 min 0,000 mm 1,1 UV-I 203 W/m 4,7 C 5,6 C 9,7 km/h (2 Bft) 100,00 %
02.03.2016 12:16 5,6 C 94 % 1007,1 hPa 0,0 l/m 5,1 km/h (1 Bft) O-NO 66 0 min 0,000 mm 1,1 UV-I 214 W/m 4,7 C 5,6 C 6,4 km/h (2 Bft) 96,30 %
02.03.2016 12:17 5,6 C 93 % 1007,1 hPa 0,0 l/m 5,2 km/h (1 Bft) O-NO 65 0 min 0,000 mm 1,2 UV-I 244 W/m 4,6 C 5,6 C 8,0 km/h (2 Bft) 100,00 %
02.03.2016 12:18 5,6 C 93 % 1007,1 hPa 0,0 l/m 6,2 km/h (2 Bft) O-NO 64 0 min 0,000 mm 1,4 UV-I 276 W/m 4,6 C 5,6 C 8,0 km/h (2 Bft) 100,00 %
02.03.2016 12:19 5,7 C 92 % 1007,0 hPa 0,0 l/m 7,1 km/h (2 Bft) O-NO 65 0 min 0,000 mm 1,4 UV-I 306 W/m 4,5 C 5,1 C 9,7 km/h (2 Bft) 92,31 %
02.03.2016 12:20 5,7 C 93 % 1007,0 hPa 0,0 l/m 9,6 km/h (2 Bft) O 94 0 min 0,000 mm 1,4 UV-I 311 W/m 4,7 C 3,1 C 12,9 km/h (3 Bft) 100,00 %
02.03.2016 12:21 5,7 C 92 % 1007,0 hPa 0,0 l/m 7,6 km/h (2 Bft) O-SO 110 0 min 0,000 mm 1,4 UV-I 298 W/m 4,5 C 4,7 C 11,3 km/h (2 Bft) 100,00 %
02.03.2016 12:22 5,7 C 93 % 1007,0 hPa 0,0 l/m 8,0 km/h (2 Bft) O-SO 114 0 min 0,000 mm 1,4 UV-I 314 W/m 4,7 C 4,3 C 11,3 km/h (2 Bft) 100,00 %
02.03.2016 12:23 5,7 C 93 % 1006,9 hPa 0,0 l/m 10,7 km/h (2 Bft) O-SO 120 1 min 0,000 mm 1,5 UV-I 334 W/m 4,7 C 2,4 C 12,9 km/h (3 Bft) 100,00 %
02.03.2016 12:24 5,8 C 93 % 1006,9 hPa 0,0 l/m 12,3 km/h (3 Bft) O 80 0 min 0,000 mm 1,4 UV-I 309 W/m 4,8 C 1,5 C 16,1 km/h (3 Bft) 100,00 %
02.03.2016 12:25 5,8 C 93 % 1006,9 hPa 0,0 l/m 12,4 km/h (3 Bft) O 93 0 min 0,000 mm 1,4 UV-I 271 W/m 4,8 C 1,4 C 16,1 km/h (3 Bft) 96,15 %
02.03.2016 12:26 5,8 C 93 % 1006,9 hPa 0,0 l/m 11,9 km/h (2 Bft) O-SO 119 0 min 0,000 mm 1,3 UV-I 243 W/m 4,8 C 1,7 C 14,5 km/h (3 Bft) 100,00 %
02.03.2016 12:27 5,8 C 92 % 1006,9 hPa 0,0 l/m 8,7 km/h (2 Bft) SO 126 0 min 0,000 mm 1,2 UV-I 231 W/m 4,6 C 3,9 C 11,3 km/h (2 Bft) 100,00 %
02.03.2016 12:28 5,8 C 92 % 1007,0 hPa 0,0 l/m 11,3 km/h (2 Bft) O-SO 113 0 min 0,000 mm 1,2 UV-I 233 W/m 4,6 C 2,1 C 14,5 km/h (3 Bft) 100,00 %
02.03.2016 12:29 5,9 C 92 % 1007,0 hPa 0,0 l/m 12,3 km/h (3 Bft) O-SO 117 0 min 0,000 mm 1,2 UV-I 237 W/m 4,7 C 1,6 C 14,5 km/h (3 Bft) 100,00 %
02.03.2016 12:30 5,9 C 92 % 1006,9 hPa 0,0 l/m 10,3 km/h (2 Bft) O 92 0 min 0,000 mm 1,2 UV-I 235 W/m 4,7 C 2,9 C 12,9 km/h (3 Bft) 100,00 %
02.03.2016 12:31 5,9 C 92 % 1006,9 hPa 0,0 l/m 13,3 km/h (3 Bft) O 91 0 min 0,000 mm 1,2 UV-I 228 W/m 4,7 C 1,1 C 16,1 km/h (3 Bft) 100,00 %
02.03.2016 12:32 6,0 C 92 % 1006,8 hPa 0,0 l/m 10,5 km/h (2 Bft) O-NO 61 0 min 0,000 mm 1,2 UV-I 215 W/m 4,8 C 2,8 C 16,1 km/h (3 Bft) 100,00 %
02.03.2016 12:33 5,9 C 91 % 1006,8 hPa 0,0 l/m 10,1 km/h (2 Bft) O 97 0 min 0,000 mm 1,1 UV-I 200 W/m 4,5 C 3,0 C 14,5 km/h (3 Bft) 100,00 %
02.03.2016 12:34 5,9 C 91 % 1006,8 hPa 0,0 l/m 10,5 km/h (2 Bft) O 93 0 min 0,000 mm 1,1 UV-I 187 W/m 4,5 C 2,7 C 14,5 km/h (3 Bft) 96,15 %
02.03.2016 12:35 5,9 C 91 % 1006,8 hPa 0,0 l/m 9,3 km/h (2 Bft) O 96 0 min 0,000 mm 1,0 UV-I 179 W/m 4,5 C 3,6 C 12,9 km/h (3 Bft) 100,00 %
02.03.2016 12:36 5,9 C 91 % 1006,8 hPa 0,0 l/m 7,1 km/h (2 Bft) SO 128 0 min 0,000 mm 1,0 UV-I 175 W/m 4,5 C 5,3 C 11,3 km/h (2 Bft) 100,00 %
02.03.2016 12:37 5,9 C 91 % 1006,8 hPa 0,0 l/m 10,3 km/h (2 Bft) O-NO 67 0 min 0,000 mm 1,0 UV-I 176 W/m 4,5 C 2,9 C 12,9 km/h (3 Bft) 96,30 %
02.03.2016 12:38 5,9 C 92 % 1006,7 hPa 0,0 l/m 8,5 km/h (2 Bft) O 101 0 min 0,000 mm 1,0 UV-I 188 W/m 4,7 C 4,2 C 12,9 km/h (3 Bft) 100,00 %
02.03.2016 12:39 5,9 C 92 % 1006,7 hPa 0,0 l/m 10,5 km/h (2 Bft) SO 128 0 min 0,000 mm 1,1 UV-I 205 W/m 4,7 C 2,7 C 14,5 km/h (3 Bft) 100,00 %
02.03.2016 12:40 5,9 C 92 % 1006,6 hPa 0,0 l/m 11,4 km/h (2 Bft) O-SO 113 0 min 0,000 mm 1,2 UV-I 227 W/m 4,7 C 2,2 C 14,5 km/h (3 Bft) 100,00 %
02.03.2016 12:41 6,0 C 91 % 1006,6 hPa 0,0 l/m 9,3 km/h (2 Bft) S-SO 164 0 min 0,000 mm 1,2 UV-I 246 W/m 4,6 C 3,7 C 12,9 km/h (3 Bft) 100,00 %
02.03.2016 12:42 6,1 C 92 % 1006,5 hPa 0,0 l/m 9,7 km/h (2 Bft) SO 136 0 min 0,000 mm 1,3 UV-I 259 W/m 4,9 C 3,5 C 14,5 km/h (3 Bft) 100,00 %
02.03.2016 12:43 6,1 C 92 % 1006,5 hPa 0,0 l/m 9,3 km/h (2 Bft) S-SO 148 0 min 0,000 mm 1,4 UV-I 266 W/m 4,9 C 3,8 C 12,9 km/h (3 Bft) 100,00 %
02.03.2016 12:44 6,2 C 92 % 1006,5 hPa 0,0 l/m 9,3 km/h (2 Bft) SO 144 0 min 0,000 mm 1,4 UV-I 279 W/m 5,0 C 3,9 C 12,9 km/h (3 Bft) 97,56 %
02.03.2016 12:45 6,2 C 91 % 1006,4 hPa 0,0 l/m 10,3 km/h (2 Bft) O-SO 112 0 min 0,000 mm 1,4 UV-I 262 W/m 4,8 C 3,2 C 12,9 km/h (3 Bft) 100,00 %
02.03.2016 12:46 6,2 C 91 % 1006,5 hPa 0,0 l/m 11,8 km/h (2 Bft) SO 126 0 min 0,000 mm 1,3 UV-I 255 W/m 4,8 C 2,3 C 16,1 km/h (3 Bft) 100,00 %
02.03.2016 12:47 6,2 C 90 % 1006,5 hPa 0,0 l/m 7,8 km/h (2 Bft) O-SO 106 0 min 0,000 mm 1,4 UV-I 260 W/m 4,7 C 5,0 C 11,3 km/h (2 Bft) 100,00 %
02.03.2016 12:48 6,3 C 90 % 1006,4 hPa 0,0 l/m 11,7 km/h (2 Bft) O-NO 77 0 min 0,000 mm 1,5 UV-I 279 W/m 4,8 C 2,4 C 14,5 km/h (3 Bft) 96,15 %
02.03.2016 12:49 6,3 C 91 % 1006,4 hPa 0,0 l/m 9,3 km/h (2 Bft) O 89 0 min 0,000 mm 1,6 UV-I 307 W/m 4,9 C 4,0 C 11,3 km/h (2 Bft) 100,00 %
02.03.2016 12:50 6,4 C 91 % 1006,3 hPa 0,0 l/m 7,1 km/h (2 Bft) SO 128 1 min 0,000 mm 1,7 UV-I 363 W/m 5,0 C 5,8 C 11,3 km/h (2 Bft) 96,15 %
02.03.2016 12:51 6,4 C 90 % 1006,3 hPa 0,0 l/m 7,7 km/h (2 Bft) O 95 1 min 0,000 mm 1,7 UV-I 362 W/m 4,9 C 5,3 C 11,3 km/h (2 Bft) 100,00 %
02.03.2016 12:52 6,6 C 90 % 1006,2 hPa 0,0 l/m 6,3 km/h (2 Bft) O-NO 71 1 min 0,000 mm 1,8 UV-I 352 W/m 5,1 C 6,6 C 9,7 km/h (2 Bft) 100,00 %
02.03.2016 12:53 6,6 C 90 % 1006,2 hPa 0,0 l/m 9,0 km/h (2 Bft) O-NO 76 1 min 0,000 mm 1,8 UV-I 411 W/m 5,1 C 4,5 C 14,5 km/h (3 Bft) 100,00 %
02.03.2016 12:54 6,6 C 90 % 1006,1 hPa 0,0 l/m 9,8 km/h (2 Bft) O-NO 71 1 min 0,000 mm 1,9 UV-I 462 W/m 5,1 C 4,0 C 12,9 km/h (3 Bft) 100,00 %
02.03.2016 12:55 6,7 C 90 % 1006,1 hPa 0,0 l/m 5,6 km/h (1 Bft) O-SO 115 1 min 0,000 mm 2,0 UV-I 488 W/m 5,2 C 6,7 C 9,7 km/h (2 Bft) 96,15 %
02.03.2016 12:56 6,7 C 90 % 1006,0 hPa 0,0 l/m 5,3 km/h (1 Bft) O-SO 107 1 min 0,000 mm 2,0 UV-I 499 W/m 5,2 C 6,7 C 11,3 km/h (2 Bft) 100,00 %
02.03.2016 12:57 6,7 C 90 % 1006,0 hPa 0,0 l/m 6,5 km/h (2 Bft) O-NO 74 1 min 0,000 mm 2,0 UV-I 540 W/m 5,2 C 6,6 C 9,7 km/h (2 Bft) 96,15 %
02.03.2016 12:58 6,8 C 91 % 1006,0 hPa 0,0 l/m 8,1 km/h (2 Bft) O-SO 108 1 min 0,000 mm 2,1 UV-I 586 W/m 5,4 C 5,4 C 11,3 km/h (2 Bft) 100,00 %
02.03.2016 12:59 6,9 C 90 % 1006,0 hPa 0,0 l/m 7,3 km/h (2 Bft) O-NO 71 1 min 0,000 mm 2,0 UV-I 542 W/m 5,4 C 6,2 C 12,9 km/h (3 Bft) 100,00 %
02.03.2016 13:00 7,0 C 90 % 1006,0 hPa 0,0 l/m 8,0 km/h (2 Bft) O-SO 111 1 min 0,000 mm 2,1 UV-I 553 W/m 5,5 C 5,7 C 12,9 km/h (3 Bft) 100,00 %
02.03.2016 13:01 7,1 C 90 % 1006,0 hPa 0,0 l/m 7,1 km/h (2 Bft) O-NO 57 1 min 0,127 mm 1,9 UV-I 554 W/m 5,6 C 6,5 C 9,7 km/h (2 Bft) 100,00 %
02.03.2016 13:02 7,2 C 90 % 1005,9 hPa 0,0 l/m 4,2 km/h (1 Bft) O-NO 59 1 min 0,000 mm 1,9 UV-I 429 W/m 5,7 C 7,2 C 6,4 km/h (2 Bft) 100,00 %
02.03.2016 13:03 7,2 C 90 % 1005,9 hPa 0,0 l/m 5,0 km/h (1 Bft) O-NO 72 1 min 0,000 mm 2,0 UV-I 481 W/m 5,7 C 7,2 C 8,0 km/h (2 Bft) 100,00 %
02.03.2016 13:04 7,3 C 90 % 1005,9 hPa 0,0 l/m 4,6 km/h (1 Bft) O-SO 121 1 min 0,000 mm 2,0 UV-I 514 W/m 5,8 C 7,3 C 8,0 km/h (2 Bft) 96,30 %
02.03.2016 13:05 7,3 C 90 % 1005,9 hPa 0,0 l/m 5,9 km/h (2 Bft) O-SO 109 1 min 0,000 mm 2,0 UV-I 510 W/m 5,8 C 7,3 C 11,3 km/h (2 Bft) 100,00 %
02.03.2016 13:06 7,3 C 90 % 1005,8 hPa 0,0 l/m 7,3 km/h (2 Bft) O 90 1 min 0,000 mm 1,9 UV-I 484 W/m 5,8 C 6,6 C 11,3 km/h (2 Bft) 96,67 %
02.03.2016 13:07 7,3 C 90 % 1005,8 hPa 0,0 l/m 9,7 km/h (2 Bft) O-NO 64 1 min 0,000 mm 1,8 UV-I 455 W/m 5,8 C 4,8 C 14,5 km/h (3 Bft) 100,00 %
02.03.2016 13:08 7,4 C 90 % 1005,8 hPa 0,0 l/m 6,7 km/h (2 Bft) O 90 1 min 0,000 mm 2,0 UV-I 478 W/m 5,9 C 7,2 C 11,3 km/h (2 Bft) 100,00 %
02.03.2016 13:09 7,4 C 90 % 1005,7 hPa 0,0 l/m 10,1 km/h (2 Bft) O-NO 58 1 min 0,000 mm 1,9 UV-I 479 W/m 5,9 C 4,7 C 14,5 km/h (3 Bft) 100,00 %
02.03.2016 13:10 7,4 C 88 % 1005,7 hPa 0,0 l/m 9,7 km/h (2 Bft) NO 42 1 min 0,000 mm 1,8 UV-I 451 W/m 5,5 C 4,9 C 14,5 km/h (3 Bft) 100,00 %
02.03.2016 13:11 7,5 C 90 % 1005,7 hPa 0,0 l/m 12,0 km/h (2 Bft) O-NO 60 1 min 0,000 mm 1,9 UV-I 510 W/m 6,0 C 3,6 C 14,5 km/h (3 Bft) 100,00 %
02.03.2016 13:12 7,6 C 89 % 1005,6 hPa 0,0 l/m 10,1 km/h (2 Bft) O-NO 61 1 min 0,000 mm 1,7 UV-I 493 W/m 5,9 C 4,9 C 14,5 km/h (3 Bft) 100,00 %
02.03.2016 13:13 7,6 C 89 % 1005,6 hPa 0,0 l/m 5,9 km/h (2 Bft) NO 38 1 min 0,000 mm 1,7 UV-I 399 W/m 5,9 C 7,6 C 8,0 km/h (2 Bft) 100,00 %
02.03.2016 13:14 7,7 C 90 % 1005,6 hPa 0,0 l/m 10,5 km/h (2 Bft) O-NO 65 1 min 0,000 mm 1,7 UV-I 477 W/m 6,2 C 4,7 C 14,5 km/h (3 Bft) 100,00 %
02.03.2016 13:15 7,7 C 89 % 1005,6 hPa 0,0 l/m 12,6 km/h (3 Bft) O-NO 62 1 min 0,000 mm 1,8 UV-I 467 W/m 6,0 C 3,5 C 17,7 km/h (3 Bft) 100,00 %
02.03.2016 13:16 7,7 C 88 % 1005,6 hPa 0,0 l/m 6,8 km/h (2 Bft) O 79 1 min 0,000 mm 1,7 UV-I 401 W/m 5,8 C 7,4 C 12,9 km/h (3 Bft) 100,00 %
02.03.2016 13:17 7,7 C 88 % 1005,5 hPa 0,0 l/m 8,0 km/h (2 Bft) O 80 1 min 0,000 mm 1,6 UV-I 400 W/m 5,8 C 6,4 C 12,9 km/h (3 Bft) 100,00 %
02.03.2016 13:18 7,7 C 88 % 1005,5 hPa 0,0 l/m 7,6 km/h (2 Bft) O-NO 65 1 min 0,000 mm 1,6 UV-I 378 W/m 5,8 C 6,7 C 12,9 km/h (3 Bft) 100,00 %
02.03.2016 13:19 7,7 C 88 % 1005,5 hPa 0,0 l/m 9,6 km/h (2 Bft) O-NO 68 1 min 0,000 mm 1,6 UV-I 360 W/m 5,8 C 5,3 C 14,5 km/h (3 Bft) 100,00 %
02.03.2016 13:20 7,7 C 89 % 1005,5 hPa 0,0 l/m 10,2 km/h (2 Bft) O-NO 74 1 min 0,000 mm 1,5 UV-I 340 W/m 6,0 C 4,9 C 14,5 km/h (3 Bft) 98,62 %
02.03.2016 13:21 7,7 C 88 % 1005,4 hPa 0,0 l/m 8,4 km/h (2 Bft) O-NO 69 1 min 0,000 mm 1,5 UV-I 328 W/m 5,8 C 6,1 C 12,9 km/h (3 Bft) 100,00 %
02.03.2016 13:22 7,7 C 88 % 1005,4 hPa 0,0 l/m 6,6 km/h (2 Bft) O 87 1 min 0,000 mm 1,4 UV-I 324 W/m 5,8 C 7,6 C 9,7 km/h (2 Bft) 100,00 %
02.03.2016 13:23 7,7 C 88 % 1005,4 hPa 0,0 l/m 8,6 km/h (2 Bft) O-NO 63 1 min 0,000 mm 1,4 UV-I 332 W/m 5,8 C 6,0 C 12,9 km/h (3 Bft) 100,00 %
02.03.2016 13:24 7,7 C 88 % 1005,4 hPa 0,0 l/m 6,9 km/h (2 Bft) O-NO 69 1 min 0,000 mm 1,5 UV-I 355 W/m 5,8 C 7,3 C 11,3 km/h (2 Bft) 100,00 %
02.03.2016 13:25 7,7 C 88 % 1005,3 hPa 0,0 l/m 8,2 km/h (2 Bft) O-NO 60 1 min 0,000 mm 1,5 UV-I 378 W/m 5,8 C 6,3 C 9,7 km/h (2 Bft) 100,00 %
02.03.2016 13:26 7,7 C 88 % 1005,3 hPa 0,0 l/m 10,1 km/h (2 Bft) O 81 1 min 0,000 mm 1,4 UV-I 358 W/m 5,8 C 5,0 C 14,5 km/h (3 Bft) 96,15 %
02.03.2016 13:27 7,7 C 88 % 1005,3 hPa 0,0 l/m 6,6 km/h (2 Bft) O-NO 76 1 min 0,000 mm 1,4 UV-I 342 W/m 5,8 C 7,6 C 8,0 km/h (2 Bft) 100,00 %
02.03.2016 13:28 7,7 C 88 % 1005,2 hPa 0,0 l/m 10,8 km/h (2 Bft) O-NO 70 1 min 0,000 mm 1,4 UV-I 334 W/m 5,8 C 4,6 C 14,5 km/h (3 Bft) 100,00 %
02.03.2016 13:29 7,7 C 88 % 1005,2 hPa 0,0 l/m 9,7 km/h (2 Bft) NO 56 1 min 0,000 mm 1,3 UV-I 325 W/m 5,8 C 5,2 C 14,5 km/h (3 Bft) 100,00 %
02.03.2016 13:30 7,7 C 88 % 1005,2 hPa 0,0 l/m 13,4 km/h (3 Bft) NO 36 1 min 0,000 mm 1,3 UV-I 308 W/m 5,8 C 3,1 C 16,1 km/h (3 Bft) 100,00 %
02.03.2016 13:31 7,8 C 87 % 1005,2 hPa 0,0 l/m 8,1 km/h (2 Bft) O-NO 62 1 min 0,000 mm 1,4 UV-I 312 W/m 5,8 C 6,5 C 12,9 km/h (3 Bft) 100,00 %
02.03.2016 13:32 7,8 C 87 % 1005,2 hPa 0,0 l/m 9,3 km/h (2 Bft) O-NO 72 1 min 0,000 mm 1,4 UV-I 318 W/m 5,8 C 5,6 C 12,9 km/h (3 Bft) 100,00 %
02.03.2016 13:33 7,8 C 87 % 1005,1 hPa 0,0 l/m 11,4 km/h (2 Bft) O-NO 71 1 min 0,000 mm 1,4 UV-I 325 W/m 5,8 C 4,3 C 14,5 km/h (3 Bft) 95,65 %
02.03.2016 13:34 7,8 C 87 % 1005,1 hPa 0,0 l/m 12,4 km/h (3 Bft) O-NO 60 1 min 0,000 mm 1,4 UV-I 329 W/m 5,8 C 3,8 C 16,1 km/h (3 Bft) 100,00 %
02.03.2016 13:35 7,8 C 86 % 1005,1 hPa 0,0 l/m 9,2 km/h (2 Bft) O-NO 71 1 min 0,000 mm 1,4 UV-I 330 W/m 5,6 C 5,7 C 12,9 km/h (3 Bft) 90,91 %
02.03.2016 13:36 7,9 C 87 % 1005,0 hPa 0,0 l/m 10,7 km/h (2 Bft) O-NO 68 1 min 0,000 mm 1,4 UV-I 327 W/m 5,9 C 4,8 C 14,5 km/h (3 Bft) 100,00 %
02.03.2016 13:37 7,9 C 87 % 1005,0 hPa 0,0 l/m 10,4 km/h (2 Bft) N-NO 24 1 min 0,000 mm 1,4 UV-I 323 W/m 5,9 C 5,0 C 14,5 km/h (3 Bft) 96,15 %
02.03.2016 13:38 7,8 C 88 % 1004,9 hPa 0,0 l/m 9,0 km/h (2 Bft) NO 49 1 min 0,000 mm 1,3 UV-I 301 W/m 5,9 C 5,8 C 14,5 km/h (3 Bft) 95,83 %
02.03.2016 13:39 7,9 C 89 % 1004,9 hPa 0,0 l/m 9,9 km/h (2 Bft) N-NO 26 1 min 0,000 mm 1,4 UV-I 315 W/m 6,2 C 5,3 C 14,5 km/h (3 Bft) 100,00 %
02.03.2016 13:40 7,8 C 90 % 1004,9 hPa 0,0 l/m 11,2 km/h (2 Bft) O-NO 62 1 min 0,000 mm 1,3 UV-I 304 W/m 6,3 C 4,4 C 14,5 km/h (3 Bft) 95,83 %
02.03.2016 13:41 7,8 C 89 % 1005,0 hPa 0,0 l/m 8,9 km/h (2 Bft) NO 51 1 min 0,000 mm 1,3 UV-I 302 W/m 6,1 C 5,9 C 11,3 km/h (2 Bft) 100,00 %
02.03.2016 13:42 7,8 C 88 % 1004,9 hPa 0,0 l/m 7,9 km/h (2 Bft) NO 46 1 min 0,000 mm 1,3 UV-I 302 W/m 5,9 C 6,6 C 11,3 km/h (2 Bft) 95,83 %
02.03.2016 13:43 7,7 C 89 % 1004,9 hPa 0,0 l/m 7,2 km/h (2 Bft) NO 34 1 min 0,000 mm 1,3 UV-I 297 W/m 6,0 C 7,1 C 9,7 km/h (2 Bft) 100,00 %
02.03.2016 13:44 7,7 C 89 % 1004,9 hPa 0,0 l/m 10,0 km/h (2 Bft) NO 49 0 min 0,000 mm 1,3 UV-I 277 W/m 6,0 C 5,1 C 12,9 km/h (3 Bft) 96,30 %
02.03.2016 13:45 7,7 C 89 % 1004,9 hPa 0,0 l/m 10,2 km/h (2 Bft) NO 40 0 min 0,000 mm 1,3 UV-I 269 W/m 6,0 C 4,9 C 12,9 km/h (3 Bft) 100,00 %
02.03.2016 13:46 7,7 C 89 % 1004,8 hPa 0,0 l/m 10,7 km/h (2 Bft) O-NO 68 0 min 0,000 mm 1,2 UV-I 278 W/m 6,0 C 4,6 C 14,5 km/h (3 Bft) 96,55 %
02.03.2016 13:47 7,7 C 89 % 1004,8 hPa 0,0 l/m 11,3 km/h (2 Bft) O-NO 76 0 min 0,000 mm 1,3 UV-I 282 W/m 6,0 C 4,3 C 14,5 km/h (3 Bft) 96,15 %
02.03.2016 13:48 7,7 C 89 % 1004,8 hPa 0,0 l/m 11,5 km/h (2 Bft) O-NO 59 0 min 0,000 mm 1,3 UV-I 279 W/m 6,0 C 4,1 C 16,1 km/h (3 Bft) 100,00 %
02.03.2016 13:49 7,7 C 89 % 1004,8 hPa 0,0 l/m 10,1 km/h (2 Bft) NO 38 1 min 0,000 mm 1,3 UV-I 296 W/m 6,0 C 5,0 C 16,1 km/h (3 Bft) 93,33 %
02.03.2016 13:50 7,7 C 89 % 1004,7 hPa 0,0 l/m 10,0 km/h (2 Bft) O-NO 65 1 min 0,000 mm 1,3 UV-I 329 W/m 6,0 C 5,1 C 12,9 km/h (3 Bft) 100,00 %
02.03.2016 13:51 7,7 C 89 % 1004,7 hPa 0,0 l/m 8,6 km/h (2 Bft) O 101 1 min 0,000 mm 1,3 UV-I 337 W/m 6,0 C 6,0 C 14,5 km/h (3 Bft) 96,30 %
02.03.2016 13:52 7,8 C 90 % 1004,7 hPa 0,0 l/m 4,8 km/h (1 Bft) NO 38 1 min 0,000 mm 1,3 UV-I 348 W/m 6,3 C 7,8 C 6,4 km/h (2 Bft) 100,00 %
02.03.2016 13:53 7,9 C 91 % 1004,7 hPa 0,0 l/m 6,4 km/h (2 Bft) NO 39 1 min 0,000 mm 1,4 UV-I 358 W/m 6,5 C 7,9 C 9,7 km/h (2 Bft) 95,83 %
02.03.2016 13:54 8,1 C 90 % 1004,7 hPa 0,0 l/m 6,6 km/h (2 Bft) NO 42 1 min 0,000 mm 1,3 UV-I 358 W/m 6,6 C 8,0 C 9,7 km/h (2 Bft) 95,65 %
02.03.2016 13:55 8,1 C 90 % 1004,7 hPa 0,0 l/m 5,4 km/h (1 Bft) NO 37 1 min 0,000 mm 1,3 UV-I 367 W/m 6,6 C 8,1 C 8,0 km/h (2 Bft) 100,00 %
02.03.2016 13:56 8,1 C 89 % 1004,7 hPa 0,0 l/m 10,0 km/h (2 Bft) O-NO 58 1 min 0,000 mm 1,3 UV-I 366 W/m 6,4 C 5,5 C 12,9 km/h (3 Bft) 96,15 %
02.03.2016 13:57 8,1 C 89 % 1004,7 hPa 0,0 l/m 8,5 km/h (2 Bft) NO 53 1 min 0,000 mm 1,3 UV-I 340 W/m 6,4 C 6,5 C 9,7 km/h (2 Bft) 100,00 %
02.03.2016 13:58 8,1 C 89 % 1004,6 hPa 0,0 l/m 7,8 km/h (2 Bft) O-NO 58 1 min 0,000 mm 1,2 UV-I 304 W/m 6,4 C 7,0 C 9,7 km/h (2 Bft) 95,65 %
02.03.2016 13:59 8,0 C 89 % 1004,6 hPa 0,0 l/m 8,8 km/h (2 Bft) NO 53 0 min 0,000 mm 1,2 UV-I 276 W/m 6,3 C 6,2 C 14,5 km/h (3 Bft) 100,00 %
02.03.2016 14:00 8,0 C 90 % 1004,6 hPa 0,0 l/m 10,3 km/h (2 Bft) NO 48 0 min 0,153 mm 1,1 UV-I 265 W/m 6,5 C 5,2 C 12,9 km/h (3 Bft) 96,15 %
02.03.2016 14:01 8,0 C 90 % 1004,5 hPa 0,0 l/m 10,2 km/h (2 Bft) N-NO 31 0 min 0,000 mm 1,1 UV-I 258 W/m 6,5 C 5,3 C 14,5 km/h (3 Bft) 100,00 %
02.03.2016 14:02 8,1 C 91 % 1004,5 hPa 0,0 l/m 8,3 km/h (2 Bft) NO 40 0 min 0,000 mm 1,1 UV-I 248 W/m 6,7 C 6,6 C 14,5 km/h (3 Bft) 94,12 %
02.03.2016 14:03 8,0 C 90 % 1004,5 hPa 0,0 l/m 7,9 km/h (2 Bft) O-NO 62 0 min 0,000 mm 1,1 UV-I 246 W/m 6,5 C 6,8 C 9,7 km/h (2 Bft) 100,00 %
02.03.2016 14:06 7,9 C 90 % 1004,3 hPa 0,0 l/m 9,9 km/h (2 Bft) O-NO 61 0 min 0,000 mm 1,0 UV-I 224 W/m 6,4 C 5,3 C 14,5 km/h (3 Bft) 97,62 %
02.03.2016 14:07 7,9 C 89 % 1004,3 hPa 0,0 l/m 9,2 km/h (2 Bft) NO 38 0 min 0,000 mm 0,9 UV-I 221 W/m 6,2 C 5,8 C 12,9 km/h (3 Bft) 100,00 %
02.03.2016 14:08 7,9 C 90 % 1004,3 hPa 0,0 l/m 10,1 km/h (2 Bft) NO 39 0 min 0,000 mm 0,9 UV-I 219 W/m 6,4 C 5,2 C 12,9 km/h (3 Bft) 96,15 %
02.03.2016 14:09 7,9 C 90 % 1004,3 hPa 0,0 l/m 7,8 km/h (2 Bft) O-NO 59 0 min 0,000 mm 0,9 UV-I 218 W/m 6,4 C 6,8 C 11,3 km/h (2 Bft) 100,00 %
02.03.2016 14:10 7,9 C 90 % 1004,3 hPa 0,0 l/m 10,7 km/h (2 Bft) O-NO 57 0 min 0,000 mm 0,9 UV-I 216 W/m 6,4 C 4,8 C 14,5 km/h (3 Bft) 100,00 %
02.03.2016 14:11 7,9 C 90 % 1004,2 hPa 0,0 l/m 11,7 km/h (2 Bft) O-NO 57 0 min 0,000 mm 0,9 UV-I 214 W/m 6,4 C 4,3 C 16,1 km/h (3 Bft) 100,00 %
02.03.2016 14:12 7,9 C 89 % 1004,1 hPa 0,0 l/m 10,6 km/h (2 Bft) O-NO 57 0 min 0,000 mm 0,9 UV-I 212 W/m 6,2 C 4,9 C 14,5 km/h (3 Bft) 100,00 %
02.03.2016 14:13 7,9 C 90 % 1004,1 hPa 0,0 l/m 9,7 km/h (2 Bft) NO 49 0 min 0,000 mm 0,9 UV-I 208 W/m 6,4 C 5,5 C 16,1 km/h (3 Bft) 92,86 %
02.03.2016 14:14 7,8 C 89 % 1004,1 hPa 0,0 l/m 9,1 km/h (2 Bft) O-NO 57 0 min 0,000 mm 0,8 UV-I 205 W/m 6,1 C 5,8 C 14,5 km/h (3 Bft) 100,00 %
02.03.2016 14:15 7,8 C 90 % 1004,0 hPa 0,0 l/m 13,8 km/h (3 Bft) O-NO 57 0 min 0,000 mm 0,8 UV-I 200 W/m 6,3 C 3,0 C 16,1 km/h (3 Bft) 97,06 %
02.03.2016 14:16 7,8 C 90 % 1004,0 hPa 0,0 l/m 14,1 km/h (3 Bft) NO 51 0 min 0,000 mm 0,8 UV-I 199 W/m 6,3 C 2,9 C 16,1 km/h (3 Bft) 96,30 %
02.03.2016 14:17 7,7 C 90 % 1004,0 hPa 0,0 l/m 14,6 km/h (3 Bft) NO 42 0 min 0,000 mm 0,8 UV-I 197 W/m 6,2 C 2,5 C 17,7 km/h (3 Bft) 100,00 %
02.03.2016 14:18 7,7 C 90 % 1003,9 hPa 0,0 l/m 12,5 km/h (3 Bft) O-NO 75 0 min 0,000 mm 0,8 UV-I 194 W/m 6,2 C 3,6 C 17,7 km/h (3 Bft) 96,67 %
02.03.2016 14:19 7,7 C 90 % 1003,9 hPa 0,0 l/m 11,3 km/h (2 Bft) NO 49 0 min 0,000 mm 0,8 UV-I 193 W/m 6,2 C 4,3 C 14,5 km/h (3 Bft) 100,00 %
02.03.2016 14:20 7,6 C 91 % 1003,9 hPa 0,0 l/m 13,6 km/h (3 Bft) NO 55 0 min 0,000 mm 0,8 UV-I 190 W/m 6,2 C 2,9 C 17,7 km/h (3 Bft) 100,00 %
02.03.2016 14:21 7,6 C 91 % 1003,8 hPa 0,0 l/m 14,3 km/h (3 Bft) NO 54 0 min 0,000 mm 0,8 UV-I 189 W/m 6,2 C 2,6 C 17,7 km/h (3 Bft) 100,00 %
02.03.2016 14:22 7,6 C 91 % 1003,8 hPa 0,0 l/m 15,4 km/h (3 Bft) NO 49 0 min 0,000 mm 0,8 UV-I 188 W/m 6,2 C 2,0 C 17,7 km/h (3 Bft) 100,00 %
02.03.2016 14:23 7,6 C 91 % 1003,8 hPa 0,0 l/m 13,4 km/h (3 Bft) NO 53 0 min 0,000 mm 0,8 UV-I 186 W/m 6,2 C 3,0 C 16,1 km/h (3 Bft) 100,00 %
02.03.2016 14:24 7,5 C 91 % 1003,7 hPa 0,0 l/m 12,6 km/h (3 Bft) NO 55 0 min 0,000 mm 0,8 UV-I 184 W/m 6,1 C 3,3 C 16,1 km/h (3 Bft) 100,00 %
02.03.2016 14:25 7,5 C 92 % 1003,7 hPa 0,0 l/m 12,7 km/h (3 Bft) NO 41 0 min 0,000 mm 0,7 UV-I 182 W/m 6,3 C 3,3 C 17,7 km/h (3 Bft) 95,65 %
02.03.2016 14:26 7,5 C 92 % 1003,7 hPa 0,0 l/m 13,6 km/h (3 Bft) NO 41 0 min 0,000 mm 0,7 UV-I 178 W/m 6,3 C 2,8 C 17,7 km/h (3 Bft) 100,00 %
02.03.2016 14:27 7,6 C 92 % 1003,7 hPa 0,0 l/m 13,7 km/h (3 Bft) NO 52 0 min 0,000 mm 0,7 UV-I 177 W/m 6,4 C 2,9 C 17,7 km/h (3 Bft) 100,00 %
02.03.2016 14:28 7,5 C 92 % 1003,6 hPa 0,0 l/m 11,8 km/h (2 Bft) NO 55 0 min 0,000 mm 0,7 UV-I 173 W/m 6,3 C 3,7 C 17,7 km/h (3 Bft) 100,00 %
02.03.2016 14:29 7,4 C 91 % 1003,7 hPa 0,0 l/m 11,9 km/h (2 Bft) NO 45 0 min 0,000 mm 0,7 UV-I 171 W/m 6,0 C 3,6 C 17,7 km/h (3 Bft) 100,00 %
02.03.2016 14:30 7,4 C 91 % 1003,6 hPa 0,0 l/m 13,4 km/h (3 Bft) NO 53 0 min 0,000 mm 0,7 UV-I 169 W/m 6,0 C 2,8 C 17,7 km/h (3 Bft) 100,00 %
02.03.2016 14:31 7,3 C 91 % 1003,6 hPa 0,0 l/m 15,2 km/h (3 Bft) NO 46 0 min 0,000 mm 0,7 UV-I 167 W/m 5,9 C 1,8 C 17,7 km/h (3 Bft) 100,00 %
02.03.2016 14:32 7,3 C 91 % 1003,6 hPa 0,0 l/m 15,1 km/h (3 Bft) NO 50 0 min 0,000 mm 0,7 UV-I 170 W/m 5,9 C 1,8 C 19,3 km/h (3 Bft) 100,00 %
02.03.2016 14:33 7,3 C 91 % 1003,5 hPa 0,0 l/m 18,6 km/h (3 Bft) O-NO 71 0 min 0,000 mm 0,7 UV-I 172 W/m 5,9 C 0,3 C 20,9 km/h (4 Bft) 100,00 %
02.03.2016 14:34 7,2 C 92 % 1003,5 hPa 0,0 l/m 18,5 km/h (3 Bft) O-NO 65 0 min 0,000 mm 0,7 UV-I 175 W/m 6,0 C 0,2 C 20,9 km/h (4 Bft) 100,00 %
02.03.2016 14:35 7,2 C 92 % 1003,4 hPa 0,0 l/m 16,3 km/h (3 Bft) O-NO 61 0 min 0,000 mm 0,7 UV-I 181 W/m 6,0 C 1,2 C 20,9 km/h (4 Bft) 100,00 %
02.03.2016 14:36 7,2 C 92 % 1003,4 hPa 0,0 l/m 15,3 km/h (3 Bft) O-NO 64 0 min 0,000 mm 0,7 UV-I 186 W/m 6,0 C 1,6 C 17,7 km/h (3 Bft) 96,15 %
02.03.2016 14:37 7,2 C 92 % 1003,5 hPa 0,0 l/m 10,0 km/h (2 Bft) O-NO 69 0 min 0,000 mm 0,7 UV-I 188 W/m 6,0 C 4,5 C 14,5 km/h (3 Bft) 100,00 %
02.03.2016 14:38 7,2 C 92 % 1003,4 hPa 0,0 l/m 8,9 km/h (2 Bft) O-NO 67 0 min 0,000 mm 0,7 UV-I 187 W/m 6,0 C 5,2 C 12,9 km/h (3 Bft) 100,00 %
02.03.2016 14:39 7,1 C 92 % 1003,5 hPa 0,0 l/m 12,2 km/h (2 Bft) O-NO 57 0 min 0,000 mm 0,7 UV-I 184 W/m 5,9 C 3,1 C 16,1 km/h (3 Bft) 100,00 %
02.03.2016 14:40 7,1 C 92 % 1003,4 hPa 0,0 l/m 12,2 km/h (2 Bft) O-NO 57 0 min 0,000 mm 0,7 UV-I 179 W/m 5,9 C 3,1 C 19,3 km/h (3 Bft) 100,00 %
02.03.2016 14:41 7,1 C 92 % 1003,3 hPa 0,0 l/m 16,4 km/h (3 Bft) O-NO 64 0 min 0,000 mm 0,7 UV-I 176 W/m 5,9 C 1,0 C 19,3 km/h (3 Bft) 100,00 %
02.03.2016 14:42 7,1 C 92 % 1003,3 hPa 0,0 l/m 12,8 km/h (3 Bft) O-NO 61 0 min 0,000 mm 0,7 UV-I 171 W/m 5,9 C 2,7 C 16,1 km/h (3 Bft) 96,55 %
02.03.2016 14:43 7,0 C 92 % 1003,3 hPa 0,0 l/m 13,7 km/h (3 Bft) NO 49 0 min 0,000 mm 0,6 UV-I 166 W/m 5,8 C 2,1 C 17,7 km/h (3 Bft) 100,00 %
02.03.2016 14:44 7,0 C 93 % 1003,2 hPa 0,0 l/m 11,1 km/h (2 Bft) NO 40 0 min 0,000 mm 0,6 UV-I 162 W/m 5,9 C 3,6 C 14,5 km/h (3 Bft) 100,00 %
02.03.2016 14:45 7,0 C 93 % 1003,2 hPa 0,0 l/m 12,6 km/h (3 Bft) NO 35 0 min 0,000 mm 0,6 UV-I 159 W/m 5,9 C 2,7 C 16,1 km/h (3 Bft) 100,00 %
02.03.2016 14:46 7,0 C 93 % 1003,2 hPa 0,0 l/m 9,7 km/h (2 Bft) NO 45 0 min 0,000 mm 0,6 UV-I 161 W/m 5,9 C 4,5 C 14,5 km/h (3 Bft) 100,00 %
02.03.2016 14:47 7,0 C 93 % 1003,3 hPa 0,0 l/m 10,9 km/h (2 Bft) N-NO 26 0 min 0,000 mm 0,6 UV-I 162 W/m 5,9 C 3,7 C 17,7 km/h (3 Bft) 100,00 %
02.03.2016 14:48 7,0 C 93 % 1003,3 hPa 0,0 l/m 12,0 km/h (2 Bft) O 84 0 min 0,000 mm 0,6 UV-I 165 W/m 5,9 C 3,1 C 16,1 km/h (3 Bft) 100,00 %
02.03.2016 14:49 6,9 C 93 % 1003,3 hPa 0,0 l/m 14,9 km/h (3 Bft) NO 48 0 min 0,000 mm 0,6 UV-I 171 W/m 5,8 C 1,4 C 19,3 km/h (3 Bft) 97,56 %
02.03.2016 14:50 6,9 C 93 % 1003,3 hPa 0,0 l/m 13,4 km/h (3 Bft) N-NO 33 0 min 0,000 mm 0,6 UV-I 175 W/m 5,8 C 2,2 C 17,7 km/h (3 Bft) 100,00 %
02.03.2016 14:51 6,9 C 93 % 1003,3 hPa 0,0 l/m 13,1 km/h (3 Bft) O-NO 73 0 min 0,000 mm 0,6 UV-I 182 W/m 5,8 C 2,3 C 19,3 km/h (3 Bft) 100,00 %
02.03.2016 14:52 6,9 C 93 % 1003,3 hPa 0,0 l/m 12,3 km/h (3 Bft) NO 45 0 min 0,000 mm 0,7 UV-I 187 W/m 5,8 C 2,8 C 17,7 km/h (3 Bft) 100,00 %
02.03.2016 14:53 6,9 C 93 % 1003,3 hPa 0,0 l/m 13,3 km/h (3 Bft) NO 36 0 min 0,000 mm 0,7 UV-I 201 W/m 5,8 C 2,2 C 17,7 km/h (3 Bft) 100,00 %
02.03.2016 14:54 6,9 C 93 % 1003,2 hPa 0,0 l/m 13,3 km/h (3 Bft) NO 53 0 min 0,000 mm 0,7 UV-I 213 W/m 5,8 C 2,2 C 17,7 km/h (3 Bft) 100,00 %
02.03.2016 14:55 6,8 C 93 % 1003,2 hPa 0,0 l/m 12,2 km/h (2 Bft) N-NO 19 0 min 0,000 mm 0,7 UV-I 220 W/m 5,7 C 2,7 C 16,1 km/h (3 Bft) 98,63 %
02.03.2016 14:56 6,9 C 93 % 1003,1 hPa 0,0 l/m 15,4 km/h (3 Bft) N-NO 14 0 min 0,000 mm 0,7 UV-I 202 W/m 5,8 C 1,2 C 17,7 km/h (3 Bft) 100,00 %
02.03.2016 14:57 6,9 C 93 % 1003,1 hPa 0,0 l/m 14,2 km/h (3 Bft) N 9 0 min 0,000 mm 0,7 UV-I 194 W/m 5,8 C 1,8 C 19,3 km/h (3 Bft) 92,31 %
02.03.2016 14:58 6,9 C 93 % 1003,0 hPa 0,0 l/m 15,0 km/h (3 Bft) N 5 0 min 0,000 mm 0,7 UV-I 195 W/m 5,8 C 1,4 C 17,7 km/h (3 Bft) 100,00 %
02.03.2016 14:59 6,9 C 93 % 1003,0 hPa 0,0 l/m 14,6 km/h (3 Bft) N-NO 30 0 min 0,000 mm 0,7 UV-I 200 W/m 5,8 C 1,6 C 17,7 km/h (3 Bft) 100,00 %
02.03.2016 15:00 6,9 C 93 % 1003,0 hPa 0,0 l/m 11,0 km/h (2 Bft) NO 43 0 min 0,000 mm 0,7 UV-I 198 W/m 5,8 C 3,5 C 16,1 km/h (3 Bft) 96,67 %
02.03.2016 15:01 6,9 C 93 % 1002,9 hPa 0,0 l/m 15,7 km/h (3 Bft) N-NO 32 0 min 0,101 mm 0,7 UV-I 194 W/m 5,8 C 1,1 C 19,3 km/h (3 Bft) 92,31 %
02.03.2016 15:02 6,8 C 93 % 1002,9 hPa 0,0 l/m 14,9 km/h (3 Bft) NO 39 0 min 0,000 mm 0,7 UV-I 192 W/m 5,7 C 1,3 C 19,3 km/h (3 Bft) 100,00 %
02.03.2016 15:03 6,8 C 93 % 1002,9 hPa 0,0 l/m 14,1 km/h (3 Bft) NO 47 0 min 0,000 mm 0,7 UV-I 189 W/m 5,7 C 1,7 C 16,1 km/h (3 Bft) 98,62 %
02.03.2016 15:06 6,8 C 93 % 1002,9 hPa 0,0 l/m 10,0 km/h (2 Bft) O-NO 62 0 min 0,000 mm 0,7 UV-I 186 W/m 5,7 C 4,1 C 14,5 km/h (3 Bft) 96,88 %
02.03.2016 15:07 6,7 C 93 % 1002,9 hPa 0,0 l/m 8,2 km/h (2 Bft) O-NO 71 0 min 0,000 mm 0,7 UV-I 185 W/m 5,6 C 5,2 C 9,7 km/h (2 Bft) 100,00 %
02.03.2016 15:08 6,7 C 93 % 1002,9 hPa 0,0 l/m 8,3 km/h (2 Bft) NO 55 0 min 0,000 mm 0,6 UV-I 183 W/m 5,6 C 5,2 C 9,7 km/h (2 Bft) 100,00 %
02.03.2016 15:09 6,8 C 93 % 1002,9 hPa 0,0 l/m 6,4 km/h (2 Bft) NO 46 0 min 0,000 mm 0,6 UV-I 181 W/m 5,7 C 6,8 C 8,0 km/h (2 Bft) 100,00 %
02.03.2016 15:10 6,8 C 93 % 1002,8 hPa 0,0 l/m 8,1 km/h (2 Bft) O-NO 57 0 min 0,000 mm 0,6 UV-I 178 W/m 5,7 C 5,4 C 9,7 km/h (2 Bft) 100,00 %
02.03.2016 15:11 6,8 C 93 % 1002,8 hPa 0,0 l/m 7,7 km/h (2 Bft) N-NO 32 0 min 0,000 mm 0,6 UV-I 174 W/m 5,7 C 5,7 C 9,7 km/h (2 Bft) 100,00 %
02.03.2016 15:12 6,9 C 93 % 1002,8 hPa 0,0 l/m 8,5 km/h (2 Bft) NO 44 0 min 0,000 mm 0,6 UV-I 170 W/m 5,8 C 5,2 C 11,3 km/h (2 Bft) 100,00 %
02.03.2016 15:13 6,9 C 93 % 1002,8 hPa 0,0 l/m 8,1 km/h (2 Bft) N-NO 32 0 min 0,000 mm 0,6 UV-I 167 W/m 5,8 C 5,5 C 14,5 km/h (3 Bft) 100,00 %
02.03.2016 15:14 6,9 C 93 % 1002,7 hPa 0,0 l/m 9,2 km/h (2 Bft) NO 36 0 min 0,000 mm 0,6 UV-I 163 W/m 5,8 C 4,7 C 12,9 km/h (3 Bft) 100,00 %
02.03.2016 15:15 6,9 C 93 % 1002,7 hPa 0,0 l/m 8,2 km/h (2 Bft) NO 51 0 min 0,000 mm 0,5 UV-I 159 W/m 5,8 C 5,4 C 12,9 km/h (3 Bft) 100,00 %
02.03.2016 15:16 6,9 C 93 % 1002,7 hPa 0,0 l/m 7,2 km/h (2 Bft) O-NO 60 0 min 0,000 mm 0,5 UV-I 158 W/m 5,8 C 6,2 C 12,9 km/h (3 Bft) 100,00 %
02.03.2016 15:17 6,8 C 93 % 1002,7 hPa 0,0 l/m 14,8 km/h (3 Bft) O-NO 68 0 min 0,000 mm 0,5 UV-I 159 W/m 5,7 C 1,4 C 17,7 km/h (3 Bft) 100,00 %
02.03.2016 15:18 6,8 C 92 % 1002,6 hPa 0,0 l/m 14,6 km/h (3 Bft) O-NO 58 0 min 0,000 mm 0,5 UV-I 158 W/m 5,6 C 1,5 C 17,7 km/h (3 Bft) 100,00 %
02.03.2016 15:19 6,8 C 92 % 1002,6 hPa 0,0 l/m 13,0 km/h (3 Bft) O-NO 63 0 min 0,000 mm 0,5 UV-I 158 W/m 5,6 C 2,3 C 16,1 km/h (3 Bft) 100,00 %
02.03.2016 15:20 6,8 C 93 % 1002,5 hPa 0,0 l/m 14,4 km/h (3 Bft) O-NO 67 0 min 0,000 mm 0,5 UV-I 158 W/m 5,7 C 1,5 C 17,7 km/h (3 Bft) 100,00 %
02.03.2016 15:21 6,7 C 93 % 1002,4 hPa 0,0 l/m 11,1 km/h (2 Bft) O-NO 63 0 min 0,000 mm 0,5 UV-I 156 W/m 5,6 C 3,2 C 14,5 km/h (3 Bft) 100,00 %
02.03.2016 15:22 6,7 C 93 % 1002,4 hPa 0,0 l/m 11,0 km/h (2 Bft) NO 55 0 min 0,000 mm 0,5 UV-I 154 W/m 5,6 C 3,3 C 12,9 km/h (3 Bft) 92,86 %
02.03.2016 15:23 6,8 C 93 % 1002,5 hPa 0,0 l/m 10,8 km/h (2 Bft) NO 52 0 min 0,000 mm 0,5 UV-I 150 W/m 5,7 C 3,5 C 14,5 km/h (3 Bft) 95,83 %
02.03.2016 15:24 6,8 C 93 % 1002,5 hPa 0,0 l/m 11,3 km/h (2 Bft) O-NO 59 0 min 0,000 mm 0,5 UV-I 148 W/m 5,7 C 3,2 C 17,7 km/h (3 Bft) 96,30 %
02.03.2016 15:25 6,8 C 93 % 1002,5 hPa 0,0 l/m 11,0 km/h (2 Bft) O-NO 65 0 min 0,000 mm 0,5 UV-I 148 W/m 5,7 C 3,4 C 14,5 km/h (3 Bft) 100,00 %
02.03.2016 15:26 6,8 C 93 % 1002,5 hPa 0,0 l/m 8,6 km/h (2 Bft) NO 48 0 min 0,000 mm 0,5 UV-I 147 W/m 5,7 C 5,0 C 14,5 km/h (3 Bft) 100,00 %
02.03.2016 15:27 6,8 C 93 % 1002,4 hPa 0,0 l/m 7,3 km/h (2 Bft) NO 44 0 min 0,000 mm 0,5 UV-I 146 W/m 5,7 C 6,1 C 9,7 km/h (2 Bft) 100,00 %
02.03.2016 15:28 6,8 C 93 % 1002,4 hPa 0,0 l/m 9,3 km/h (2 Bft) O-NO 57 0 min 0,000 mm 0,5 UV-I 146 W/m 5,7 C 4,5 C 14,5 km/h (3 Bft) 100,00 %
02.03.2016 15:29 6,8 C 93 % 1002,4 hPa 0,0 l/m 8,4 km/h (2 Bft) NO 53 0 min 0,000 mm 0,5 UV-I 144 W/m 5,7 C 5,2 C 11,3 km/h (2 Bft) 96,15 %
02.03.2016 15:30 6,8 C 93 % 1002,4 hPa 0,0 l/m 12,6 km/h (3 Bft) O-NO 57 0 min 0,000 mm 0,5 UV-I 143 W/m 5,7 C 2,5 C 17,7 km/h (3 Bft) 92,31 %
02.03.2016 15:31 6,8 C 93 % 1002,3 hPa 0,0 l/m 9,4 km/h (2 Bft) NO 51 0 min 0,000 mm 0,2 UV-I 142 W/m 5,7 C 4,5 C 12,9 km/h (3 Bft) 96,30 %
02.03.2016 15:32 6,8 C 93 % 1002,3 hPa 0,0 l/m 9,0 km/h (2 Bft) NO 41 0 min 0,000 mm 0,0 UV-I 142 W/m 5,7 C 4,7 C 11,3 km/h (2 Bft) 100,00 %
02.03.2016 15:33 6,8 C 93 % 1002,3 hPa 0,0 l/m 8,6 km/h (2 Bft) NO 51 0 min 0,000 mm 0,0 UV-I 142 W/m 5,7 C 5,0 C 9,7 km/h (2 Bft) 95,65 %
02.03.2016 15:34 6,8 C 93 % 1002,2 hPa 0,0 l/m 12,4 km/h (3 Bft) O-NO 62 0 min 0,000 mm 0,0 UV-I 142 W/m 5,7 C 2,6 C 16,1 km/h (3 Bft) 100,00 %
02.03.2016 15:35 6,7 C 93 % 1002,2 hPa 0,0 l/m 13,6 km/h (3 Bft) O-NO 57 0 min 0,000 mm 0,0 UV-I 140 W/m 5,6 C 1,8 C 16,1 km/h (3 Bft) 95,65 %
02.03.2016 15:36 6,7 C 92 % 1002,1 hPa 0,0 l/m 10,4 km/h (2 Bft) O-NO 68 0 min 0,000 mm 0,0 UV-I 138 W/m 5,5 C 3,7 C 12,9 km/h (3 Bft) 100,00 %
02.03.2016 15:37 6,7 C 92 % 1002,1 hPa 0,0 l/m 11,8 km/h (2 Bft) NO 44 0 min 0,000 mm 0,0 UV-I 136 W/m 5,5 C 2,8 C 14,5 km/h (3 Bft) 95,65 %
02.03.2016 15:38 6,8 C 92 % 1002,1 hPa 0,0 l/m 8,4 km/h (2 Bft) O-NO 61 0 min 0,000 mm 0,0 UV-I 134 W/m 5,6 C 5,2 C 14,5 km/h (3 Bft) 96,30 %
02.03.2016 15:39 6,7 C 92 % 1002,1 hPa 0,0 l/m 9,3 km/h (2 Bft) O-NO 74 0 min 0,000 mm 0,0 UV-I 132 W/m 5,5 C 4,4 C 14,5 km/h (3 Bft) 100,00 %
02.03.2016 15:40 6,7 C 92 % 1002,1 hPa 0,0 l/m 9,3 km/h (2 Bft) NO 48 0 min 0,000 mm 0,0 UV-I 132 W/m 5,5 C 4,4 C 14,5 km/h (3 Bft) 95,83 %
02.03.2016 15:41 6,8 C 92 % 1002,0 hPa 0,0 l/m 9,0 km/h (2 Bft) NO 36 0 min 0,000 mm 0,0 UV-I 132 W/m 5,6 C 4,7 C 14,5 km/h (3 Bft) 100,00 %
02.03.2016 15:42 6,8 C 93 % 1002,0 hPa 0,0 l/m 10,3 km/h (2 Bft) N-NO 24 0 min 0,000 mm 0,0 UV-I 130 W/m 5,7 C 3,9 C 12,9 km/h (3 Bft) 96,67 %
02.03.2016 15:43 6,8 C 93 % 1002,0 hPa 0,0 l/m 10,0 km/h (2 Bft) NO 41 0 min 0,000 mm 0,0 UV-I 130 W/m 5,7 C 4,1 C 14,5 km/h (3 Bft) 100,00 %
02.03.2016 15:44 6,8 C 93 % 1002,0 hPa 0,0 l/m 6,9 km/h (2 Bft) N-NO 26 0 min 0,000 mm 0,0 UV-I 130 W/m 5,7 C 6,4 C 11,3 km/h (2 Bft) 91,67 %
02.03.2016 15:45 6,8 C 93 % 1002,0 hPa 0,0 l/m 7,3 km/h (2 Bft) N-NO 26 0 min 0,000 mm 0,0 UV-I 131 W/m 5,7 C 6,1 C 9,7 km/h (2 Bft) 100,00 %
02.03.2016 15:46 6,9 C 93 % 1002,0 hPa 0,0 l/m 7,9 km/h (2 Bft) N 10 0 min 0,000 mm 0,0 UV-I 140 W/m 5,8 C 5,7 C 9,7 km/h (2 Bft) 96,67 %
02.03.2016 15:47 6,9 C 93 % 1001,9 hPa 0,0 l/m 7,4 km/h (2 Bft) NO 46 0 min 0,000 mm 0,0 UV-I 141 W/m 5,8 C 6,1 C 11,3 km/h (2 Bft) 95,65 %
02.03.2016 15:48 6,9 C 93 % 1001,9 hPa 0,0 l/m 11,0 km/h (2 Bft) NO 45 0 min 0,000 mm 0,0 UV-I 137 W/m 5,8 C 3,5 C 16,1 km/h (3 Bft) 100,00 %
02.03.2016 15:49 6,9 C 93 % 1001,9 hPa 0,0 l/m 11,5 km/h (2 Bft) NO 43 0 min 0,000 mm 0,0 UV-I 132 W/m 5,8 C 3,2 C 16,1 km/h (3 Bft) 100,00 %
02.03.2016 15:50 6,9 C 93 % 1001,9 hPa 0,0 l/m 7,2 km/h (2 Bft) NO 50 0 min 0,000 mm 0,0 UV-I 132 W/m 5,8 C 6,2 C 14,5 km/h (3 Bft) 97,37 %
02.03.2016 15:51 6,9 C 93 % 1001,8 hPa 0,0 l/m 8,4 km/h (2 Bft) N-NO 24 0 min 0,000 mm 0,0 UV-I 134 W/m 5,8 C 5,3 C 14,5 km/h (3 Bft) 95,83 %
02.03.2016 15:52 6,9 C 93 % 1001,7 hPa 0,0 l/m 8,3 km/h (2 Bft) NO 49 0 min 0,000 mm 0,0 UV-I 134 W/m 5,8 C 5,4 C 11,3 km/h (2 Bft) 100,00 %
02.03.2016 15:53 6,9 C 93 % 1001,7 hPa 0,0 l/m 8,4 km/h (2 Bft) NO 41 0 min 0,000 mm 0,0 UV-I 132 W/m 5,8 C 5,3 C 12,9 km/h (3 Bft) 95,83 %
02.03.2016 15:54 6,9 C 92 % 1001,7 hPa 0,0 l/m 10,6 km/h (2 Bft) O-NO 66 0 min 0,000 mm 0,0 UV-I 131 W/m 5,7 C 3,8 C 14,5 km/h (3 Bft) 100,00 %
02.03.2016 15:55 6,9 C 92 % 1001,7 hPa 0,0 l/m 9,7 km/h (2 Bft) O-NO 71 0 min 0,000 mm 0,0 UV-I 130 W/m 5,7 C 4,4 C 16,1 km/h (3 Bft) 96,30 %
02.03.2016 15:56 6,9 C 92 % 1001,7 hPa 0,0 l/m 8,9 km/h (2 Bft) O-NO 67 0 min 0,000 mm 0,0 UV-I 128 W/m 5,7 C 4,9 C 12,9 km/h (3 Bft) 96,15 %
02.03.2016 15:57 6,8 C 92 % 1001,7 hPa 0,0 l/m 7,9 km/h (2 Bft) NO 49 0 min 0,000 mm 0,0 UV-I 125 W/m 5,6 C 5,6 C 11,3 km/h (2 Bft) 100,00 %
02.03.2016 15:58 6,9 C 92 % 1001,6 hPa 0,0 l/m 15,4 km/h (3 Bft) NO 45 0 min 0,000 mm 0,0 UV-I 122 W/m 5,7 C 1,2 C 19,3 km/h (3 Bft) 95,65 %
02.03.2016 15:59 6,9 C 93 % 1001,6 hPa 0,0 l/m 12,6 km/h (3 Bft) NO 49 0 min 0,000 mm 0,0 UV-I 118 W/m 5,8 C 2,6 C 17,7 km/h (3 Bft) 100,00 %
02.03.2016 16:00 6,8 C 92 % 1001,6 hPa 0,0 l/m 12,7 km/h (3 Bft) NO 46 0 min 0,077 mm 0,0 UV-I 115 W/m 5,6 C 2,4 C 17,7 km/h (3 Bft) 95,65 %
02.03.2016 16:01 6,8 C 92 % 1001,5 hPa 0,0 l/m 12,4 km/h (3 Bft) O-NO 63 0 min 0,000 mm 0,0 UV-I 114 W/m 5,6 C 2,6 C 19,3 km/h (3 Bft) 100,00 %
02.03.2016 16:02 6,8 C 92 % 1001,5 hPa 0,0 l/m 15,3 km/h (3 Bft) NO 55 0 min 0,000 mm 0,0 UV-I 114 W/m 5,6 C 1,1 C 17,7 km/h (3 Bft) 92,86 %
02.03.2016 16:03 6,8 C 92 % 1001,5 hPa 0,0 l/m 11,3 km/h (2 Bft) O-NO 61 0 min 0,000 mm 0,0 UV-I 114 W/m 5,6 C 3,2 C 17,7 km/h (3 Bft) 100,00 %
02.03.2016 16:04 6,8 C 92 % 1001,4 hPa 0,0 l/m 13,1 km/h (3 Bft) O-NO 57 0 min 0,000 mm 0,0 UV-I 114 W/m 5,6 C 2,2 C 17,7 km/h (3 Bft) 100,00 %
02.03.2016 16:05 6,7 C 92 % 1001,3 hPa 0,0 l/m 10,2 km/h (2 Bft) NO 53 0 min 0,000 mm 0,0 UV-I 112 W/m 5,5 C 3,8 C 14,5 km/h (3 Bft) 100,00 %
02.03.2016 16:06 6,7 C 92 % 1001,2 hPa 0,0 l/m 10,9 km/h (2 Bft) O-NO 59 0 min 0,000 mm 0,0 UV-I 111 W/m 5,5 C 3,4 C 14,5 km/h (3 Bft) 100,00 %
02.03.2016 16:07 6,7 C 93 % 1001,2 hPa 0,0 l/m 13,8 km/h (3 Bft) NO 50 0 min 0,000 mm 0,0 UV-I 111 W/m 5,6 C 1,7 C 17,7 km/h (3 Bft) 100,00 %
02.03.2016 16:08 6,7 C 93 % 1001,1 hPa 0,0 l/m 12,2 km/h (2 Bft) NO 48 0 min 0,000 mm 0,0 UV-I 111 W/m 5,6 C 2,6 C 16,1 km/h (3 Bft) 100,00 %
02.03.2016 16:09 6,7 C 93 % 1001,1 hPa 0,0 l/m 12,0 km/h (2 Bft) O-NO 57 0 min 0,000 mm 0,0 UV-I 109 W/m 5,6 C 2,7 C 16,1 km/h (3 Bft) 92,31 %
02.03.2016 16:10 6,7 C 93 % 1001,1 hPa 0,0 l/m 9,6 km/h (2 Bft) NO 56 0 min 0,000 mm 0,0 UV-I 107 W/m 5,6 C 4,2 C 16,1 km/h (3 Bft) 100,00 %
02.03.2016 16:11 6,7 C 93 % 1001,0 hPa 0,0 l/m 12,1 km/h (2 Bft) O-NO 57 0 min 0,000 mm 0,0 UV-I 106 W/m 5,6 C 2,7 C 17,7 km/h (3 Bft) 100,00 %
02.03.2016 16:12 6,7 C 92 % 1001,0 hPa 0,0 l/m 12,2 km/h (2 Bft) O-NO 61 0 min 0,000 mm 0,0 UV-I 105 W/m 5,5 C 2,6 C 16,1 km/h (3 Bft) 100,00 %
02.03.2016 16:13 6,7 C 93 % 1001,0 hPa 0,0 l/m 10,9 km/h (2 Bft) O-NO 67 0 min 0,000 mm 0,0 UV-I 105 W/m 5,6 C 3,4 C 14,5 km/h (3 Bft) 100,00 %
02.03.2016 16:14 6,7 C 93 % 1001,0 hPa 0,0 l/m 8,2 km/h (2 Bft) O-NO 63 0 min 0,000 mm 0,0 UV-I 104 W/m 5,6 C 5,2 C 11,3 km/h (2 Bft) 100,00 %
02.03.2016 16:15 6,7 C 93 % 1001,0 hPa 0,0 l/m 9,3 km/h (2 Bft) NO 51 0 min 0,000 mm 0,0 UV-I 104 W/m 5,6 C 4,4 C 11,3 km/h (2 Bft) 100,00 %
02.03.2016 16:16 6,7 C 93 % 1000,9 hPa 0,0 l/m 7,2 km/h (2 Bft) O-NO 66 0 min 0,000 mm 0,0 UV-I 105 W/m 5,6 C 6,0 C 11,3 km/h (2 Bft) 100,00 %
02.03.2016 16:17 6,7 C 93 % 1000,9 hPa 0,0 l/m 7,8 km/h (2 Bft) NO 51 0 min 0,000 mm 0,0 UV-I 105 W/m 5,6 C 5,5 C 9,7 km/h (2 Bft) 100,00 %
02.03.2016 16:18 6,7 C 93 % 1000,9 hPa 0,0 l/m 6,7 km/h (2 Bft) NO 52 0 min 0,000 mm 0,0 UV-I 105 W/m 5,6 C 6,5 C 8,0 km/h (2 Bft) 98,59 %
02.03.2016 16:19 6,7 C 93 % 1000,9 hPa 0,0 l/m 6,5 km/h (2 Bft) NO 55 0 min 0,000 mm 0,0 UV-I 105 W/m 5,6 C 6,6 C 11,3 km/h (2 Bft) 100,00 %
02.03.2016 16:20 6,7 C 93 % 1000,9 hPa 0,0 l/m 5,9 km/h (2 Bft) O-NO 69 0 min 0,000 mm 0,0 UV-I 105 W/m 5,6 C 6,7 C 8,0 km/h (2 Bft) 100,00 %
02.03.2016 16:21 6,7 C 93 % 1000,9 hPa 0,0 l/m 5,2 km/h (1 Bft) NO 40 0 min 0,000 mm 0,0 UV-I 105 W/m 5,6 C 6,7 C 6,4 km/h (2 Bft) 100,00 %
02.03.2016 16:22 6,7 C 93 % 1000,8 hPa 0,0 l/m 7,1 km/h (2 Bft) O-NO 59 0 min 0,000 mm 0,0 UV-I 103 W/m 5,6 C 6,1 C 9,7 km/h (2 Bft) 100,00 %
02.03.2016 16:23 6,7 C 93 % 1000,8 hPa 0,0 l/m 8,6 km/h (2 Bft) NO 55 0 min 0,000 mm 0,0 UV-I 102 W/m 5,6 C 4,9 C 14,5 km/h (3 Bft) 100,00 %
02.03.2016 16:24 6,7 C 93 % 1000,7 hPa 0,0 l/m 8,0 km/h (2 Bft) O-NO 65 0 min 0,000 mm 0,0 UV-I 101 W/m 5,6 C 5,4 C 9,7 km/h (2 Bft) 98,60 %
02.03.2016 16:25 6,6 C 93 % 1000,7 hPa 0,0 l/m 7,9 km/h (2 Bft) NO 56 0 min 0,000 mm 0,0 UV-I 100 W/m 5,6 C 5,4 C 12,9 km/h (3 Bft) 100,00 %
02.03.2016 16:26 6,7 C 93 % 1000,6 hPa 0,0 l/m 10,0 km/h (2 Bft) NO 40 0 min 0,000 mm 0,0 UV-I 102 W/m 5,6 C 4,0 C 14,5 km/h (3 Bft) 100,00 %
02.03.2016 16:27 6,7 C 93 % 1000,6 hPa 0,0 l/m 12,1 km/h (2 Bft) O-NO 62 0 min 0,000 mm 0,0 UV-I 104 W/m 5,6 C 2,7 C 16,1 km/h (3 Bft) 98,61 %
02.03.2016 16:28 6,6 C 93 % 1000,6 hPa 0,0 l/m 10,9 km/h (2 Bft) NO 45 0 min 0,000 mm 0,0 UV-I 104 W/m 5,6 C 3,3 C 14,5 km/h (3 Bft) 95,74 %
02.03.2016 16:29 6,6 C 93 % 1000,6 hPa 0,0 l/m 11,3 km/h (2 Bft) O 82 0 min 0,000 mm 0,0 UV-I 99 W/m 5,6 C 3,0 C 14,5 km/h (3 Bft) 100,00 %
02.03.2016 16:30 6,6 C 93 % 1000,5 hPa 0,0 l/m 10,8 km/h (2 Bft) N-NO 32 0 min 0,000 mm 0,0 UV-I 96 W/m 5,6 C 3,3 C 14,5 km/h (3 Bft) 100,00 %
02.03.2016 16:31 6,6 C 93 % 1000,5 hPa 0,0 l/m 10,6 km/h (2 Bft) O-NO 69 0 min 0,000 mm 0,0 UV-I 94 W/m 5,6 C 3,4 C 16,1 km/h (3 Bft) 100,00 %
02.03.2016 16:32 6,6 C 93 % 1000,5 hPa 0,0 l/m 11,9 km/h (2 Bft) NO 53 0 min 0,000 mm 0,0 UV-I 93 W/m 5,6 C 2,7 C 14,5 km/h (3 Bft) 100,00 %
02.03.2016 16:33 6,6 C 93 % 1000,4 hPa 0,0 l/m 10,4 km/h (2 Bft) NO 35 0 min 0,000 mm 0,0 UV-I 91 W/m 5,6 C 3,6 C 14,5 km/h (3 Bft) 100,00 %
02.03.2016 16:34 6,6 C 93 % 1000,4 hPa 0,0 l/m 10,8 km/h (2 Bft) O-NO 60 0 min 0,000 mm 0,0 UV-I 90 W/m 5,6 C 3,3 C 14,5 km/h (3 Bft) 100,00 %
02.03.2016 16:35 6,6 C 93 % 1000,4 hPa 0,0 l/m 9,5 km/h (2 Bft) NO 53 0 min 0,000 mm 0,0 UV-I 86 W/m 5,6 C 4,2 C 12,9 km/h (3 Bft) 100,00 %
02.03.2016 16:36 6,6 C 93 % 1000,3 hPa 0,0 l/m 9,4 km/h (2 Bft) N-NO 29 0 min 0,000 mm 0,0 UV-I 83 W/m 5,6 C 4,2 C 14,5 km/h (3 Bft) 95,65 %
02.03.2016 16:37 6,6 C 93 % 1000,3 hPa 0,0 l/m 9,1 km/h (2 Bft) NO 55 0 min 0,000 mm 0,0 UV-I 81 W/m 5,6 C 4,5 C 14,5 km/h (3 Bft) 100,00 %
02.03.2016 16:38 6,6 C 93 % 1000,2 hPa 0,0 l/m 9,5 km/h (2 Bft) NO 49 0 min 0,000 mm 0,0 UV-I 79 W/m 5,6 C 4,2 C 14,5 km/h (3 Bft) 100,00 %
02.03.2016 16:39 6,5 C 93 % 1000,2 hPa 0,0 l/m 7,3 km/h (2 Bft) O-NO 63 0 min 0,000 mm 0,0 UV-I 77 W/m 5,5 C 5,7 C 8,0 km/h (2 Bft) 100,00 %
02.03.2016 16:40 6,5 C 93 % 1000,2 hPa 0,0 l/m 8,9 km/h (2 Bft) O-NO 61 0 min 0,000 mm 0,0 UV-I 75 W/m 5,5 C 4,5 C 11,3 km/h (2 Bft) 92,31 %
02.03.2016 16:41 6,5 C 93 % 1000,2 hPa 0,0 l/m 9,7 km/h (2 Bft) O-NO 63 0 min 0,000 mm 0,0 UV-I 73 W/m 5,5 C 3,9 C 12,9 km/h (3 Bft) 100,00 %
02.03.2016 16:42 6,5 C 93 % 1000,1 hPa 0,0 l/m 11,5 km/h (2 Bft) NO 46 0 min 0,000 mm 0,0 UV-I 72 W/m 5,5 C 2,8 C 14,5 km/h (3 Bft) 100,00 %
02.03.2016 16:43 6,5 C 93 % 1000,0 hPa 0,0 l/m 9,5 km/h (2 Bft) N-NO 26 0 min 0,000 mm 0,0 UV-I 70 W/m 5,5 C 4,1 C 16,1 km/h (3 Bft) 96,30 %
02.03.2016 16:44 6,5 C 93 % 1000,0 hPa 0,0 l/m 11,5 km/h (2 Bft) O-NO 59 0 min 0,000 mm 0,0 UV-I 69 W/m 5,5 C 2,8 C 16,1 km/h (3 Bft) 100,00 %
02.03.2016 16:45 6,4 C 93 % 999,9 hPa 0,0 l/m 10,0 km/h (2 Bft) O-NO 59 0 min 0,000 mm 0,0 UV-I 69 W/m 5,4 C 3,6 C 14,5 km/h (3 Bft) 100,00 %
02.03.2016 16:46 6,4 C 93 % 999,9 hPa 0,0 l/m 7,8 km/h (2 Bft) N-NO 31 0 min 0,000 mm 0,0 UV-I 67 W/m 5,4 C 5,2 C 11,3 km/h (2 Bft) 100,00 %
02.03.2016 16:47 6,4 C 93 % 999,9 hPa 0,0 l/m 9,4 km/h (2 Bft) NO 51 0 min 0,000 mm 0,0 UV-I 66 W/m 5,4 C 4,0 C 14,5 km/h (3 Bft) 100,00 %
02.03.2016 16:48 6,4 C 93 % 999,9 hPa 0,0 l/m 10,8 km/h (2 Bft) NO 44 0 min 0,000 mm 0,0 UV-I 64 W/m 5,4 C 3,1 C 16,1 km/h (3 Bft) 100,00 %
02.03.2016 16:49 6,4 C 93 % 999,9 hPa 0,0 l/m 9,5 km/h (2 Bft) NO 42 0 min 0,000 mm 0,0 UV-I 63 W/m 5,4 C 4,0 C 14,5 km/h (3 Bft) 100,00 %
02.03.2016 16:50 6,4 C 93 % 999,9 hPa 0,0 l/m 9,9 km/h (2 Bft) N-NO 28 0 min 0,000 mm 0,0 UV-I 62 W/m 5,4 C 3,7 C 14,5 km/h (3 Bft) 100,00 %
02.03.2016 16:51 6,4 C 93 % 999,9 hPa 0,0 l/m 7,2 km/h (2 Bft) NO 44 0 min 0,000 mm 0,0 UV-I 60 W/m 5,4 C 5,7 C 11,3 km/h (2 Bft) 96,15 %
02.03.2016 16:52 6,4 C 93 % 999,9 hPa 0,0 l/m 6,8 km/h (2 Bft) NO 39 0 min 0,000 mm 0,0 UV-I 59 W/m 5,4 C 6,1 C 11,3 km/h (2 Bft) 100,00 %
02.03.2016 16:53 6,3 C 93 % 999,9 hPa 0,0 l/m 7,8 km/h (2 Bft) N-NO 30 0 min 0,000 mm 0,0 UV-I 57 W/m 5,3 C 5,1 C 12,9 km/h (3 Bft) 100,00 %
02.03.2016 16:54 6,3 C 93 % 999,9 hPa 0,0 l/m 5,8 km/h (2 Bft) N-NO 27 0 min 0,000 mm 0,0 UV-I 56 W/m 5,3 C 6,3 C 9,7 km/h (2 Bft) 95,83 %
02.03.2016 16:55 6,3 C 93 % 999,8 hPa 0,0 l/m 6,3 km/h (2 Bft) N 9 0 min 0,000 mm 0,0 UV-I 54 W/m 5,3 C 6,3 C 9,7 km/h (2 Bft) 100,00 %
02.03.2016 16:56 6,4 C 93 % 999,8 hPa 0,0 l/m 4,8 km/h (1 Bft) N-NO 22 0 min 0,000 mm 0,0 UV-I 53 W/m 5,4 C 6,4 C 8,0 km/h (2 Bft) 100,00 %
02.03.2016 16:57 6,3 C 94 % 999,8 hPa 0,0 l/m 3,3 km/h (1 Bft) N-NO 22 0 min 0,000 mm 0,0 UV-I 52 W/m 5,4 C 6,3 C 4,8 km/h (1 Bft) 100,00 %
02.03.2016 16:58 6,4 C 94 % 999,8 hPa 0,0 l/m 6,1 km/h (2 Bft) N-NO 24 0 min 0,000 mm 0,0 UV-I 50 W/m 5,5 C 6,4 C 8,0 km/h (2 Bft) 100,00 %
02.03.2016 16:59 6,3 C 94 % 999,7 hPa 0,0 l/m 6,7 km/h (2 Bft) NO 54 0 min 0,000 mm 0,0 UV-I 49 W/m 5,4 C 6,1 C 11,3 km/h (2 Bft) 100,00 %
02.03.2016 17:00 6,3 C 93 % 999,7 hPa 0,0 l/m 8,4 km/h (2 Bft) N-NO 26 0 min 0,000 mm 0,0 UV-I 48 W/m 5,3 C 4,7 C 12,9 km/h (3 Bft) 100,00 %
02.03.2016 17:01 6,3 C 93 % 999,6 hPa 0,0 l/m 6,7 km/h (2 Bft) N-NO 31 0 min 0,050 mm 0,0 UV-I 46 W/m 5,3 C 6,1 C 8,0 km/h (2 Bft) 100,00 %
02.03.2016 17:02 6,3 C 93 % 999,6 hPa 0,0 l/m 6,0 km/h (2 Bft) N-NO 13 0 min 0,000 mm 0,0 UV-I 44 W/m 5,3 C 6,3 C 8,0 km/h (2 Bft) 100,00 %
02.03.2016 17:03 6,3 C 94 % 999,6 hPa 0,0 l/m 5,9 km/h (2 Bft) NO 44 0 min 0,000 mm 0,0 UV-I 43 W/m 5,4 C 6,3 C 8,0 km/h (2 Bft) 100,00 %
02.03.2016 17:04 6,3 C 94 % 999,6 hPa 0,0 l/m 5,4 km/h (1 Bft) N 9 0 min 0,000 mm 0,0 UV-I 41 W/m 5,4 C 6,3 C 8,0 km/h (2 Bft) 100,00 %
02.03.2016 17:05 6,3 C 94 % 999,5 hPa 0,0 l/m 5,2 km/h (1 Bft) NO 36 0 min 0,000 mm 0,0 UV-I 40 W/m 5,4 C 6,3 C 8,0 km/h (2 Bft) 100,00 %
02.03.2016 17:06 6,3 C 94 % 999,5 hPa 0,0 l/m 5,6 km/h (1 Bft) N-NO 18 0 min 0,000 mm 0,0 UV-I 39 W/m 5,4 C 6,3 C 8,0 km/h (2 Bft) 100,00 %
02.03.2016 17:07 6,2 C 94 % 999,5 hPa 0,0 l/m 7,0 km/h (2 Bft) N-NO 26 0 min 0,000 mm 0,0 UV-I 37 W/m 5,3 C 5,7 C 11,3 km/h (2 Bft) 100,00 %
02.03.2016 17:08 6,2 C 93 % 999,5 hPa 0,0 l/m 5,6 km/h (1 Bft) N 11 0 min 0,000 mm 0,0 UV-I 37 W/m 5,2 C 6,2 C 8,0 km/h (2 Bft) 100,00 %
02.03.2016 17:09 6,2 C 93 % 999,4 hPa 0,0 l/m 4,6 km/h (1 Bft) N 5 0 min 0,000 mm 0,0 UV-I 34 W/m 5,2 C 6,2 C 8,0 km/h (2 Bft) 100,00 %
02.03.2016 17:10 6,2 C 93 % 999,4 hPa 0,0 l/m 5,1 km/h (1 Bft) N-NO 26 0 min 0,000 mm 0,0 UV-I 33 W/m 5,2 C 6,2 C 8,0 km/h (2 Bft) 100,00 %
02.03.2016 17:11 6,2 C 94 % 999,4 hPa 0,0 l/m 3,1 km/h (1 Bft) N-NO 23 0 min 0,000 mm 0,0 UV-I 33 W/m 5,3 C 6,2 C 6,4 km/h (2 Bft) 100,00 %
02.03.2016 17:12 6,1 C 94 % 999,4 hPa 0,0 l/m 2,8 km/h (1 Bft) N-NO 19 0 min 0,000 mm 0,0 UV-I 32 W/m 5,2 C 6,1 C 4,8 km/h (1 Bft) 100,00 %
02.03.2016 17:13 6,1 C 94 % 999,4 hPa 0,0 l/m 3,1 km/h (1 Bft) N-NO 28 0 min 0,000 mm 0,0 UV-I 32 W/m 5,2 C 6,1 C 6,4 km/h (2 Bft) 100,00 %
02.03.2016 17:14 6,1 C 94 % 999,4 hPa 0,0 l/m 4,3 km/h (1 Bft) N-NO 24 0 min 0,000 mm 0,0 UV-I 30 W/m 5,2 C 6,1 C 8,0 km/h (2 Bft) 100,00 %
02.03.2016 17:15 6,1 C 94 % 999,4 hPa 0,0 l/m 3,8 km/h (1 Bft) N 11 0 min 0,000 mm 0,0 UV-I 29 W/m 5,2 C 6,1 C 8,0 km/h (2 Bft) 100,00 %
02.03.2016 17:16 6,1 C 94 % 999,3 hPa 0,0 l/m 5,0 km/h (1 Bft) N-NO 30 0 min 0,000 mm 0,0 UV-I 28 W/m 5,2 C 6,1 C 8,0 km/h (2 Bft) 100,00 %
02.03.2016 17:17 6,0 C 94 % 999,3 hPa 0,0 l/m 6,8 km/h (2 Bft) N 5 0 min 0,000 mm 0,0 UV-I 27 W/m 5,1 C 5,7 C 11,3 km/h (2 Bft) 96,67 %
02.03.2016 17:18 6,0 C 94 % 999,2 hPa 0,0 l/m 8,3 km/h (2 Bft) N-NO 19 0 min 0,000 mm 0,0 UV-I 26 W/m 5,1 C 4,4 C 12,9 km/h (3 Bft) 96,15 %
02.03.2016 17:19 6,0 C 94 % 999,2 hPa 0,0 l/m 6,6 km/h (2 Bft) N-NO 22 0 min 0,000 mm 0,0 UV-I 26 W/m 5,1 C 5,9 C 9,7 km/h (2 Bft) 100,00 %
02.03.2016 17:20 6,0 C 94 % 999,2 hPa 0,0 l/m 9,3 km/h (2 Bft) N-NO 24 0 min 0,000 mm 0,0 UV-I 25 W/m 5,1 C 3,7 C 12,9 km/h (3 Bft) 100,00 %
02.03.2016 17:21 5,9 C 94 % 999,2 hPa 0,0 l/m 8,6 km/h (2 Bft) NO 40 0 min 0,000 mm 0,0 UV-I 24 W/m 5,0 C 4,1 C 11,3 km/h (2 Bft) 100,00 %
02.03.2016 17:22 5,9 C 94 % 999,2 hPa 0,0 l/m 8,4 km/h (2 Bft) NO 50 0 min 0,000 mm 0,0 UV-I 23 W/m 5,0 C 4,2 C 14,5 km/h (3 Bft) 100,00 %
02.03.2016 17:23 5,9 C 94 % 999,1 hPa 0,0 l/m 8,3 km/h (2 Bft) N-NO 22 0 min 0,000 mm 0,0 UV-I 22 W/m 5,0 C 4,3 C 11,3 km/h (2 Bft) 100,00 %
02.03.2016 17:24 5,9 C 94 % 999,0 hPa 0,0 l/m 8,3 km/h (2 Bft) NO 35 0 min 0,000 mm 0,0 UV-I 21 W/m 5,0 C 4,3 C 11,3 km/h (2 Bft) 100,00 %
02.03.2016 17:25 5,9 C 94 % 999,0 hPa 0,0 l/m 9,1 km/h (2 Bft) N-NO 15 0 min 0,000 mm 0,0 UV-I 19 W/m 5,0 C 3,7 C 14,5 km/h (3 Bft) 100,00 %
02.03.2016 17:26 5,9 C 94 % 999,0 hPa 0,0 l/m 10,0 km/h (2 Bft) NO 44 0 min 0,000 mm 0,0 UV-I 19 W/m 5,0 C 3,1 C 14,5 km/h (3 Bft) 100,00 %
02.03.2016 17:27 5,9 C 94 % 998,9 hPa 0,0 l/m 8,4 km/h (2 Bft) N-NO 26 0 min 0,000 mm 0,0 UV-I 18 W/m 5,0 C 4,2 C 14,5 km/h (3 Bft) 100,00 %
02.03.2016 17:28 5,8 C 94 % 999,0 hPa 0,0 l/m 8,1 km/h (2 Bft) N-NO 15 0 min 0,000 mm 0,0 UV-I 17 W/m 4,9 C 4,4 C 12,9 km/h (3 Bft) 100,00 %
02.03.2016 17:29 5,8 C 94 % 998,9 hPa 0,0 l/m 8,9 km/h (2 Bft) N-NO 30 0 min 0,000 mm 0,0 UV-I 16 W/m 4,9 C 3,7 C 12,9 km/h (3 Bft) 100,00 %
02.03.2016 17:30 5,8 C 94 % 998,9 hPa 0,0 l/m 8,7 km/h (2 Bft) N-NO 26 0 min 0,000 mm 0,0 UV-I 16 W/m 4,9 C 3,9 C 12,9 km/h (3 Bft) 100,00 %
02.03.2016 17:31 5,8 C 94 % 998,9 hPa 0,0 l/m 8,7 km/h (2 Bft) N-NO 28 0 min 0,000 mm 0,0 UV-I 14 W/m 4,9 C 3,9 C 12,9 km/h (3 Bft) 100,00 %
02.03.2016 17:32 5,8 C 94 % 998,9 hPa 0,0 l/m 9,0 km/h (2 Bft) N-NO 21 0 min 0,000 mm 0,0 UV-I 14 W/m 4,9 C 3,7 C 14,5 km/h (3 Bft) 96,30 %
02.03.2016 17:33 5,8 C 94 % 998,8 hPa 0,0 l/m 7,1 km/h (2 Bft) N-NO 18 0 min 0,000 mm 0,0 UV-I 13 W/m 4,9 C 5,2 C 11,3 km/h (2 Bft) 100,00 %
02.03.2016 17:34 5,8 C 94 % 998,8 hPa 0,0 l/m 6,9 km/h (2 Bft) N-NO 16 0 min 0,000 mm 0,0 UV-I 12 W/m 4,9 C 5,4 C 11,3 km/h (2 Bft) 96,30 %
02.03.2016 17:35 5,8 C 94 % 998,8 hPa 0,0 l/m 4,3 km/h (1 Bft) N-NO 18 0 min 0,000 mm 0,0 UV-I 12 W/m 4,9 C 5,8 C 6,4 km/h (2 Bft) 96,55 %
02.03.2016 17:36 5,8 C 94 % 998,8 hPa 0,0 l/m 5,0 km/h (1 Bft) N-NO 17 0 min 0,000 mm 0,0 UV-I 12 W/m 4,9 C 5,8 C 8,0 km/h (2 Bft) 95,83 %
02.03.2016 17:37 5,7 C 94 % 998,8 hPa 0,0 l/m 5,2 km/h (1 Bft) N-NO 27 0 min 0,000 mm 0,0 UV-I 11 W/m 4,8 C 5,7 C 9,7 km/h (2 Bft) 95,65 %
02.03.2016 17:38 5,7 C 94 % 998,8 hPa 0,0 l/m 4,1 km/h (1 Bft) N-NO 17 0 min 0,000 mm 0,0 UV-I 10 W/m 4,8 C 5,7 C 11,3 km/h (2 Bft) 95,83 %
02.03.2016 17:39 5,7 C 94 % 998,8 hPa 0,0 l/m 3,8 km/h (1 Bft) N-NO 23 0 min 0,000 mm 0,0 UV-I 9 W/m 4,8 C 5,7 C 6,4 km/h (2 Bft) 94,12 %
02.03.2016 17:40 5,7 C 94 % 998,8 hPa 0,0 l/m 3,1 km/h (1 Bft) N-NO 14 0 min 0,000 mm 0,0 UV-I 8 W/m 4,8 C 5,7 C 6,4 km/h (2 Bft) 100,00 %
02.03.2016 17:41 5,7 C 94 % 998,8 hPa 0,0 l/m 4,1 km/h (1 Bft) N 5 0 min 0,000 mm 0,0 UV-I 7 W/m 4,8 C 5,7 C 9,7 km/h (2 Bft) 96,55 %
02.03.2016 17:42 5,7 C 94 % 998,8 hPa 0,0 l/m 4,3 km/h (1 Bft) N 9 0 min 0,000 mm 0,0 UV-I 7 W/m 4,8 C 5,7 C 8,0 km/h (2 Bft) 95,83 %
02.03.2016 17:43 5,6 C 94 % 998,8 hPa 0,0 l/m 5,5 km/h (1 Bft) N-NO 15 0 min 0,000 mm 0,0 UV-I 5 W/m 4,7 C 5,6 C 9,7 km/h (2 Bft) 100,00 %
02.03.2016 17:44 5,6 C 94 % 998,8 hPa 0,0 l/m 7,0 km/h (2 Bft) NO 35 0 min 0,000 mm 0,0 UV-I 5 W/m 4,7 C 5,1 C 12,9 km/h (3 Bft) 95,83 %
02.03.2016 17:45 5,6 C 94 % 998,7 hPa 0,0 l/m 6,2 km/h (2 Bft) N-NO 32 0 min 0,000 mm 0,0 UV-I 5 W/m 4,7 C 5,6 C 8,0 km/h (2 Bft) 100,00 %
02.03.2016 17:46 5,6 C 94 % 998,7 hPa 0,0 l/m 5,0 km/h (1 Bft) N-NO 26 0 min 0,000 mm 0,0 UV-I 2 W/m 4,7 C 5,6 C 6,4 km/h (2 Bft) 92,31 %
02.03.2016 17:47 5,6 C 94 % 998,7 hPa 0,0 l/m 6,9 km/h (2 Bft) N-NO 19 0 min 0,000 mm 0,0 UV-I 0 W/m 4,7 C 5,2 C 8,0 km/h (2 Bft) 93,33 %
02.03.2016 17:48 5,6 C 94 % 998,7 hPa 0,0 l/m 5,4 km/h (1 Bft) N-NO 33 0 min 0,000 mm 0,0 UV-I 0 W/m 4,7 C 5,6 C 8,0 km/h (2 Bft) 97,37 %
02.03.2016 17:49 5,6 C 94 % 998,7 hPa 0,0 l/m 6,3 km/h (2 Bft) N-NO 17 0 min 0,000 mm 0,0 UV-I 0 W/m 4,7 C 5,6 C 8,0 km/h (2 Bft) 96,15 %
02.03.2016 17:50 5,5 C 94 % 998,7 hPa 0,0 l/m 5,2 km/h (1 Bft) N-NO 26 0 min 0,000 mm 0,0 UV-I 0 W/m 4,6 C 5,5 C 6,4 km/h (2 Bft) 100,00 %
02.03.2016 17:51 5,5 C 94 % 998,7 hPa 0,0 l/m 2,7 km/h (1 Bft) N-NO 26 0 min 0,000 mm 0,0 UV-I 0 W/m 4,6 C 5,5 C 6,4 km/h (2 Bft) 91,30 %
02.03.2016 17:52 5,5 C 94 % 998,6 hPa 0,0 l/m 0,6 km/h (0 Bft) N-NO 33 0 min 0,000 mm 0,0 UV-I 0 W/m 4,6 C 5,5 C 1,6 km/h (1 Bft) 100,00 %
02.03.2016 17:53 5,4 C 94 % 998,7 hPa 0,0 l/m 0,9 km/h (0 Bft) N-NW 336 0 min 0,000 mm 0,0 UV-I 0 W/m 4,5 C 5,4 C 1,6 km/h (1 Bft) 94,44 %
02.03.2016 17:54 5,4 C 94 % 998,7 hPa 0,0 l/m 0,9 km/h (0 Bft) N-NW 331 0 min 0,000 mm 0,0 UV-I 0 W/m 4,5 C 5,4 C 3,2 km/h (1 Bft) 100,00 %
02.03.2016 17:55 5,4 C 94 % 998,7 hPa 0,0 l/m 3,0 km/h (1 Bft) NW 311 0 min 0,000 mm 0,0 UV-I 0 W/m 4,5 C 5,4 C 6,4 km/h (2 Bft) 96,30 %
02.03.2016 17:56 5,4 C 94 % 998,8 hPa 0,0 l/m 2,3 km/h (1 Bft) N-NW 342 0 min 0,000 mm 0,0 UV-I 0 W/m 4,5 C 5,4 C 4,8 km/h (1 Bft) 95,65 %
02.03.2016 17:57 5,4 C 95 % 998,8 hPa 0,0 l/m 2,9 km/h (1 Bft) N-NW 331 0 min 0,000 mm 0,0 UV-I 0 W/m 4,7 C 5,4 C 4,8 km/h (1 Bft) 100,00 %
02.03.2016 17:58 5,4 C 95 % 998,8 hPa 0,0 l/m 2,5 km/h (1 Bft) N-NW 327 0 min 0,000 mm 0,0 UV-I 0 W/m 4,7 C 5,4 C 4,8 km/h (1 Bft) 95,65 %
02.03.2016 17:59 5,4 C 95 % 998,8 hPa 0,0 l/m 2,1 km/h (1 Bft) N-NW 328 0 min 0,000 mm 0,0 UV-I 0 W/m 4,7 C 5,4 C 4,8 km/h (1 Bft) 100,00 %
02.03.2016 18:00 5,3 C 95 % 998,8 hPa 0,0 l/m 2,1 km/h (1 Bft) N-NW 328 0 min 0,000 mm 0,0 UV-I 0 W/m 4,6 C 5,3 C 3,2 km/h (1 Bft) 95,65 %
02.03.2016 18:01 5,3 C 95 % 998,8 hPa 0,0 l/m 2,1 km/h (1 Bft) NW 326 0 min 0,000 mm 0,0 UV-I 0 W/m 4,6 C 5,3 C 3,2 km/h (1 Bft) 100,00 %
02.03.2016 18:04 5,3 C 95 % 998,8 hPa 0,0 l/m 2,1 km/h (1 Bft) N-NW 346 0 min 0,000 mm 0,0 UV-I 0 W/m 4,6 C 5,3 C 3,2 km/h (1 Bft) 94,87 %
02.03.2016 18:05 5,3 C 95 % 998,8 hPa 0,0 l/m 2,1 km/h (1 Bft) N 351 0 min 0,000 mm 0,0 UV-I 0 W/m 4,6 C 5,3 C 4,8 km/h (1 Bft) 95,83 %
02.03.2016 18:06 5,3 C 95 % 998,8 hPa 0,0 l/m 2,5 km/h (1 Bft) N-NW 333 0 min 0,000 mm 0,0 UV-I 0 W/m 4,6 C 5,3 C 4,8 km/h (1 Bft) 100,00 %
02.03.2016 18:07 5,3 C 95 % 998,8 hPa 0,0 l/m 2,0 km/h (1 Bft) N-NW 329 0 min 0,000 mm 0,0 UV-I 0 W/m 4,6 C 5,3 C 4,8 km/h (1 Bft) 93,33 %
02.03.2016 18:08 5,3 C 95 % 998,8 hPa 0,0 l/m 1,2 km/h (1 Bft) NW 325 0 min 0,000 mm 0,0 UV-I 0 W/m 4,6 C 5,3 C 3,2 km/h (1 Bft) 100,00 %
02.03.2016 18:09 5,2 C 95 % 998,8 hPa 0,0 l/m 1,6 km/h (1 Bft) NW 325 0 min 0,000 mm 0,0 UV-I 0 W/m 4,5 C 5,2 C 3,2 km/h (1 Bft) 100,00 %
02.03.2016 18:10 5,2 C 95 % 998,8 hPa 0,0 l/m 1,7 km/h (1 Bft) N-NW 332 0 min 0,000 mm 0,0 UV-I 0 W/m 4,5 C 5,2 C 3,2 km/h (1 Bft) 91,67 %
02.03.2016 18:11 5,2 C 95 % 998,8 hPa 0,0 l/m 2,0 km/h (1 Bft) N-NW 335 0 min 0,000 mm 0,0 UV-I 0 W/m 4,5 C 5,2 C 4,8 km/h (1 Bft) 100,00 %
02.03.2016 18:12 5,2 C 95 % 998,8 hPa 0,0 l/m 2,8 km/h (1 Bft) N-NW 327 0 min 0,000 mm 0,0 UV-I 0 W/m 4,5 C 5,2 C 4,8 km/h (1 Bft) 100,00 %
02.03.2016 18:13 5,2 C 95 % 998,9 hPa 0,0 l/m 2,7 km/h (1 Bft) NW 306 0 min 0,000 mm 0,0 UV-I 0 W/m 4,5 C 5,2 C 4,8 km/h (1 Bft) 100,00 %
02.03.2016 18:14 5,2 C 95 % 998,9 hPa 0,0 l/m 1,9 km/h (1 Bft) NW 317 0 min 0,000 mm 0,0 UV-I 0 W/m 4,5 C 5,2 C 4,8 km/h (1 Bft) 96,30 %
02.03.2016 18:15 5,2 C 95 % 998,9 hPa 0,0 l/m 2,0 km/h (1 Bft) N-NW 331 0 min 0,000 mm 0,0 UV-I 0 W/m 4,5 C 5,2 C 4,8 km/h (1 Bft) 100,00 %
02.03.2016 18:16 5,1 C 95 % 999,0 hPa 0,0 l/m 1,7 km/h (1 Bft) N-NW 331 0 min 0,000 mm 0,0 UV-I 0 W/m 4,4 C 5,1 C 3,2 km/h (1 Bft) 96,30 %
02.03.2016 18:17 5,1 C 95 % 999,0 hPa 0,0 l/m 2,0 km/h (1 Bft) NW 325 0 min 0,000 mm 0,0 UV-I 0 W/m 4,4 C 5,1 C 3,2 km/h (1 Bft) 100,00 %
02.03.2016 18:18 5,1 C 95 % 999,0 hPa 0,0 l/m 2,9 km/h (1 Bft) N-NW 336 0 min 0,000 mm 0,0 UV-I 0 W/m 4,4 C 5,1 C 4,8 km/h (1 Bft) 100,00 %
02.03.2016 18:19 5,1 C 95 % 999,0 hPa 0,0 l/m 2,7 km/h (1 Bft) NW 323 0 min 0,000 mm 0,0 UV-I 0 W/m 4,4 C 5,1 C 4,8 km/h (1 Bft) 100,00 %
02.03.2016 18:20 5,1 C 95 % 999,1 hPa 0,0 l/m 1,6 km/h (1 Bft) NW 312 0 min 0,000 mm 0,0 UV-I 0 W/m 4,4 C 5,1 C 3,2 km/h (1 Bft) 100,00 %
02.03.2016 18:21 5,0 C 95 % 999,1 hPa 0,0 l/m 1,9 km/h (1 Bft) N-NW 348 0 min 0,000 mm 0,0 UV-I 0 W/m 4,3 C 5,0 C 4,8 km/h (1 Bft) 100,00 %
02.03.2016 18:22 5,0 C 95 % 999,2 hPa 0,0 l/m 1,0 km/h (0 Bft) N-NW 348 0 min 0,000 mm 0,0 UV-I 0 W/m 4,3 C 5,0 C 3,2 km/h (1 Bft) 100,00 %
02.03.2016 18:23 5,0 C 95 % 999,2 hPa 0,0 l/m 1,5 km/h (1 Bft) NW 323 0 min 0,000 mm 0,0 UV-I 0 W/m 4,3 C 5,0 C 3,2 km/h (1 Bft) 100,00 %
02.03.2016 18:24 5,0 C 95 % 999,2 hPa 0,0 l/m 1,4 km/h (1 Bft) NW 323 0 min 0,000 mm 0,0 UV-I 0 W/m 4,3 C 5,0 C 3,2 km/h (1 Bft) 100,00 %
02.03.2016 18:25 5,0 C 95 % 999,3 hPa 0,0 l/m 3,5 km/h (1 Bft) W-NW 302 0 min 0,000 mm 0,0 UV-I 0 W/m 4,3 C 5,0 C 6,4 km/h (2 Bft) 96,15 %
02.03.2016 18:26 5,0 C 95 % 999,3 hPa 0,0 l/m 4,5 km/h (1 Bft) N-NW 339 0 min 0,000 mm 0,0 UV-I 0 W/m 4,3 C 5,0 C 6,4 km/h (2 Bft) 96,30 %
02.03.2016 18:27 5,0 C 95 % 999,4 hPa 0,0 l/m 3,1 km/h (1 Bft) NW 314 0 min 0,000 mm 0,0 UV-I 0 W/m 4,3 C 5,0 C 4,8 km/h (1 Bft) 100,00 %
02.03.2016 18:28 5,0 C 95 % 999,4 hPa 0,0 l/m 1,5 km/h (1 Bft) NW 314 0 min 0,000 mm 0,0 UV-I 0 W/m 4,3 C 5,0 C 3,2 km/h (1 Bft) 100,00 %
02.03.2016 18:29 4,9 C 95 % 999,4 hPa 0,0 l/m 1,1 km/h (1 Bft) NW 313 0 min 0,000 mm 0,0 UV-I 0 W/m 4,2 C 4,9 C 1,6 km/h (1 Bft) 100,00 %
02.03.2016 18:30 4,9 C 95 % 999,5 hPa 0,0 l/m 2,5 km/h (1 Bft) NW 304 0 min 0,000 mm 0,0 UV-I 0 W/m 4,2 C 4,9 C 4,8 km/h (1 Bft) 100,00 %
02.03.2016 18:31 4,9 C 95 % 999,4 hPa 0,0 l/m 1,8 km/h (1 Bft) NW 313 0 min 0,000 mm 0,0 UV-I 0 W/m 4,2 C 4,9 C 3,2 km/h (1 Bft) 100,00 %
02.03.2016 18:32 4,9 C 95 % 999,5 hPa 0,0 l/m 2,6 km/h (1 Bft) NW 315 0 min 0,000 mm 0,0 UV-I 0 W/m 4,2 C 4,9 C 3,2 km/h (1 Bft) 100,00 %
02.03.2016 18:33 4,9 C 95 % 999,4 hPa 0,0 l/m 1,3 km/h (1 Bft) NW 315 0 min 0,000 mm 0,0 UV-I 0 W/m 4,2 C 4,9 C 3,2 km/h (1 Bft) 100,00 %
02.03.2016 18:34 4,9 C 95 % 999,4 hPa 0,0 l/m 1,0 km/h (0 Bft) NW 315 0 min 0,000 mm 0,0 UV-I 0 W/m 4,2 C 4,9 C 3,2 km/h (1 Bft) 100,00 %
02.03.2016 18:35 4,8 C 95 % 999,4 hPa 0,0 l/m 1,6 km/h (1 Bft) NW 320 0 min 0,000 mm 0,0 UV-I 0 W/m 4,1 C 4,8 C 3,2 km/h (1 Bft) 100,00 %
02.03.2016 18:36 4,8 C 95 % 999,5 hPa 0,0 l/m 2,7 km/h (1 Bft) NW 315 0 min 0,000 mm 0,0 UV-I 0 W/m 4,1 C 4,8 C 4,8 km/h (1 Bft) 100,00 %
02.03.2016 18:37 4,8 C 95 % 999,5 hPa 0,0 l/m 4,4 km/h (1 Bft) NW 304 0 min 0,000 mm 0,0 UV-I 0 W/m 4,1 C 4,8 C 6,4 km/h (2 Bft) 100,00 %
02.03.2016 18:38 4,9 C 95 % 999,5 hPa 0,0 l/m 5,5 km/h (1 Bft) N-NW 329 0 min 0,000 mm 0,0 UV-I 0 W/m 4,2 C 4,9 C 8,0 km/h (2 Bft) 100,00 %
02.03.2016 18:39 4,9 C 96 % 999,5 hPa 0,0 l/m 2,0 km/h (1 Bft) NW 305 0 min 0,000 mm 0,0 UV-I 0 W/m 4,3 C 4,9 C 3,2 km/h (1 Bft) 100,00 %
02.03.2016 18:40 4,9 C 95 % 999,6 hPa 0,0 l/m 1,2 km/h (1 Bft) NW 305 0 min 0,000 mm 0,0 UV-I 0 W/m 4,2 C 4,9 C 1,6 km/h (1 Bft) 100,00 %
02.03.2016 18:41 4,9 C 95 % 999,6 hPa 0,0 l/m 0,8 km/h (0 Bft) NW 305 0 min 0,000 mm 0,0 UV-I 0 W/m 4,2 C 4,9 C 1,6 km/h (1 Bft) 100,00 %
02.03.2016 18:42 4,9 C 95 % 999,7 hPa 0,0 l/m 1,7 km/h (1 Bft) W-NW 296 0 min 0,000 mm 0,0 UV-I 0 W/m 4,2 C 4,9 C 3,2 km/h (1 Bft) 100,00 %
02.03.2016 18:43 4,9 C 95 % 999,7 hPa 0,0 l/m 1,2 km/h (1 Bft) W-SW 240 0 min 0,000 mm 0,0 UV-I 0 W/m 4,2 C 4,9 C 1,6 km/h (1 Bft) 100,00 %
02.03.2016 18:44 4,9 C 95 % 999,8 hPa 0,0 l/m 1,7 km/h (1 Bft) W-SW 244 0 min 0,000 mm 0,0 UV-I 0 W/m 4,2 C 4,9 C 8,0 km/h (2 Bft) 100,00 %
02.03.2016 18:45 4,9 C 95 % 999,8 hPa 0,0 l/m 4,0 km/h (1 Bft) NW 316 0 min 0,000 mm 0,0 UV-I 0 W/m 4,2 C 4,9 C 6,4 km/h (2 Bft) 100,00 %
02.03.2016 18:46 4,9 C 95 % 999,8 hPa 0,0 l/m 3,1 km/h (1 Bft) W 276 0 min 0,000 mm 0,0 UV-I 0 W/m 4,2 C 4,9 C 4,8 km/h (1 Bft) 100,00 %
02.03.2016 18:47 5,0 C 95 % 999,8 hPa 0,0 l/m 2,7 km/h (1 Bft) W 276 0 min 0,000 mm 0,0 UV-I 0 W/m 4,3 C 5,0 C 3,2 km/h (1 Bft) 100,00 %
02.03.2016 18:48 5,0 C 95 % 999,9 hPa 0,0 l/m 0,9 km/h (0 Bft) W 276 0 min 0,000 mm 0,0 UV-I 0 W/m 4,3 C 5,0 C 1,6 km/h (1 Bft) 100,00 %
02.03.2016 18:49 5,0 C 95 % 999,9 hPa 0,0 l/m 1,9 km/h (1 Bft) W-NW 285 0 min 0,000 mm 0,0 UV-I 0 W/m 4,3 C 5,0 C 4,8 km/h (1 Bft) 100,00 %
02.03.2016 18:50 5,0 C 95 % 999,9 hPa 0,0 l/m 1,7 km/h (1 Bft) N-NO 15 0 min 0,000 mm 0,0 UV-I 0 W/m 4,3 C 5,0 C 3,2 km/h (1 Bft) 100,00 %
02.03.2016 18:51 5,1 C 95 % 999,9 hPa 0,0 l/m 3,2 km/h (1 Bft) N-NO 13 0 min 0,000 mm 0,0 UV-I 0 W/m 4,4 C 5,1 C 4,8 km/h (1 Bft) 100,00 %
02.03.2016 18:52 5,1 C 95 % 999,9 hPa 0,0 l/m 3,2 km/h (1 Bft) NO 42 0 min 0,000 mm 0,0 UV-I 0 W/m 4,4 C 5,1 C 4,8 km/h (1 Bft) 100,00 %
02.03.2016 18:53 5,1 C 95 % 999,9 hPa 0,0 l/m 0,3 km/h (0 Bft) NO 42 0 min 0,000 mm 0,0 UV-I 0 W/m 4,4 C 5,1 C 1,6 km/h (1 Bft) 100,00 %
02.03.2016 18:54 5,1 C 95 % 999,9 hPa 0,0 l/m 1,3 km/h (1 Bft) NO 42 0 min 0,000 mm 0,0 UV-I 0 W/m 4,4 C 5,1 C 3,2 km/h (1 Bft) 100,00 %
02.03.2016 18:55 5,1 C 95 % 999,9 hPa 0,0 l/m 0,6 km/h (0 Bft) NO 42 0 min 0,000 mm 0,0 UV-I 0 W/m 4,4 C 5,1 C 1,6 km/h (1 Bft) 100,00 %
02.03.2016 18:56 5,1 C 95 % 999,9 hPa 0,0 l/m 0,3 km/h (0 Bft) NO 42 0 min 0,000 mm 0,0 UV-I 0 W/m 4,4 C 5,1 C 1,6 km/h (1 Bft) 100,00 %
02.03.2016 18:57 5,1 C 94 % 999,9 hPa 0,0 l/m 0,0 km/h (0 Bft) NO 42 0 min 0,000 mm 0,0 UV-I 0 W/m 4,2 C 5,1 C 0,0 km/h (0 Bft) 100,00 %
02.03.2016 18:58 5,1 C 94 % 999,9 hPa 0,0 l/m 0,0 km/h (0 Bft) NO 42 0 min 0,000 mm 0,0 UV-I 0 W/m 4,2 C 5,1 C 0,0 km/h (0 Bft) 100,00 %
02.03.2016 18:59 5,1 C 94 % 999,9 hPa 0,0 l/m 0,0 km/h (0 Bft) NO 42 0 min 0,000 mm 0,0 UV-I 0 W/m 4,2 C 5,1 C 0,0 km/h (0 Bft) 100,00 %
02.03.2016 19:00 5,0 C 94 % 999,9 hPa 0,0 l/m 0,0 km/h (0 Bft) NO 42 0 min 0,000 mm 0,0 UV-I 0 W/m 4,1 C 5,0 C 0,0 km/h (0 Bft) 100,00 %
02.03.2016 19:01 5,0 C 95 % 999,9 hPa 0,0 l/m 0,1 km/h (0 Bft) NO 42 0 min 0,000 mm 0,0 UV-I 0 W/m 4,3 C 5,0 C 1,6 km/h (1 Bft) 100,00 %
02.03.2016 19:02 4,9 C 95 % 999,9 hPa 0,0 l/m 1,5 km/h (1 Bft) NO 42 0 min 0,000 mm 0,0 UV-I 0 W/m 4,2 C 4,9 C 3,2 km/h (1 Bft) 100,00 %
02.03.2016 19:03 4,9 C 95 % 1000,0 hPa 0,0 l/m 1,3 km/h (1 Bft) NO 53 0 min 0,000 mm 0,0 UV-I 0 W/m 4,2 C 4,9 C 3,2 km/h (1 Bft) 100,00 %
02.03.2016 19:04 4,9 C 95 % 1000,0 hPa 0,0 l/m 0,3 km/h (0 Bft) NO 53 0 min 0,000 mm 0,0 UV-I 0 W/m 4,2 C 4,9 C 1,6 km/h (1 Bft) 95,83 %
02.03.2016 19:05 4,9 C 95 % 1000,1 hPa 0,0 l/m 1,3 km/h (1 Bft) O-NO 64 0 min 0,000 mm 0,0 UV-I 0 W/m 4,2 C 4,9 C 3,2 km/h (1 Bft) 100,00 %
02.03.2016 19:06 5,0 C 95 % 1000,0 hPa 0,0 l/m 1,3 km/h (1 Bft) O-SO 107 0 min 0,000 mm 0,0 UV-I 0 W/m 4,3 C 5,0 C 3,2 km/h (1 Bft) 100,00 %
02.03.2016 19:07 5,1 C 95 % 1000,0 hPa 0,0 l/m 1,1 km/h (1 Bft) O-SO 107 0 min 0,000 mm 0,0 UV-I 0 W/m 4,4 C 5,1 C 3,2 km/h (1 Bft) 100,00 %
02.03.2016 19:08 5,1 C 95 % 1000,1 hPa 0,0 l/m 0,4 km/h (0 Bft) O-SO 107 0 min 0,000 mm 0,0 UV-I 0 W/m 4,4 C 5,1 C 1,6 km/h (1 Bft) 100,00 %
02.03.2016 19:09 5,1 C 95 % 1000,0 hPa 0,0 l/m 1,2 km/h (1 Bft) O-SO 107 0 min 0,000 mm 0,0 UV-I 0 W/m 4,4 C 5,1 C 1,6 km/h (1 Bft) 100,00 %
02.03.2016 19:10 5,1 C 95 % 1000,0 hPa 0,0 l/m 2,5 km/h (1 Bft) O-SO 109 0 min 0,000 mm 0,0 UV-I 0 W/m 4,4 C 5,1 C 3,2 km/h (1 Bft) 100,00 %
02.03.2016 19:11 5,2 C 95 % 1000,0 hPa 0,0 l/m 2,1 km/h (1 Bft) O-SO 109 0 min 0,000 mm 0,0 UV-I 0 W/m 4,5 C 5,2 C 3,2 km/h (1 Bft) 100,00 %
02.03.2016 19:12 5,2 C 95 % 1000,1 hPa 0,0 l/m 3,4 km/h (1 Bft) O-SO 121 0 min 0,000 mm 0,0 UV-I 0 W/m 4,5 C 5,2 C 4,8 km/h (1 Bft) 100,00 %
02.03.2016 19:13 5,2 C 95 % 1000,1 hPa 0,0 l/m 3,2 km/h (1 Bft) O-SO 121 0 min 0,000 mm 0,0 UV-I 0 W/m 4,5 C 5,2 C 4,8 km/h (1 Bft) 100,00 %
02.03.2016 19:14 5,2 C 94 % 1000,1 hPa 0,0 l/m 2,2 km/h (1 Bft) SO 132 0 min 0,000 mm 0,0 UV-I 0 W/m 4,3 C 5,2 C 3,2 km/h (1 Bft) 100,00 %
02.03.2016 19:15 5,2 C 95 % 1000,1 hPa 0,0 l/m 2,8 km/h (1 Bft) S 191 0 min 0,000 mm 0,0 UV-I 0 W/m 4,5 C 5,2 C 4,8 km/h (1 Bft) 100,00 %
02.03.2016 19:16 5,2 C 95 % 1000,1 hPa 0,0 l/m 2,3 km/h (1 Bft) S-SW 192 0 min 0,000 mm 0,0 UV-I 0 W/m 4,5 C 5,2 C 3,2 km/h (1 Bft) 100,00 %
02.03.2016 19:17 5,2 C 95 % 1000,1 hPa 0,0 l/m 2,7 km/h (1 Bft) S-SW 192 0 min 0,000 mm 0,0 UV-I 0 W/m 4,5 C 5,2 C 3,2 km/h (1 Bft) 96,30 %
02.03.2016 19:18 5,3 C 95 % 1000,1 hPa 0,0 l/m 3,5 km/h (1 Bft) S-SW 192 0 min 0,000 mm 0,0 UV-I 0 W/m 4,6 C 5,3 C 4,8 km/h (1 Bft) 100,00 %
02.03.2016 19:19 5,3 C 95 % 1000,1 hPa 0,0 l/m 2,1 km/h (1 Bft) S-SW 192 0 min 0,000 mm 0,0 UV-I 0 W/m 4,6 C 5,3 C 4,8 km/h (1 Bft) 100,00 %
02.03.2016 19:20 5,3 C 94 % 1000,1 hPa 0,0 l/m 1,3 km/h (1 Bft) S-SW 192 0 min 0,000 mm 0,0 UV-I 0 W/m 4,4 C 5,3 C 3,2 km/h (1 Bft) 100,00 %
02.03.2016 19:21 5,3 C 94 % 1000,0 hPa 0,0 l/m 0,9 km/h (0 Bft) S-SW 192 0 min 0,000 mm 0,0 UV-I 0 W/m 4,4 C 5,3 C 1,6 km/h (1 Bft) 100,00 %
02.03.2016 19:22 5,3 C 94 % 1000,1 hPa 0,0 l/m 2,7 km/h (1 Bft) S 186 0 min 0,000 mm 0,0 UV-I 0 W/m 4,4 C 5,3 C 4,8 km/h (1 Bft) 100,00 %
02.03.2016 19:23 5,3 C 94 % 1000,1 hPa 0,0 l/m 3,2 km/h (1 Bft) S 185 0 min 0,000 mm 0,0 UV-I 0 W/m 4,4 C 5,3 C 4,8 km/h (1 Bft) 100,00 %
02.03.2016 19:24 5,3 C 94 % 1000,1 hPa 0,0 l/m 3,1 km/h (1 Bft) S-SW 196 0 min 0,000 mm 0,0 UV-I 0 W/m 4,4 C 5,3 C 4,8 km/h (1 Bft) 96,15 %
02.03.2016 19:25 5,3 C 94 % 1000,1 hPa 0,0 l/m 3,3 km/h (1 Bft) S-SW 196 0 min 0,000 mm 0,0 UV-I 0 W/m 4,4 C 5,3 C 4,8 km/h (1 Bft) 100,00 %
02.03.2016 19:26 5,3 C 94 % 1000,1 hPa 0,0 l/m 2,8 km/h (1 Bft) S-SW 196 0 min 0,000 mm 0,0 UV-I 0 W/m 4,4 C 5,3 C 4,8 km/h (1 Bft) 100,00 %
02.03.2016 19:27 5,3 C 94 % 1000,1 hPa 0,0 l/m 4,1 km/h (1 Bft) S-SW 196 0 min 0,000 mm 0,0 UV-I 0 W/m 4,4 C 5,3 C 6,4 km/h (2 Bft) 98,67 %
02.03.2016 19:28 5,3 C 94 % 1000,1 hPa 0,0 l/m 4,5 km/h (1 Bft) SW 215 0 min 0,000 mm 0,0 UV-I 0 W/m 4,4 C 5,3 C 6,4 km/h (2 Bft) 100,00 %
02.03.2016 19:29 5,3 C 94 % 1000,1 hPa 0,0 l/m 6,1 km/h (2 Bft) SW 231 0 min 0,000 mm 0,0 UV-I 0 W/m 4,4 C 5,3 C 8,0 km/h (2 Bft) 100,00 %
02.03.2016 19:30 5,3 C 94 % 1000,1 hPa 0,0 l/m 4,8 km/h (1 Bft) SW 231 0 min 0,000 mm 0,0 UV-I 0 W/m 4,4 C 5,3 C 6,4 km/h (2 Bft) 100,00 %
02.03.2016 19:31 5,3 C 94 % 1000,1 hPa 0,0 l/m 3,9 km/h (1 Bft) SW 231 0 min 0,000 mm 0,0 UV-I 0 W/m 4,4 C 5,3 C 6,4 km/h (2 Bft) 100,00 %
02.03.2016 19:32 5,3 C 94 % 1000,1 hPa 0,0 l/m 4,0 km/h (1 Bft) SW 231 0 min 0,000 mm 0,0 UV-I 0 W/m 4,4 C 5,3 C 4,8 km/h (1 Bft) 100,00 %
02.03.2016 19:33 5,4 C 94 % 1000,1 hPa 0,0 l/m 3,3 km/h (1 Bft) SW 232 0 min 0,000 mm 0,0 UV-I 0 W/m 4,5 C 5,4 C 6,4 km/h (2 Bft) 100,00 %
02.03.2016 19:34 5,4 C 94 % 1000,0 hPa 0,0 l/m 3,6 km/h (1 Bft) SW 232 0 min 0,000 mm 0,0 UV-I 0 W/m 4,5 C 5,4 C 4,8 km/h (1 Bft) 100,00 %
02.03.2016 19:35 5,4 C 94 % 1000,0 hPa 0,0 l/m 4,2 km/h (1 Bft) SW 232 0 min 0,000 mm 0,0 UV-I 0 W/m 4,5 C 5,4 C 4,8 km/h (1 Bft) 100,00 %
02.03.2016 19:36 5,4 C 94 % 1000,1 hPa 0,0 l/m 3,7 km/h (1 Bft) SW 232 0 min 0,000 mm 0,0 UV-I 0 W/m 4,5 C 5,4 C 4,8 km/h (1 Bft) 100,00 %
02.03.2016 19:37 5,4 C 94 % 1000,0 hPa 0,0 l/m 4,3 km/h (1 Bft) SW 221 0 min 0,000 mm 0,0 UV-I 0 W/m 4,5 C 5,4 C 6,4 km/h (2 Bft) 100,00 %
02.03.2016 19:38 5,4 C 94 % 1000,0 hPa 0,0 l/m 4,4 km/h (1 Bft) S 171 0 min 0,000 mm 0,0 UV-I 0 W/m 4,5 C 5,4 C 8,0 km/h (2 Bft) 100,00 %
02.03.2016 19:39 5,4 C 94 % 1000,0 hPa 0,0 l/m 4,6 km/h (1 Bft) S 181 0 min 0,000 mm 0,0 UV-I 0 W/m 4,5 C 5,4 C 6,4 km/h (2 Bft) 92,31 %
02.03.2016 19:40 5,4 C 94 % 1000,0 hPa 0,0 l/m 2,4 km/h (1 Bft) S 180 0 min 0,000 mm 0,0 UV-I 0 W/m 4,5 C 5,4 C 4,8 km/h (1 Bft) 95,83 %
02.03.2016 19:41 5,4 C 94 % 999,9 hPa 0,0 l/m 2,6 km/h (1 Bft) S 173 0 min 0,000 mm 0,0 UV-I 0 W/m 4,5 C 5,4 C 4,8 km/h (1 Bft) 95,65 %
02.03.2016 19:42 5,4 C 94 % 999,9 hPa 0,0 l/m 3,0 km/h (1 Bft) S 170 0 min 0,000 mm 0,0 UV-I 0 W/m 4,5 C 5,4 C 6,4 km/h (2 Bft) 95,83 %
02.03.2016 19:43 5,4 C 94 % 999,9 hPa 0,0 l/m 3,2 km/h (1 Bft) S 175 0 min 0,000 mm 0,0 UV-I 0 W/m 4,5 C 5,4 C 6,4 km/h (2 Bft) 100,00 %
02.03.2016 19:44 5,4 C 94 % 999,9 hPa 0,0 l/m 6,0 km/h (2 Bft) S-SO 168 0 min 0,000 mm 0,0 UV-I 0 W/m 4,5 C 5,4 C 9,7 km/h (2 Bft) 93,33 %
02.03.2016 19:45 5,4 C 94 % 999,9 hPa 0,0 l/m 5,3 km/h (1 Bft) S 169 0 min 0,000 mm 0,0 UV-I 0 W/m 4,5 C 5,4 C 6,4 km/h (2 Bft) 100,00 %
02.03.2016 19:46 5,4 C 94 % 999,9 hPa 0,0 l/m 4,8 km/h (1 Bft) S-SO 168 0 min 0,000 mm 0,0 UV-I 0 W/m 4,5 C 5,4 C 8,0 km/h (2 Bft) 97,62 %
02.03.2016 19:47 5,4 C 94 % 999,8 hPa 0,0 l/m 6,4 km/h (2 Bft) S 171 0 min 0,000 mm 0,0 UV-I 0 W/m 4,5 C 5,4 C 8,0 km/h (2 Bft) 100,00 %
02.03.2016 19:48 5,3 C 94 % 999,9 hPa 0,0 l/m 6,4 km/h (2 Bft) S 175 0 min 0,000 mm 0,0 UV-I 0 W/m 4,4 C 5,3 C 9,7 km/h (2 Bft) 96,15 %
02.03.2016 19:49 5,3 C 94 % 999,9 hPa 0,0 l/m 7,1 km/h (2 Bft) S 177 0 min 0,000 mm 0,0 UV-I 0 W/m 4,4 C 4,7 C 11,3 km/h (2 Bft) 100,00 %
02.03.2016 19:50 5,3 C 94 % 999,9 hPa 0,0 l/m 6,5 km/h (2 Bft) S 174 0 min 0,000 mm 0,0 UV-I 0 W/m 4,4 C 5,2 C 8,0 km/h (2 Bft) 91,30 %
02.03.2016 19:51 5,3 C 94 % 999,9 hPa 0,0 l/m 6,5 km/h (2 Bft) S 190 0 min 0,000 mm 0,0 UV-I 0 W/m 4,4 C 5,2 C 8,0 km/h (2 Bft) 96,67 %
02.03.2016 19:52 5,3 C 94 % 999,9 hPa 0,0 l/m 5,6 km/h (1 Bft) S-SW 195 0 min 0,000 mm 0,0 UV-I 0 W/m 4,4 C 5,3 C 6,4 km/h (2 Bft) 100,00 %
02.03.2016 19:53 5,3 C 94 % 999,9 hPa 0,0 l/m 4,6 km/h (1 Bft) S-SW 195 0 min 0,000 mm 0,0 UV-I 0 W/m 4,4 C 5,3 C 6,4 km/h (2 Bft) 96,30 %
02.03.2016 19:54 5,3 C 94 % 999,9 hPa 0,0 l/m 6,5 km/h (2 Bft) S-SW 198 0 min 0,000 mm 0,0 UV-I 0 W/m 4,4 C 5,2 C 8,0 km/h (2 Bft) 100,00 %
02.03.2016 19:55 5,3 C 94 % 1000,0 hPa 0,0 l/m 5,5 km/h (1 Bft) S 175 0 min 0,000 mm 0,0 UV-I 0 W/m 4,4 C 5,3 C 6,4 km/h (2 Bft) 96,30 %
02.03.2016 19:56 5,3 C 94 % 1000,0 hPa 0,0 l/m 3,8 km/h (1 Bft) S-SO 168 0 min 0,000 mm 0,0 UV-I 0 W/m 4,4 C 5,3 C 8,0 km/h (2 Bft) 100,00 %
02.03.2016 19:57 5,3 C 94 % 1000,0 hPa 0,0 l/m 5,7 km/h (1 Bft) S 175 0 min 0,000 mm 0,0 UV-I 0 W/m 4,4 C 5,3 C 8,0 km/h (2 Bft) 95,83 %
02.03.2016 19:58 5,3 C 94 % 1000,0 hPa 0,0 l/m 7,0 km/h (2 Bft) S-SO 167 0 min 0,000 mm 0,0 UV-I 0 W/m 4,4 C 4,8 C 9,7 km/h (2 Bft) 96,55 %
02.03.2016 19:59 5,3 C 94 % 1000,0 hPa 0,0 l/m 6,3 km/h (2 Bft) S 171 0 min 0,000 mm 0,0 UV-I 0 W/m 4,4 C 5,3 C 9,7 km/h (2 Bft) 98,64 %
02.03.2016 20:00 5,3 C 94 % 1000,0 hPa 0,0 l/m 6,5 km/h (2 Bft) S-SO 167 0 min 0,000 mm 0,0 UV-I 0 W/m 4,4 C 5,2 C 11,3 km/h (2 Bft) 97,56 %
02.03.2016 20:01 5,3 C 94 % 1000,0 hPa 0,0 l/m 7,6 km/h (2 Bft) S-SW 195 0 min 0,000 mm 0,0 UV-I 0 W/m 4,4 C 4,3 C 11,3 km/h (2 Bft) 100,00 %
02.03.2016 20:02 5,3 C 94 % 1000,0 hPa 0,0 l/m 5,2 km/h (1 Bft) S 184 0 min 0,000 mm 0,0 UV-I 0 W/m 4,4 C 5,3 C 6,4 km/h (2 Bft) 95,65 %
02.03.2016 20:03 5,3 C 94 % 1000,0 hPa 0,0 l/m 5,1 km/h (1 Bft) S-SW 199 0 min 0,000 mm 0,0 UV-I 0 W/m 4,4 C 5,3 C 8,0 km/h (2 Bft) 100,00 %
02.03.2016 20:04 5,3 C 94 % 1000,0 hPa 0,0 l/m 7,6 km/h (2 Bft) S-SW 194 0 min 0,000 mm 0,0 UV-I 0 W/m 4,4 C 4,3 C 11,3 km/h (2 Bft) 97,56 %
02.03.2016 20:05 5,3 C 94 % 999,9 hPa 0,0 l/m 7,1 km/h (2 Bft) S 173 0 min 0,000 mm 0,0 UV-I 0 W/m 4,4 C 4,7 C 8,0 km/h (2 Bft) 100,00 %
02.03.2016 20:06 5,3 C 94 % 999,9 hPa 0,0 l/m 6,9 km/h (2 Bft) S-SW 201 0 min 0,000 mm 0,0 UV-I 0 W/m 4,4 C 4,9 C 8,0 km/h (2 Bft) 96,30 %
02.03.2016 20:07 5,3 C 94 % 999,9 hPa 0,0 l/m 6,7 km/h (2 Bft) S 178 0 min 0,000 mm 0,0 UV-I 0 W/m 4,4 C 5,1 C 8,0 km/h (2 Bft) 98,64 %
02.03.2016 20:08 5,3 C 94 % 999,9 hPa 0,0 l/m 7,3 km/h (2 Bft) W-SW 241 0 min 0,000 mm 0,0 UV-I 0 W/m 4,4 C 4,5 C 11,3 km/h (2 Bft) 97,87 %
02.03.2016 20:09 5,3 C 94 % 999,9 hPa 0,0 l/m 7,2 km/h (2 Bft) S-SW 202 0 min 0,000 mm 0,0 UV-I 0 W/m 4,4 C 4,6 C 12,9 km/h (3 Bft) 96,15 %
02.03.2016 20:10 5,3 C 94 % 999,9 hPa 0,0 l/m 11,0 km/h (2 Bft) S 179 0 min 0,000 mm 0,0 UV-I 0 W/m 4,4 C 1,7 C 14,5 km/h (3 Bft) 100,00 %
02.03.2016 20:11 5,3 C 94 % 999,9 hPa 0,0 l/m 9,3 km/h (2 Bft) SW 220 0 min 0,000 mm 0,0 UV-I 0 W/m 4,4 C 2,9 C 12,9 km/h (3 Bft) 96,15 %
02.03.2016 20:12 5,3 C 94 % 999,9 hPa 0,0 l/m 9,1 km/h (2 Bft) S-SW 209 0 min 0,000 mm 0,0 UV-I 0 W/m 4,4 C 3,1 C 12,9 km/h (3 Bft) 100,00 %
02.03.2016 20:13 5,3 C 94 % 999,9 hPa 0,0 l/m 7,6 km/h (2 Bft) S-SW 205 0 min 0,000 mm 0,0 UV-I 0 W/m 4,4 C 4,3 C 9,7 km/h (2 Bft) 100,00 %
02.03.2016 20:14 5,3 C 94 % 1000,0 hPa 0,0 l/m 9,5 km/h (2 Bft) SW 225 0 min 0,000 mm 0,0 UV-I 0 W/m 4,4 C 2,8 C 12,9 km/h (3 Bft) 95,83 %
02.03.2016 20:15 5,3 C 94 % 1000,0 hPa 0,0 l/m 4,8 km/h (1 Bft) S 191 0 min 0,000 mm 0,0 UV-I 0 W/m 4,4 C 5,3 C 8,0 km/h (2 Bft) 100,00 %
02.03.2016 20:16 5,3 C 94 % 1000,0 hPa 0,0 l/m 7,5 km/h (2 Bft) SW 225 0 min 0,000 mm 0,0 UV-I 0 W/m 4,4 C 4,3 C 9,7 km/h (2 Bft) 100,00 %
02.03.2016 20:17 5,3 C 94 % 1000,0 hPa 0,0 l/m 7,3 km/h (2 Bft) S 185 0 min 0,000 mm 0,0 UV-I 0 W/m 4,4 C 4,5 C 11,3 km/h (2 Bft) 100,00 %
02.03.2016 20:18 5,3 C 94 % 1000,0 hPa 0,0 l/m 8,2 km/h (2 Bft) SW 222 0 min 0,000 mm 0,0 UV-I 0 W/m 4,4 C 3,8 C 11,3 km/h (2 Bft) 100,00 %
02.03.2016 20:19 5,3 C 94 % 1000,0 hPa 0,0 l/m 10,5 km/h (2 Bft) S 178 0 min 0,000 mm 0,0 UV-I 0 W/m 4,4 C 2,1 C 14,5 km/h (3 Bft) 96,15 %
02.03.2016 20:20 5,3 C 94 % 1000,0 hPa 0,0 l/m 9,3 km/h (2 Bft) S 184 0 min 0,000 mm 0,0 UV-I 0 W/m 4,4 C 2,9 C 11,3 km/h (2 Bft) 96,67 %
02.03.2016 20:21 5,3 C 94 % 1000,1 hPa 0,0 l/m 6,6 km/h (2 Bft) SW 215 0 min 0,000 mm 0,0 UV-I 0 W/m 4,4 C 5,1 C 9,7 km/h (2 Bft) 100,00 %
02.03.2016 20:22 5,3 C 94 % 1000,1 hPa 0,0 l/m 5,8 km/h (2 Bft) SW 230 0 min 0,000 mm 0,0 UV-I 0 W/m 4,4 C 5,3 C 9,7 km/h (2 Bft) 100,00 %
02.03.2016 20:23 5,3 C 94 % 1000,1 hPa 0,0 l/m 7,4 km/h (2 Bft) SW 221 0 min 0,000 mm 0,0 UV-I 0 W/m 4,4 C 4,4 C 9,7 km/h (2 Bft) 100,00 %
02.03.2016 20:24 5,3 C 94 % 1000,2 hPa 0,0 l/m 6,9 km/h (2 Bft) S-SW 198 0 min 0,000 mm 0,0 UV-I 0 W/m 4,4 C 4,9 C 9,7 km/h (2 Bft) 100,00 %
02.03.2016 20:25 5,3 C 94 % 1000,1 hPa 0,0 l/m 8,7 km/h (2 Bft) S 188 0 min 0,000 mm 0,0 UV-I 0 W/m 4,4 C 3,4 C 11,3 km/h (2 Bft) 100,00 %
02.03.2016 20:26 5,4 C 94 % 1000,1 hPa 0,0 l/m 6,8 km/h (2 Bft) S-SW 207 0 min 0,000 mm 0,0 UV-I 0 W/m 4,5 C 5,1 C 9,7 km/h (2 Bft) 91,67 %
02.03.2016 20:27 5,4 C 94 % 1000,2 hPa 0,0 l/m 8,4 km/h (2 Bft) S-SW 196 0 min 0,000 mm 0,0 UV-I 0 W/m 4,5 C 3,7 C 11,3 km/h (2 Bft) 96,88 %
02.03.2016 20:28 5,4 C 94 % 1000,2 hPa 0,0 l/m 7,8 km/h (2 Bft) S 181 0 min 0,000 mm 0,0 UV-I 0 W/m 4,5 C 4,2 C 11,3 km/h (2 Bft) 100,00 %
02.03.2016 20:29 5,4 C 94 % 1000,2 hPa 0,0 l/m 7,1 km/h (2 Bft) S-SW 192 0 min 0,000 mm 0,0 UV-I 0 W/m 4,5 C 4,8 C 9,7 km/h (2 Bft) 100,00 %
02.03.2016 20:30 5,4 C 94 % 1000,2 hPa 0,0 l/m 7,2 km/h (2 Bft) S-SW 203 0 min 0,000 mm 0,0 UV-I 0 W/m 4,5 C 4,7 C 9,7 km/h (2 Bft) 100,00 %
02.03.2016 20:31 5,4 C 94 % 1000,2 hPa 0,0 l/m 7,8 km/h (2 Bft) S-SW 199 0 min 0,000 mm 0,0 UV-I 0 W/m 4,5 C 4,2 C 12,9 km/h (3 Bft) 100,00 %
02.03.2016 20:32 5,4 C 94 % 1000,2 hPa 0,0 l/m 8,9 km/h (2 Bft) S-SW 210 0 min 0,000 mm 0,0 UV-I 0 W/m 4,5 C 3,3 C 12,9 km/h (3 Bft) 100,00 %
02.03.2016 20:33 5,4 C 94 % 1000,2 hPa 0,0 l/m 10,7 km/h (2 Bft) SW 215 0 min 0,000 mm 0,0 UV-I 0 W/m 4,5 C 2,0 C 14,5 km/h (3 Bft) 100,00 %
02.03.2016 20:34 5,4 C 94 % 1000,2 hPa 0,0 l/m 7,8 km/h (2 Bft) W-SW 249 0 min 0,000 mm 0,0 UV-I 0 W/m 4,5 C 4,2 C 11,3 km/h (2 Bft) 100,00 %
02.03.2016 20:35 5,5 C 95 % 1000,4 hPa 0,0 l/m 9,4 km/h (2 Bft) W-SW 246 0 min 0,000 mm 0,0 UV-I 0 W/m 4,8 C 3,1 C 12,9 km/h (3 Bft) 100,00 %
02.03.2016 20:36 5,5 C 95 % 1000,4 hPa 0,0 l/m 8,9 km/h (2 Bft) S-SW 206 0 min 0,000 mm 0,0 UV-I 0 W/m 4,8 C 3,4 C 12,9 km/h (3 Bft) 100,00 %
02.03.2016 20:37 5,5 C 95 % 1000,4 hPa 0,0 l/m 6,8 km/h (2 Bft) SW 229 0 min 0,000 mm 0,0 UV-I 0 W/m 4,8 C 5,2 C 11,3 km/h (2 Bft) 100,00 %
02.03.2016 20:38 5,5 C 95 % 1000,4 hPa 0,0 l/m 9,4 km/h (2 Bft) W-SW 244 0 min 0,000 mm 0,0 UV-I 0 W/m 4,8 C 3,1 C 16,1 km/h (3 Bft) 100,00 %
02.03.2016 20:39 5,5 C 94 % 1000,4 hPa 0,0 l/m 9,9 km/h (2 Bft) W-SW 244 0 min 0,000 mm 0,0 UV-I 0 W/m 4,6 C 2,7 C 14,5 km/h (3 Bft) 100,00 %
02.03.2016 20:40 5,5 C 94 % 1000,4 hPa 0,0 l/m 10,1 km/h (2 Bft) W-SW 250 0 min 0,000 mm 0,0 UV-I 0 W/m 4,6 C 2,6 C 14,5 km/h (3 Bft) 100,00 %
02.03.2016 20:41 5,5 C 95 % 1000,4 hPa 0,0 l/m 8,3 km/h (2 Bft) S-SW 206 0 min 0,000 mm 0,0 UV-I 0 W/m 4,8 C 3,9 C 12,9 km/h (3 Bft) 100,00 %
02.03.2016 20:42 5,5 C 95 % 1000,4 hPa 0,0 l/m 8,7 km/h (2 Bft) S 187 0 min 0,000 mm 0,0 UV-I 0 W/m 4,8 C 3,6 C 11,3 km/h (2 Bft) 100,00 %
02.03.2016 20:43 5,6 C 95 % 1000,4 hPa 0,0 l/m 10,2 km/h (2 Bft) SW 228 0 min 0,000 mm 0,0 UV-I 0 W/m 4,9 C 2,6 C 14,5 km/h (3 Bft) 100,00 %
02.03.2016 20:44 5,5 C 95 % 1000,4 hPa 0,0 l/m 6,1 km/h (2 Bft) SW 214 0 min 0,000 mm 0,0 UV-I 0 W/m 4,8 C 5,5 C 8,0 km/h (2 Bft) 100,00 %
02.03.2016 20:45 5,6 C 95 % 1000,4 hPa 0,0 l/m 8,1 km/h (2 Bft) W 260 0 min 0,000 mm 0,0 UV-I 0 W/m 4,9 C 4,2 C 11,3 km/h (2 Bft) 100,00 %
02.03.2016 20:46 5,6 C 95 % 1000,5 hPa 0,0 l/m 6,2 km/h (2 Bft) W-SW 247 0 min 0,000 mm 0,0 UV-I 0 W/m 4,9 C 5,6 C 9,7 km/h (2 Bft) 100,00 %
02.03.2016 20:47 5,5 C 95 % 1000,4 hPa 0,0 l/m 5,7 km/h (1 Bft) S-SW 194 0 min 0,000 mm 0,0 UV-I 0 W/m 4,8 C 5,5 C 9,7 km/h (2 Bft) 100,00 %
02.03.2016 20:48 5,6 C 95 % 1000,4 hPa 0,0 l/m 5,2 km/h (1 Bft) SW 217 0 min 0,000 mm 0,0 UV-I 0 W/m 4,9 C 5,6 C 9,7 km/h (2 Bft) 96,15 %
02.03.2016 20:49 5,6 C 95 % 1000,4 hPa 0,0 l/m 7,4 km/h (2 Bft) S-SW 207 0 min 0,000 mm 0,0 UV-I 0 W/m 4,9 C 4,7 C 9,7 km/h (2 Bft) 100,00 %
02.03.2016 20:50 5,6 C 95 % 1000,4 hPa 0,0 l/m 6,1 km/h (2 Bft) SW 232 0 min 0,000 mm 0,0 UV-I 0 W/m 4,9 C 5,6 C 8,0 km/h (2 Bft) 100,00 %
02.03.2016 20:51 5,6 C 95 % 1000,4 hPa 0,0 l/m 4,4 km/h (1 Bft) S-SW 192 0 min 0,000 mm 0,0 UV-I 0 W/m 4,9 C 5,6 C 6,4 km/h (2 Bft) 100,00 %
02.03.2016 20:52 5,6 C 95 % 1000,5 hPa 0,0 l/m 5,7 km/h (1 Bft) SW 223 0 min 0,000 mm 0,0 UV-I 0 W/m 4,9 C 5,6 C 8,0 km/h (2 Bft) 96,30 %
02.03.2016 20:53 5,6 C 95 % 1000,4 hPa 0,0 l/m 6,9 km/h (2 Bft) SW 234 0 min 0,000 mm 0,0 UV-I 0 W/m 4,9 C 5,2 C 8,0 km/h (2 Bft) 100,00 %
02.03.2016 20:54 5,6 C 95 % 1000,5 hPa 0,2 l/m 5,9 km/h (2 Bft) SW 229 0 min 0,000 mm 0,0 UV-I 0 W/m 4,9 C 5,6 C 8,0 km/h (2 Bft) 100,00 %
02.03.2016 20:55 5,6 C 95 % 1000,4 hPa 0,0 l/m 6,0 km/h (2 Bft) SW 219 0 min 0,000 mm 0,0 UV-I 0 W/m 4,9 C 5,6 C 8,0 km/h (2 Bft) 96,15 %
02.03.2016 20:56 5,5 C 95 % 1000,4 hPa 0,0 l/m 6,8 km/h (2 Bft) S-SW 198 0 min 0,000 mm 0,0 UV-I 0 W/m 4,8 C 5,2 C 8,0 km/h (2 Bft) 100,00 %
02.03.2016 20:57 5,6 C 95 % 1000,4 hPa 0,0 l/m 5,6 km/h (1 Bft) S-SW 210 0 min 0,000 mm 0,0 UV-I 0 W/m 4,9 C 5,6 C 8,0 km/h (2 Bft) 100,00 %
02.03.2016 20:58 5,6 C 95 % 1000,4 hPa 0,0 l/m 6,4 km/h (2 Bft) SW 227 0 min 0,000 mm 0,0 UV-I 0 W/m 4,9 C 5,6 C 9,7 km/h (2 Bft) 100,00 %
02.03.2016 20:59 5,5 C 95 % 1000,5 hPa 0,0 l/m 6,7 km/h (2 Bft) SW 233 0 min 0,000 mm 0,0 UV-I 0 W/m 4,8 C 5,3 C 9,7 km/h (2 Bft) 100,00 %
02.03.2016 21:00 5,6 C 95 % 1000,4 hPa 0,0 l/m 6,6 km/h (2 Bft) W-SW 244 0 min 0,000 mm 0,0 UV-I 0 W/m 4,9 C 5,4 C 8,0 km/h (2 Bft) 100,00 %
02.03.2016 21:01 5,5 C 95 % 1000,5 hPa 0,0 l/m 7,9 km/h (2 Bft) SW 234 0 min 0,000 mm 0,0 UV-I 0 W/m 4,8 C 4,2 C 9,7 km/h (2 Bft) 100,00 %
02.03.2016 21:02 5,6 C 95 % 1000,5 hPa 0,0 l/m 5,5 km/h (1 Bft) W-SW 242 0 min 0,000 mm 0,0 UV-I 0 W/m 4,9 C 5,6 C 8,0 km/h (2 Bft) 100,00 %
02.03.2016 21:03 5,5 C 95 % 1000,4 hPa 0,2 l/m 4,8 km/h (1 Bft) SW 236 0 min 0,000 mm 0,0 UV-I 0 W/m 4,8 C 5,5 C 6,4 km/h (2 Bft) 100,00 %
02.03.2016 21:04 5,5 C 95 % 1000,5 hPa 0,0 l/m 6,8 km/h (2 Bft) SW 224 0 min 0,000 mm 0,0 UV-I 0 W/m 4,8 C 5,2 C 9,7 km/h (2 Bft) 100,00 %
02.03.2016 21:05 5,5 C 95 % 1000,5 hPa 0,0 l/m 6,0 km/h (2 Bft) W-SW 242 0 min 0,000 mm 0,0 UV-I 0 W/m 4,8 C 5,5 C 8,0 km/h (2 Bft) 95,83 %
02.03.2016 21:06 5,5 C 95 % 1000,5 hPa 0,0 l/m 7,2 km/h (2 Bft) W-SW 251 0 min 0,000 mm 0,0 UV-I 0 W/m 4,8 C 4,8 C 9,7 km/h (2 Bft) 100,00 %
02.03.2016 21:07 5,5 C 95 % 1000,5 hPa 0,0 l/m 5,2 km/h (1 Bft) W 261 0 min 0,000 mm 0,0 UV-I 0 W/m 4,8 C 5,5 C 6,4 km/h (2 Bft) 100,00 %
02.03.2016 21:08 5,5 C 96 % 1000,5 hPa 0,0 l/m 6,9 km/h (2 Bft) SW 223 0 min 0,000 mm 0,0 UV-I 0 W/m 4,9 C 5,1 C 9,7 km/h (2 Bft) 100,00 %
02.03.2016 21:09 5,5 C 96 % 1000,5 hPa 0,0 l/m 7,4 km/h (2 Bft) SW 225 0 min 0,000 mm 0,0 UV-I 0 W/m 4,9 C 4,6 C 8,0 km/h (2 Bft) 100,00 %
02.03.2016 21:10 5,6 C 96 % 1000,5 hPa 0,0 l/m 8,8 km/h (2 Bft) SW 229 0 min 0,000 mm 0,0 UV-I 0 W/m 5,0 C 3,6 C 11,3 km/h (2 Bft) 100,00 %
02.03.2016 21:11 5,6 C 96 % 1000,5 hPa 0,0 l/m 7,3 km/h (2 Bft) SW 234 0 min 0,000 mm 0,0 UV-I 0 W/m 5,0 C 4,8 C 11,3 km/h (2 Bft) 100,00 %
02.03.2016 21:12 5,5 C 96 % 1000,5 hPa 0,0 l/m 7,1 km/h (2 Bft) SW 214 0 min 0,000 mm 0,0 UV-I 0 W/m 4,9 C 4,9 C 9,7 km/h (2 Bft) 100,00 %
02.03.2016 21:13 5,5 C 96 % 1000,6 hPa 0,2 l/m 7,7 km/h (2 Bft) SW 220 0 min 0,000 mm 0,0 UV-I 0 W/m 4,9 C 4,4 C 12,9 km/h (3 Bft) 93,33 %
02.03.2016 21:14 5,5 C 96 % 1000,6 hPa 0,0 l/m 9,0 km/h (2 Bft) SW 227 0 min 0,000 mm 0,0 UV-I 0 W/m 4,9 C 3,3 C 11,3 km/h (2 Bft) 100,00 %
02.03.2016 21:15 5,5 C 96 % 1000,7 hPa 0,0 l/m 8,9 km/h (2 Bft) W-SW 237 0 min 0,000 mm 0,0 UV-I 0 W/m 4,9 C 3,4 C 12,9 km/h (3 Bft) 100,00 %
02.03.2016 21:16 5,5 C 96 % 1000,6 hPa 0,2 l/m 10,3 km/h (2 Bft) SW 227 0 min 0,000 mm 0,0 UV-I 0 W/m 4,9 C 2,4 C 16,1 km/h (3 Bft) 95,65 %
02.03.2016 21:17 5,5 C 96 % 1000,6 hPa 0,0 l/m 8,7 km/h (2 Bft) W-SW 240 0 min 0,000 mm 0,0 UV-I 0 W/m 4,9 C 3,6 C 12,9 km/h (3 Bft) 100,00 %
02.03.2016 21:18 5,5 C 96 % 1000,6 hPa 0,0 l/m 7,6 km/h (2 Bft) W-SW 238 0 min 0,000 mm 0,0 UV-I 0 W/m 4,9 C 4,5 C 11,3 km/h (2 Bft) 100,00 %
02.03.2016 21:19 5,5 C 96 % 1000,7 hPa 0,2 l/m 7,9 km/h (2 Bft) W-SW 243 0 min 0,000 mm 0,0 UV-I 0 W/m 4,9 C 4,2 C 11,3 km/h (2 Bft) 100,00 %
02.03.2016 21:20 5,5 C 96 % 1000,6 hPa 0,0 l/m 6,1 km/h (2 Bft) SW 232 0 min 0,000 mm 0,0 UV-I 0 W/m 4,9 C 5,5 C 9,7 km/h (2 Bft) 100,00 %
02.03.2016 21:21 5,5 C 96 % 1000,6 hPa 0,0 l/m 7,1 km/h (2 Bft) SW 232 0 min 0,000 mm 0,0 UV-I 0 W/m 4,9 C 4,9 C 9,7 km/h (2 Bft) 100,00 %
02.03.2016 21:22 5,5 C 96 % 1000,6 hPa 0,2 l/m 6,0 km/h (2 Bft) SW 227 0 min 0,000 mm 0,0 UV-I 0 W/m 4,9 C 5,5 C 8,0 km/h (2 Bft) 96,15 %
02.03.2016 21:23 5,5 C 96 % 1000,6 hPa 0,0 l/m 8,0 km/h (2 Bft) SW 222 0 min 0,000 mm 0,0 UV-I 0 W/m 4,9 C 4,1 C 12,9 km/h (3 Bft) 93,33 %
02.03.2016 21:24 5,5 C 96 % 1000,6 hPa 0,0 l/m 8,3 km/h (2 Bft) S-SW 205 0 min 0,000 mm 0,0 UV-I 0 W/m 4,9 C 3,9 C 11,3 km/h (2 Bft) 95,65 %
02.03.2016 21:25 5,5 C 96 % 1000,6 hPa 0,2 l/m 7,5 km/h (2 Bft) SW 216 0 min 0,000 mm 0,0 UV-I 0 W/m 4,9 C 4,5 C 11,3 km/h (2 Bft) 100,00 %
02.03.2016 21:26 5,5 C 96 % 1000,6 hPa 0,0 l/m 5,4 km/h (1 Bft) SW 229 0 min 0,000 mm 0,0 UV-I 0 W/m 4,9 C 5,5 C 11,3 km/h (2 Bft) 100,00 %
02.03.2016 21:27 5,6 C 96 % 1000,5 hPa 0,0 l/m 5,5 km/h (1 Bft) W-SW 244 0 min 0,000 mm 0,0 UV-I 0 W/m 5,0 C 5,6 C 8,0 km/h (2 Bft) 96,55 %
02.03.2016 21:28 5,6 C 96 % 1000,5 hPa 0,0 l/m 3,5 km/h (1 Bft) S-SW 213 0 min 0,000 mm 0,0 UV-I 0 W/m 5,0 C 5,6 C 4,8 km/h (1 Bft) 100,00 %
02.03.2016 21:29 5,6 C 96 % 1000,5 hPa 0,2 l/m 7,9 km/h (2 Bft) S-SW 194 0 min 0,000 mm 0,0 UV-I 0 W/m 5,0 C 4,3 C 9,7 km/h (2 Bft) 100,00 %
02.03.2016 21:30 5,6 C 96 % 1000,5 hPa 0,0 l/m 9,3 km/h (2 Bft) S 186 0 min 0,000 mm 0,0 UV-I 0 W/m 5,0 C 3,2 C 11,3 km/h (2 Bft) 100,00 %
02.03.2016 21:31 5,6 C 96 % 1000,4 hPa 0,0 l/m 8,0 km/h (2 Bft) S 175 0 min 0,000 mm 0,0 UV-I 0 W/m 5,0 C 4,2 C 11,3 km/h (2 Bft) 100,00 %
02.03.2016 21:32 5,6 C 96 % 1000,4 hPa 0,2 l/m 7,7 km/h (2 Bft) S 184 0 min 0,000 mm 0,0 UV-I 0 W/m 5,0 C 4,5 C 9,7 km/h (2 Bft) 100,00 %
02.03.2016 21:33 5,6 C 96 % 1000,4 hPa 0,0 l/m 7,2 km/h (2 Bft) S-SW 194 0 min 0,000 mm 0,0 UV-I 0 W/m 5,0 C 4,9 C 11,3 km/h (2 Bft) 100,00 %
02.03.2016 21:34 5,6 C 96 % 1000,4 hPa 0,0 l/m 7,7 km/h (2 Bft) S-SO 167 0 min 0,000 mm 0,0 UV-I 0 W/m 5,0 C 4,5 C 9,7 km/h (2 Bft) 95,83 %
02.03.2016 21:35 5,6 C 96 % 1000,4 hPa 0,0 l/m 5,4 km/h (1 Bft) S 190 0 min 0,000 mm 0,0 UV-I 0 W/m 5,0 C 5,6 C 6,4 km/h (2 Bft) 100,00 %
02.03.2016 21:36 5,6 C 96 % 1000,4 hPa 0,0 l/m 4,1 km/h (1 Bft) S-SO 165 0 min 0,000 mm 0,0 UV-I 0 W/m 5,0 C 5,6 C 6,4 km/h (2 Bft) 100,00 %
02.03.2016 21:37 5,6 C 96 % 1000,4 hPa 0,0 l/m 5,6 km/h (1 Bft) SW 215 0 min 0,000 mm 0,0 UV-I 0 W/m 5,0 C 5,6 C 8,0 km/h (2 Bft) 100,00 %
02.03.2016 21:38 5,6 C 96 % 1000,4 hPa 0,0 l/m 9,0 km/h (2 Bft) S-SW 205 0 min 0,000 mm 0,0 UV-I 0 W/m 5,0 C 3,5 C 11,3 km/h (2 Bft) 100,00 %
02.03.2016 21:39 5,6 C 96 % 1000,4 hPa 0,2 l/m 7,8 km/h (2 Bft) SW 229 0 min 0,000 mm 0,0 UV-I 0 W/m 5,0 C 4,4 C 9,7 km/h (2 Bft) 100,00 %
02.03.2016 21:40 5,6 C 96 % 1000,5 hPa 0,0 l/m 5,2 km/h (1 Bft) SW 220 0 min 0,000 mm 0,0 UV-I 0 W/m 5,0 C 5,6 C 8,0 km/h (2 Bft) 100,00 %
02.03.2016 21:41 5,6 C 96 % 1000,5 hPa 0,0 l/m 6,6 km/h (2 Bft) S-SW 211 0 min 0,000 mm 0,0 UV-I 0 W/m 5,0 C 5,4 C 9,7 km/h (2 Bft) 96,15 %
02.03.2016 21:42 5,7 C 96 % 1000,6 hPa 0,0 l/m 5,7 km/h (1 Bft) S-SW 199 0 min 0,000 mm 0,0 UV-I 0 W/m 5,1 C 5,7 C 9,7 km/h (2 Bft) 100,00 %
02.03.2016 21:43 5,7 C 96 % 1000,6 hPa 0,0 l/m 9,4 km/h (2 Bft) SW 226 0 min 0,000 mm 0,0 UV-I 0 W/m 5,1 C 3,3 C 11,3 km/h (2 Bft) 100,00 %
02.03.2016 21:44 5,7 C 96 % 1000,7 hPa 0,0 l/m 8,3 km/h (2 Bft) SW 227 0 min 0,000 mm 0,0 UV-I 0 W/m 5,1 C 4,1 C 11,3 km/h (2 Bft) 93,33 %
02.03.2016 21:45 5,7 C 96 % 1000,7 hPa 0,2 l/m 7,9 km/h (2 Bft) S-SW 202 0 min 0,000 mm 0,0 UV-I 0 W/m 5,1 C 4,4 C 11,3 km/h (2 Bft) 100,00 %
02.03.2016 21:46 5,7 C 96 % 1000,7 hPa 0,0 l/m 8,9 km/h (2 Bft) SW 223 0 min 0,000 mm 0,0 UV-I 0 W/m 5,1 C 3,6 C 12,9 km/h (3 Bft) 95,65 %
02.03.2016 21:47 5,7 C 96 % 1000,8 hPa 0,0 l/m 10,0 km/h (2 Bft) W-SW 242 0 min 0,000 mm 0,0 UV-I 0 W/m 5,1 C 2,8 C 14,5 km/h (3 Bft) 100,00 %
02.03.2016 21:48 5,7 C 96 % 1000,9 hPa 0,0 l/m 8,2 km/h (2 Bft) W-SW 255 0 min 0,000 mm 0,0 UV-I 0 W/m 5,1 C 4,2 C 12,9 km/h (3 Bft) 86,96 %
02.03.2016 21:49 5,7 C 96 % 1000,9 hPa 0,0 l/m 14,4 km/h (3 Bft) W-NW 285 0 min 0,000 mm 0,0 UV-I 0 W/m 5,1 C 0,2 C 19,3 km/h (3 Bft) 100,00 %
02.03.2016 21:50 5,7 C 96 % 1000,9 hPa 0,2 l/m 23,3 km/h (4 Bft) W-SW 254 0 min 0,000 mm 0,0 UV-I 0 W/m 5,1 C -3,4 C 35,4 km/h (5 Bft) 96,15 %
02.03.2016 21:51 5,7 C 96 % 1001,0 hPa 0,0 l/m 19,6 km/h (3 Bft) W 270 0 min 0,000 mm 0,0 UV-I 0 W/m 5,1 C -2,1 C 27,4 km/h (4 Bft) 100,00 %
02.03.2016 21:52 5,7 C 96 % 1001,0 hPa 0,0 l/m 20,1 km/h (4 Bft) SW 223 0 min 0,000 mm 0,0 UV-I 0 W/m 5,1 C -2,3 C 27,4 km/h (4 Bft) 96,55 %
02.03.2016 21:53 5,7 C 96 % 1001,1 hPa 0,0 l/m 17,2 km/h (3 Bft) W-SW 237 0 min 0,000 mm 0,0 UV-I 0 W/m 5,1 C -1,1 C 24,1 km/h (4 Bft) 96,67 %
02.03.2016 21:54 5,8 C 96 % 1001,2 hPa 0,2 l/m 22,3 km/h (4 Bft) W 260 0 min 0,000 mm 0,0 UV-I 0 W/m 5,2 C -3,0 C 33,8 km/h (5 Bft) 100,00 %
02.03.2016 21:55 5,8 C 96 % 1001,2 hPa 0,0 l/m 25,8 km/h (4 Bft) S-SO 162 0 min 0,000 mm 0,0 UV-I 0 W/m 5,2 C -4,1 C 35,4 km/h (5 Bft) 96,67 %
02.03.2016 21:56 5,8 C 96 % 1001,2 hPa 0,0 l/m 30,3 km/h (5 Bft) N 360 0 min 0,000 mm 0,0 UV-I 0 W/m 5,2 C -5,3 C 41,8 km/h (6 Bft) 100,00 %
02.03.2016 21:57 5,8 C 96 % 1001,2 hPa 0,2 l/m 35,3 km/h (5 Bft) W 263 0 min 0,000 mm 0,0 UV-I 0 W/m 5,2 C -6,5 C 45,1 km/h (6 Bft) 91,67 %
02.03.2016 21:58 5,7 C 94 % 1001,3 hPa 0,0 l/m 33,1 km/h (5 Bft) W 265 0 min 0,000 mm 0,0 UV-I 0 W/m 4,8 C -6,1 C 45,1 km/h (6 Bft) 96,88 %
02.03.2016 21:59 5,7 C 94 % 1001,4 hPa 0,0 l/m 32,3 km/h (5 Bft) W-NW 292 0 min 0,000 mm 0,0 UV-I 0 W/m 4,8 C -5,9 C 45,1 km/h (6 Bft) 100,00 %
02.03.2016 22:00 5,7 C 93 % 1001,5 hPa 0,2 l/m 32,8 km/h (5 Bft) W 264 0 min 0,000 mm 0,0 UV-I 0 W/m 4,7 C -6,1 C 53,1 km/h (7 Bft) 96,15 %
02.03.2016 22:01 5,6 C 92 % 1001,7 hPa 0,0 l/m 41,4 km/h (6 Bft) W 264 0 min 0,000 mm 0,0 UV-I 0 W/m 4,4 C -7,9 C 59,5 km/h (7 Bft) 100,00 %
02.03.2016 22:02 5,4 C 91 % 1001,7 hPa 0,2 l/m 27,8 km/h (4 Bft) W 271 0 min 0,000 mm 0,0 UV-I 0 W/m 4,1 C -5,2 C 40,2 km/h (6 Bft) 95,65 %
02.03.2016 22:03 5,3 C 91 % 1001,7 hPa 0,0 l/m 25,8 km/h (4 Bft) W 265 0 min 0,000 mm 0,0 UV-I 0 W/m 4,0 C -4,8 C 43,5 km/h (6 Bft) 100,00 %
02.03.2016 22:04 5,1 C 90 % 1001,7 hPa 0,0 l/m 26,7 km/h (4 Bft) W-NW 290 0 min 0,000 mm 0,0 UV-I 0 W/m 3,6 C -5,3 C 43,5 km/h (6 Bft) 98,65 %
02.03.2016 22:05 5,0 C 90 % 1001,8 hPa 0,0 l/m 22,2 km/h (4 Bft) W 263 0 min 0,000 mm 0,0 UV-I 0 W/m 3,5 C -4,0 C 35,4 km/h (5 Bft) 97,87 %
02.03.2016 22:06 4,8 C 90 % 1001,9 hPa 0,0 l/m 30,2 km/h (5 Bft) W-SW 258 0 min 0,000 mm 0,0 UV-I 0 W/m 3,3 C -6,7 C 38,6 km/h (5 Bft) 86,67 %
02.03.2016 22:07 4,7 C 90 % 1001,8 hPa 0,0 l/m 21,0 km/h (4 Bft) W 269 0 min 0,000 mm 0,0 UV-I 0 W/m 3,2 C -4,0 C 38,6 km/h (5 Bft) 100,00 %
02.03.2016 22:08 4,6 C 90 % 1001,9 hPa 0,0 l/m 14,3 km/h (3 Bft) W 263 0 min 0,000 mm 0,0 UV-I 0 W/m 3,1 C -1,0 C 24,1 km/h (4 Bft) 96,30 %
02.03.2016 22:09 4,4 C 91 % 1001,9 hPa 0,0 l/m 17,7 km/h (3 Bft) W 275 0 min 0,000 mm 0,0 UV-I 0 W/m 3,1 C -3,0 C 24,1 km/h (4 Bft) 100,00 %
02.03.2016 22:10 4,4 C 91 % 1002,0 hPa 0,0 l/m 22,4 km/h (4 Bft) W 280 0 min 0,000 mm 0,0 UV-I 0 W/m 3,1 C -4,9 C 38,6 km/h (5 Bft) 96,30 %
02.03.2016 22:11 4,3 C 91 % 1002,0 hPa 0,0 l/m 21,7 km/h (4 Bft) W 259 0 min 0,000 mm 0,0 UV-I 0 W/m 3,0 C -4,7 C 40,2 km/h (6 Bft) 96,15 %
02.03.2016 22:12 4,2 C 91 % 1002,0 hPa 0,2 l/m 29,6 km/h (5 Bft) W-NW 284 0 min 0,000 mm 0,0 UV-I 0 W/m 2,9 C -7,4 C 45,1 km/h (6 Bft) 100,00 %
02.03.2016 22:13 4,1 C 91 % 1002,0 hPa 0,0 l/m 17,8 km/h (3 Bft) W-SW 250 0 min 0,000 mm 0,0 UV-I 0 W/m 2,8 C -3,4 C 24,1 km/h (4 Bft) 95,65 %
02.03.2016 22:14 4,1 C 92 % 1002,1 hPa 0,0 l/m 18,5 km/h (3 Bft) W 275 0 min 0,000 mm 0,0 UV-I 0 W/m 2,9 C -3,7 C 22,5 km/h (4 Bft) 100,00 %
02.03.2016 22:15 4,0 C 92 % 1002,1 hPa 0,0 l/m 18,6 km/h (3 Bft) W 271 0 min 0,000 mm 0,0 UV-I 0 W/m 2,8 C -3,9 C 24,1 km/h (4 Bft) 95,65 %
02.03.2016 22:16 3,9 C 92 % 1002,1 hPa 0,0 l/m 19,5 km/h (3 Bft) W-SW 255 0 min 0,000 mm 0,0 UV-I 0 W/m 2,7 C -4,4 C 29,0 km/h (5 Bft) 96,67 %
02.03.2016 22:17 3,9 C 92 % 1002,1 hPa 0,0 l/m 20,8 km/h (4 Bft) W-SW 248 0 min 0,000 mm 0,0 UV-I 0 W/m 2,7 C -4,9 C 30,6 km/h (5 Bft) 100,00 %
02.03.2016 22:18 3,9 C 93 % 1002,2 hPa 0,0 l/m 25,2 km/h (4 Bft) W-SW 249 0 min 0,000 mm 0,0 UV-I 0 W/m 2,9 C -6,5 C 29,0 km/h (5 Bft) 100,00 %
02.03.2016 22:19 3,8 C 92 % 1002,3 hPa 0,0 l/m 26,7 km/h (4 Bft) SW 234 0 min 0,000 mm 0,0 UV-I 0 W/m 2,6 C -7,1 C 38,6 km/h (5 Bft) 100,00 %
02.03.2016 22:20 3,8 C 92 % 1002,2 hPa 0,0 l/m 26,0 km/h (4 Bft) W 259 0 min 0,000 mm 0,0 UV-I 0 W/m 2,6 C -6,9 C 37,0 km/h (5 Bft) 100,00 %
02.03.2016 22:21 3,8 C 92 % 1002,2 hPa 0,0 l/m 17,4 km/h (3 Bft) W-SW 257 0 min 0,000 mm 0,0 UV-I 0 W/m 2,6 C -3,6 C 22,5 km/h (4 Bft) 96,67 %
02.03.2016 22:22 3,8 C 92 % 1002,3 hPa 0,0 l/m 23,3 km/h (4 Bft) W-SW 252 0 min 0,000 mm 0,0 UV-I 0 W/m 2,6 C -6,0 C 35,4 km/h (5 Bft) 100,00 %
02.03.2016 22:23 3,7 C 92 % 1002,3 hPa 0,0 l/m 22,2 km/h (4 Bft) W 275 0 min 0,000 mm 0,0 UV-I 0 W/m 2,5 C -5,7 C 30,6 km/h (5 Bft) 100,00 %
02.03.2016 22:24 3,7 C 92 % 1002,3 hPa 0,0 l/m 19,2 km/h (3 Bft) W-NW 284 0 min 0,000 mm 0,0 UV-I 0 W/m 2,5 C -4,5 C 25,7 km/h (4 Bft) 100,00 %
02.03.2016 22:25 3,7 C 93 % 1002,3 hPa 0,0 l/m 20,4 km/h (4 Bft) W-SW 240 0 min 0,000 mm 0,0 UV-I 0 W/m 2,7 C -5,0 C 30,6 km/h (5 Bft) 100,00 %
02.03.2016 22:26 3,7 C 92 % 1002,4 hPa 0,2 l/m 21,7 km/h (4 Bft) W-SW 244 0 min 0,000 mm 0,0 UV-I 0 W/m 2,5 C -5,5 C 29,0 km/h (5 Bft) 97,56 %
02.03.2016 22:27 3,6 C 92 % 1002,3 hPa 0,0 l/m 22,0 km/h (4 Bft) SW 236 0 min 0,000 mm 0,0 UV-I 0 W/m 2,4 C -5,8 C 35,4 km/h (5 Bft) 100,00 %
02.03.2016 22:28 3,6 C 92 % 1002,4 hPa 0,0 l/m 23,5 km/h (4 Bft) W-SW 257 0 min 0,000 mm 0,0 UV-I 0 W/m 2,4 C -6,3 C 29,0 km/h (5 Bft) 100,00 %
02.03.2016 22:29 3,6 C 92 % 1002,4 hPa 0,0 l/m 24,6 km/h (4 Bft) W-SW 250 0 min 0,000 mm 0,0 UV-I 0 W/m 2,4 C -6,7 C 33,8 km/h (5 Bft) 96,30 %
02.03.2016 22:30 3,6 C 92 % 1002,4 hPa 0,0 l/m 22,7 km/h (4 Bft) W-SW 243 0 min 0,000 mm 0,0 UV-I 0 W/m 2,4 C -6,0 C 30,6 km/h (5 Bft) 100,00 %
02.03.2016 22:31 3,6 C 92 % 1002,4 hPa 0,0 l/m 28,3 km/h (4 Bft) W 259 0 min 0,000 mm 0,0 UV-I 0 W/m 2,4 C -7,9 C 38,6 km/h (5 Bft) 100,00 %
02.03.2016 22:32 3,6 C 92 % 1002,5 hPa 0,0 l/m 28,2 km/h (4 Bft) W 263 0 min 0,000 mm 0,0 UV-I 0 W/m 2,4 C -7,8 C 41,8 km/h (6 Bft) 100,00 %
02.03.2016 22:33 3,6 C 92 % 1002,4 hPa 0,0 l/m 26,2 km/h (4 Bft) W 259 0 min 0,000 mm 0,0 UV-I 0 W/m 2,4 C -7,2 C 35,4 km/h (5 Bft) 100,00 %
02.03.2016 22:34 3,5 C 92 % 1002,4 hPa 0,0 l/m 26,7 km/h (4 Bft) W-SW 257 0 min 0,000 mm 0,0 UV-I 0 W/m 2,3 C -7,5 C 43,5 km/h (6 Bft) 100,00 %
02.03.2016 22:35 3,5 C 92 % 1002,4 hPa 0,0 l/m 23,7 km/h (4 Bft) W-SW 239 0 min 0,000 mm 0,0 UV-I 0 W/m 2,3 C -6,5 C 35,4 km/h (5 Bft) 96,30 %
02.03.2016 22:36 3,5 C 92 % 1002,4 hPa 0,0 l/m 26,9 km/h (4 Bft) W-SW 254 0 min 0,000 mm 0,0 UV-I 0 W/m 2,3 C -7,6 C 45,1 km/h (6 Bft) 100,00 %
02.03.2016 22:37 3,5 C 92 % 1002,4 hPa 0,0 l/m 22,0 km/h (4 Bft) W-SW 243 0 min 0,000 mm 0,0 UV-I 0 W/m 2,3 C -5,9 C 30,6 km/h (5 Bft) 100,00 %
02.03.2016 22:38 3,5 C 92 % 1002,5 hPa 0,0 l/m 22,4 km/h (4 Bft) W-SW 245 0 min 0,000 mm 0,0 UV-I 0 W/m 2,3 C -6,1 C 32,2 km/h (5 Bft) 96,15 %
02.03.2016 22:39 3,4 C 92 % 1002,5 hPa 0,0 l/m 19,7 km/h (3 Bft) SW 225 0 min 0,000 mm 0,0 UV-I 0 W/m 2,2 C -5,1 C 29,0 km/h (5 Bft) 100,00 %
02.03.2016 22:40 3,4 C 92 % 1002,6 hPa 0,0 l/m 28,2 km/h (4 Bft) W-SW 258 0 min 0,000 mm 0,0 UV-I 0 W/m 2,2 C -8,1 C 48,3 km/h (6 Bft) 96,15 %
02.03.2016 22:41 3,4 C 92 % 1002,4 hPa 0,0 l/m 25,0 km/h (4 Bft) W-SW 237 0 min 0,000 mm 0,0 UV-I 0 W/m 2,2 C -7,1 C 40,2 km/h (6 Bft) 100,00 %
02.03.2016 22:42 3,4 C 92 % 1002,6 hPa 0,0 l/m 21,0 km/h (4 Bft) SW 223 0 min 0,000 mm 0,0 UV-I 0 W/m 2,2 C -5,6 C 29,0 km/h (5 Bft) 100,00 %
02.03.2016 22:43 3,4 C 92 % 1002,6 hPa 0,0 l/m 14,7 km/h (3 Bft) W 261 0 min 0,000 mm 0,0 UV-I 0 W/m 2,2 C -2,7 C 20,9 km/h (4 Bft) 100,00 %
02.03.2016 22:44 3,4 C 92 % 1002,6 hPa 0,0 l/m 22,7 km/h (4 Bft) W-SW 247 0 min 0,000 mm 0,0 UV-I 0 W/m 2,2 C -6,3 C 27,4 km/h (4 Bft) 100,00 %
02.03.2016 22:45 3,4 C 92 % 1002,6 hPa 0,0 l/m 19,6 km/h (3 Bft) W 265 0 min 0,000 mm 0,0 UV-I 0 W/m 2,2 C -5,1 C 25,7 km/h (4 Bft) 100,00 %
02.03.2016 22:46 3,4 C 92 % 1002,6 hPa 0,0 l/m 19,0 km/h (3 Bft) S-SW 207 0 min 0,000 mm 0,0 UV-I 0 W/m 2,2 C -4,8 C 27,4 km/h (4 Bft) 100,00 %
02.03.2016 22:47 3,4 C 92 % 1002,7 hPa 0,0 l/m 24,6 km/h (4 Bft) W-SW 254 0 min 0,000 mm 0,0 UV-I 0 W/m 2,2 C -7,0 C 35,4 km/h (5 Bft) 100,00 %
02.03.2016 22:48 3,4 C 92 % 1002,7 hPa 0,0 l/m 24,0 km/h (4 Bft) SW 228 0 min 0,000 mm 0,0 UV-I 0 W/m 2,2 C -6,8 C 30,6 km/h (5 Bft) 100,00 %
02.03.2016 22:49 3,3 C 92 % 1002,7 hPa 0,0 l/m 18,2 km/h (3 Bft) W 267 0 min 0,000 mm 0,0 UV-I 0 W/m 2,1 C -4,6 C 22,5 km/h (4 Bft) 100,00 %
02.03.2016 22:50 3,3 C 92 % 1002,7 hPa 0,0 l/m 23,5 km/h (4 Bft) SW 227 0 min 0,000 mm 0,0 UV-I 0 W/m 2,1 C -6,7 C 30,6 km/h (5 Bft) 100,00 %
02.03.2016 22:51 3,3 C 92 % 1002,7 hPa 0,0 l/m 22,1 km/h (4 Bft) W 267 0 min 0,000 mm 0,0 UV-I 0 W/m 2,1 C -6,2 C 33,8 km/h (5 Bft) 100,00 %
02.03.2016 22:52 3,3 C 92 % 1002,7 hPa 0,0 l/m 17,2 km/h (3 Bft) W 276 0 min 0,000 mm 0,0 UV-I 0 W/m 2,1 C -4,1 C 24,1 km/h (4 Bft) 100,00 %
02.03.2016 22:53 3,3 C 92 % 1002,7 hPa 0,0 l/m 18,7 km/h (3 Bft) W-SW 242 0 min 0,000 mm 0,0 UV-I 0 W/m 2,1 C -4,8 C 24,1 km/h (4 Bft) 100,00 %
02.03.2016 22:54 3,3 C 92 % 1002,7 hPa 0,0 l/m 24,5 km/h (4 Bft) W-SW 254 0 min 0,000 mm 0,0 UV-I 0 W/m 2,1 C -7,1 C 32,2 km/h (5 Bft) 100,00 %
02.03.2016 22:55 3,3 C 92 % 1002,7 hPa 0,0 l/m 14,5 km/h (3 Bft) W-SW 248 0 min 0,000 mm 0,0 UV-I 0 W/m 2,1 C -2,7 C 20,9 km/h (4 Bft) 100,00 %
02.03.2016 22:56 3,3 C 92 % 1002,7 hPa 0,0 l/m 12,5 km/h (3 Bft) SW 233 0 min 0,000 mm 0,0 UV-I 0 W/m 2,1 C -1,5 C 19,3 km/h (3 Bft) 100,00 %
02.03.2016 22:57 3,3 C 92 % 1002,7 hPa 0,0 l/m 15,7 km/h (3 Bft) W-SW 246 0 min 0,000 mm 0,0 UV-I 0 W/m 2,1 C -3,4 C 19,3 km/h (3 Bft) 100,00 %
02.03.2016 22:58 3,3 C 92 % 1002,8 hPa 0,0 l/m 18,4 km/h (3 Bft) SW 234 0 min 0,000 mm 0,0 UV-I 0 W/m 2,1 C -4,7 C 24,1 km/h (4 Bft) 96,67 %
02.03.2016 22:59 3,3 C 92 % 1002,8 hPa 0,0 l/m 17,7 km/h (3 Bft) SW 235 0 min 0,000 mm 0,0 UV-I 0 W/m 2,1 C -4,3 C 29,0 km/h (5 Bft) 100,00 %
02.03.2016 23:00 3,3 C 92 % 1002,8 hPa 0,0 l/m 14,7 km/h (3 Bft) W-SW 244 0 min 0,000 mm 0,0 UV-I 0 W/m 2,1 C -2,8 C 19,3 km/h (3 Bft) 100,00 %
02.03.2016 23:01 3,3 C 92 % 1002,8 hPa 0,0 l/m 15,1 km/h (3 Bft) W 260 0 min 0,026 mm 0,0 UV-I 0 W/m 2,1 C -3,0 C 24,1 km/h (4 Bft) 91,30 %
02.03.2016 23:02 3,3 C 93 % 1002,8 hPa 0,0 l/m 15,9 km/h (3 Bft) W-SW 256 0 min 0,000 mm 0,0 UV-I 0 W/m 2,3 C -3,5 C 20,9 km/h (4 Bft) 100,00 %
02.03.2016 23:03 3,3 C 93 % 1002,8 hPa 0,0 l/m 18,4 km/h (3 Bft) SW 229 0 min 0,000 mm 0,0 UV-I 0 W/m 2,3 C -4,7 C 25,7 km/h (4 Bft) 95,65 %
02.03.2016 23:04 3,3 C 93 % 1002,8 hPa 0,0 l/m 15,6 km/h (3 Bft) SW 227 0 min 0,000 mm 0,0 UV-I 0 W/m 2,3 C -3,3 C 24,1 km/h (4 Bft) 100,00 %
02.03.2016 23:05 3,2 C 93 % 1002,9 hPa 0,0 l/m 16,7 km/h (3 Bft) W-SW 240 0 min 0,000 mm 0,0 UV-I 0 W/m 2,2 C -4,0 C 25,7 km/h (4 Bft) 100,00 %
02.03.2016 23:06 3,2 C 93 % 1002,9 hPa 0,0 l/m 19,9 km/h (4 Bft) SW 221 0 min 0,000 mm 0,0 UV-I 0 W/m 2,2 C -5,5 C 27,4 km/h (4 Bft) 100,00 %
02.03.2016 23:07 3,2 C 93 % 1002,8 hPa 0,0 l/m 21,0 km/h (4 Bft) W-SW 253 0 min 0,000 mm 0,0 UV-I 0 W/m 2,2 C -5,9 C 29,0 km/h (5 Bft) 98,65 %
02.03.2016 23:08 3,2 C 93 % 1002,9 hPa 0,0 l/m 19,7 km/h (3 Bft) W-SW 245 0 min 0,000 mm 0,0 UV-I 0 W/m 2,2 C -5,4 C 29,0 km/h (5 Bft) 100,00 %
02.03.2016 23:09 3,2 C 93 % 1002,9 hPa 0,0 l/m 15,2 km/h (3 Bft) W-SW 244 0 min 0,000 mm 0,0 UV-I 0 W/m 2,2 C -3,2 C 24,1 km/h (4 Bft) 100,00 %
02.03.2016 23:10 3,1 C 93 % 1002,9 hPa 0,0 l/m 16,6 km/h (3 Bft) SW 217 0 min 0,000 mm 0,0 UV-I 0 W/m 2,1 C -4,1 C 22,5 km/h (4 Bft) 100,00 %
02.03.2016 23:11 3,1 C 93 % 1002,9 hPa 0,0 l/m 22,1 km/h (4 Bft) SW 221 0 min 0,000 mm 0,0 UV-I 0 W/m 2,1 C -6,5 C 29,0 km/h (5 Bft) 100,00 %
02.03.2016 23:12 3,1 C 93 % 1002,9 hPa 0,0 l/m 22,1 km/h (4 Bft) W 269 0 min 0,000 mm 0,0 UV-I 0 W/m 2,1 C -6,5 C 30,6 km/h (5 Bft) 100,00 %
02.03.2016 23:13 3,0 C 93 % 1002,9 hPa 0,0 l/m 16,7 km/h (3 Bft) SW 217 0 min 0,000 mm 0,0 UV-I 0 W/m 2,0 C -4,2 C 24,1 km/h (4 Bft) 100,00 %
02.03.2016 23:14 2,9 C 93 % 1003,0 hPa 0,0 l/m 20,6 km/h (4 Bft) SW 220 0 min 0,000 mm 0,0 UV-I 0 W/m 1,9 C -6,1 C 32,2 km/h (5 Bft) 100,00 %
02.03.2016 23:15 2,9 C 93 % 1003,0 hPa 0,0 l/m 21,3 km/h (4 Bft) W-SW 239 0 min 0,000 mm 0,0 UV-I 0 W/m 1,9 C -6,4 C 30,6 km/h (5 Bft) 100,00 %
02.03.2016 23:16 2,9 C 93 % 1003,0 hPa 0,0 l/m 19,6 km/h (3 Bft) SW 232 0 min 0,000 mm 0,0 UV-I 0 W/m 1,9 C -5,7 C 27,4 km/h (4 Bft) 100,00 %
02.03.2016 23:17 2,9 C 93 % 1003,0 hPa 0,0 l/m 15,7 km/h (3 Bft) SW 234 0 min 0,000 mm 0,0 UV-I 0 W/m 1,9 C -3,8 C 24,1 km/h (4 Bft) 100,00 %
02.03.2016 23:18 2,9 C 93 % 1003,1 hPa 0,0 l/m 23,7 km/h (4 Bft) SW 223 0 min 0,000 mm 0,0 UV-I 0 W/m 1,9 C -7,3 C 33,8 km/h (5 Bft) 100,00 %
02.03.2016 23:19 2,8 C 93 % 1003,0 hPa 0,0 l/m 21,1 km/h (4 Bft) S-SW 210 0 min 0,000 mm 0,0 UV-I 0 W/m 1,8 C -6,5 C 27,4 km/h (4 Bft) 100,00 %
02.03.2016 23:20 2,8 C 93 % 1003,1 hPa 0,0 l/m 21,6 km/h (4 Bft) SW 236 0 min 0,000 mm 0,0 UV-I 0 W/m 1,8 C -6,7 C 29,0 km/h (5 Bft) 96,15 %
02.03.2016 23:21 2,8 C 93 % 1003,1 hPa 0,0 l/m 18,8 km/h (3 Bft) SW 236 0 min 0,000 mm 0,0 UV-I 0 W/m 1,8 C -5,5 C 29,0 km/h (5 Bft) 100,00 %
02.03.2016 23:22 2,8 C 93 % 1003,0 hPa 0,0 l/m 16,5 km/h (3 Bft) SW 224 0 min 0,000 mm 0,0 UV-I 0 W/m 1,8 C -4,4 C 22,5 km/h (4 Bft) 100,00 %
02.03.2016 23:23 2,8 C 93 % 1003,1 hPa 0,0 l/m 20,4 km/h (4 Bft) SW 223 0 min 0,000 mm 0,0 UV-I 0 W/m 1,8 C -6,2 C 33,8 km/h (5 Bft) 100,00 %
02.03.2016 23:24 2,8 C 93 % 1003,1 hPa 0,0 l/m 22,8 km/h (4 Bft) W-SW 245 0 min 0,000 mm 0,0 UV-I 0 W/m 1,8 C -7,1 C 32,2 km/h (5 Bft) 96,55 %
02.03.2016 23:25 2,7 C 93 % 1003,1 hPa 0,0 l/m 19,9 km/h (4 Bft) SW 225 0 min 0,000 mm 0,0 UV-I 0 W/m 1,7 C -6,1 C 27,4 km/h (4 Bft) 100,00 %
02.03.2016 23:26 2,7 C 93 % 1003,1 hPa 0,0 l/m 26,2 km/h (4 Bft) SW 235 0 min 0,000 mm 0,0 UV-I 0 W/m 1,7 C -8,5 C 35,4 km/h (5 Bft) 100,00 %
02.03.2016 23:27 2,7 C 93 % 1003,1 hPa 0,0 l/m 20,4 km/h (4 Bft) SW 235 0 min 0,000 mm 0,0 UV-I 0 W/m 1,7 C -6,3 C 27,4 km/h (4 Bft) 100,00 %
02.03.2016 23:28 2,7 C 93 % 1003,1 hPa 0,0 l/m 22,3 km/h (4 Bft) W-SW 245 0 min 0,000 mm 0,0 UV-I 0 W/m 1,7 C -7,1 C 30,6 km/h (5 Bft) 100,00 %
02.03.2016 23:29 2,7 C 93 % 1003,1 hPa 0,0 l/m 19,4 km/h (3 Bft) S-SW 197 0 min 0,000 mm 0,0 UV-I 0 W/m 1,7 C -5,9 C 37,0 km/h (5 Bft) 100,00 %
02.03.2016 23:30 2,7 C 93 % 1003,1 hPa 0,0 l/m 27,0 km/h (4 Bft) SW 236 0 min 0,000 mm 0,0 UV-I 0 W/m 1,7 C -8,7 C 35,4 km/h (5 Bft) 100,00 %
02.03.2016 23:31 2,7 C 93 % 1003,1 hPa 0,0 l/m 19,2 km/h (3 Bft) W-SW 244 0 min 0,000 mm 0,0 UV-I 0 W/m 1,7 C -5,8 C 29,0 km/h (5 Bft) 100,00 %
02.03.2016 23:32 2,7 C 93 % 1003,1 hPa 0,0 l/m 17,2 km/h (3 Bft) S-SW 198 0 min 0,000 mm 0,0 UV-I 0 W/m 1,7 C -4,9 C 29,0 km/h (5 Bft) 100,00 %
02.03.2016 23:33 2,7 C 93 % 1003,1 hPa 0,0 l/m 25,0 km/h (4 Bft) SW 232 0 min 0,000 mm 0,0 UV-I 0 W/m 1,7 C -8,1 C 29,0 km/h (5 Bft) 100,00 %
02.03.2016 23:34 2,7 C 93 % 1003,1 hPa 0,0 l/m 23,0 km/h (4 Bft) SW 228 0 min 0,000 mm 0,0 UV-I 0 W/m 1,7 C -7,3 C 29,0 km/h (5 Bft) 100,00 %
02.03.2016 23:35 2,7 C 93 % 1003,1 hPa 0,0 l/m 16,9 km/h (3 Bft) S-SW 213 0 min 0,000 mm 0,0 UV-I 0 W/m 1,7 C -4,7 C 24,1 km/h (4 Bft) 100,00 %
02.03.2016 23:36 2,7 C 93 % 1003,1 hPa 0,0 l/m 17,0 km/h (3 Bft) W 259 0 min 0,000 mm 0,0 UV-I 0 W/m 1,7 C -4,8 C 22,5 km/h (4 Bft) 100,00 %
02.03.2016 23:37 2,7 C 93 % 1003,1 hPa 0,0 l/m 21,3 km/h (4 Bft) SW 231 0 min 0,000 mm 0,0 UV-I 0 W/m 1,7 C -6,7 C 33,8 km/h (5 Bft) 100,00 %
02.03.2016 23:38 2,7 C 93 % 1003,2 hPa 0,0 l/m 18,7 km/h (3 Bft) W 264 0 min 0,000 mm 0,0 UV-I 0 W/m 1,7 C -5,6 C 24,1 km/h (4 Bft) 100,00 %
02.03.2016 23:39 2,7 C 93 % 1003,1 hPa 0,0 l/m 21,0 km/h (4 Bft) SW 217 0 min 0,000 mm 0,0 UV-I 0 W/m 1,7 C -6,6 C 27,4 km/h (4 Bft) 100,00 %
02.03.2016 23:40 2,7 C 93 % 1003,1 hPa 0,0 l/m 20,8 km/h (4 Bft) SW 232 0 min 0,000 mm 0,0 UV-I 0 W/m 1,7 C -6,5 C 27,4 km/h (4 Bft) 96,30 %
02.03.2016 23:41 2,7 C 93 % 1003,1 hPa 0,0 l/m 19,7 km/h (3 Bft) W-SW 251 0 min 0,000 mm 0,0 UV-I 0 W/m 1,7 C -6,0 C 25,7 km/h (4 Bft) 100,00 %
02.03.2016 23:42 2,7 C 93 % 1003,1 hPa 0,0 l/m 20,8 km/h (4 Bft) W-SW 250 0 min 0,000 mm 0,0 UV-I 0 W/m 1,7 C -6,5 C 30,6 km/h (5 Bft) 100,00 %
02.03.2016 23:43 2,7 C 93 % 1003,2 hPa 0,0 l/m 27,2 km/h (4 Bft) SW 224 0 min 0,000 mm 0,0 UV-I 0 W/m 1,7 C -8,8 C 35,4 km/h (5 Bft) 100,00 %
02.03.2016 23:44 2,7 C 93 % 1003,1 hPa 0,0 l/m 19,4 km/h (3 Bft) SW 224 0 min 0,000 mm 0,0 UV-I 0 W/m 1,7 C -5,9 C 25,7 km/h (4 Bft) 100,00 %
02.03.2016 23:45 2,7 C 93 % 1003,1 hPa 0,0 l/m 17,1 km/h (3 Bft) W-SW 257 0 min 0,000 mm 0,0 UV-I 0 W/m 1,7 C -4,8 C 22,5 km/h (4 Bft) 100,00 %
02.03.2016 23:46 2,7 C 93 % 1003,2 hPa 0,0 l/m 16,8 km/h (3 Bft) W-SW 242 0 min 0,000 mm 0,0 UV-I 0 W/m 1,7 C -4,7 C 19,3 km/h (3 Bft) 100,00 %
02.03.2016 23:47 2,7 C 93 % 1003,1 hPa 0,0 l/m 20,0 km/h (4 Bft) S-SW 207 0 min 0,000 mm 0,0 UV-I 0 W/m 1,7 C -6,1 C 27,4 km/h (4 Bft) 100,00 %
02.03.2016 23:48 2,7 C 93 % 1003,1 hPa 0,0 l/m 24,9 km/h (4 Bft) SW 221 0 min 0,000 mm 0,0 UV-I 0 W/m 1,7 C -8,0 C 32,2 km/h (5 Bft) 100,00 %
02.03.2016 23:49 2,7 C 93 % 1003,1 hPa 0,0 l/m 20,3 km/h (4 Bft) S-SW 204 0 min 0,000 mm 0,0 UV-I 0 W/m 1,7 C -6,3 C 24,1 km/h (4 Bft) 100,00 %
02.03.2016 23:50 2,7 C 93 % 1003,2 hPa 0,0 l/m 18,1 km/h (3 Bft) W-SW 242 0 min 0,000 mm 0,0 UV-I 0 W/m 1,7 C -5,3 C 24,1 km/h (4 Bft) 90,91 %
02.03.2016 23:51 2,7 C 93 % 1003,1 hPa 0,0 l/m 20,5 km/h (4 Bft) W-SW 245 0 min 0,000 mm 0,0 UV-I 0 W/m 1,7 C -6,4 C 30,6 km/h (5 Bft) 100,00 %
02.03.2016 23:52 2,7 C 93 % 1003,1 hPa 0,0 l/m 15,2 km/h (3 Bft) S-SW 205 0 min 0,000 mm 0,0 UV-I 0 W/m 1,7 C -3,8 C 20,9 km/h (4 Bft) 96,15 %
02.03.2016 23:53 2,7 C 93 % 1003,2 hPa 0,0 l/m 16,3 km/h (3 Bft) W-SW 241 0 min 0,000 mm 0,0 UV-I 0 W/m 1,7 C -4,4 C 22,5 km/h (4 Bft) 100,00 %
02.03.2016 23:54 2,7 C 93 % 1003,3 hPa 0,0 l/m 16,0 km/h (3 Bft) W-SW 253 0 min 0,000 mm 0,0 UV-I 0 W/m 1,7 C -4,2 C 20,9 km/h (4 Bft) 96,15 %
02.03.2016 23:55 2,7 C 93 % 1003,3 hPa 0,0 l/m 17,6 km/h (3 Bft) W 259 0 min 0,000 mm 0,0 UV-I 0 W/m 1,7 C -5,1 C 20,9 km/h (4 Bft) 96,30 %
02.03.2016 23:56 2,7 C 93 % 1003,1 hPa 0,0 l/m 17,2 km/h (3 Bft) SW 234 0 min 0,000 mm 0,0 UV-I 0 W/m 1,7 C -4,9 C 24,1 km/h (4 Bft) 100,00 %
02.03.2016 23:57 2,7 C 93 % 1003,3 hPa 0,0 l/m 19,9 km/h (4 Bft) SW 227 0 min 0,000 mm 0,0 UV-I 0 W/m 1,7 C -6,1 C 27,4 km/h (4 Bft) 93,33 %
02.03.2016 23:58 2,7 C 93 % 1003,2 hPa 0,0 l/m 19,9 km/h (4 Bft) W 260 0 min 0,000 mm 0,0 UV-I 0 W/m 1,7 C -6,1 C 27,4 km/h (4 Bft) 100,00 %
02.03.2016 23:59 2,7 C 93 % 1003,3 hPa 0,0 l/m 21,3 km/h (4 Bft) SW 233 0 min 0,000 mm 0,0 UV-I 0 W/m 1,7 C -6,7 C 25,7 km/h (4 Bft) 91,67 %
_ Min-Zeit 01:52 13:35 17:52 - 06:51 - - - - - - 02:13 23:43 06:51 09:08
Minimum _ -0,1 C 86 % 998,6 hPa - 0,0 km/h (0 Bft) - - - - - - -1,1 C -8,8 C 0,0 km/h (0 Bft) 85,19 %
_ Max-Zeit 13:54 07:53 00:00 08:36 22:01 - - 12:09 14:00 12:58 12:58 14:02 13:55 22:01 00:00
Maximum _ 8,1 C 97 % 1016,3 hPa 0,2 l/m 41,4 km/h
W (6 Bft)
- - 1 min 0,153 mm 2,1 UV-I 586 W/m 6,7 C 8,1 C 59,5 km/h
W (7 Bft)
100,00 %
Durchschnitt _ 3,5 C 93 % 1007,1 hPa #4,8 l/m 6,7 km/h (2 Bft) SW - #1:07 h #0,686 mm 0,9 UV-I 141 W/m 2,5 C 2,0 C 9,8 km/h (2 Bft) 98,68 %